<?xml version="1.0" encoding="UTF-8" standalone="no" ?>
<gpx xmlns="http://www.topografix.com/GPX/1/1" xmlns:xsi="http://www.w3.org/2001/XMLSchema-instance" xsi:schemaLocation="http://www.topografix.com/GPX/1/1 http://www.topografix.com/GPX/1/1/gpx.xsd" version="1.1" creator="VisuGPX - https://www.visugpx.com">
  <metadata>
    <name>candillargues  Lansargues les étangs</name>
  </metadata>
  <trk>
    <name><![CDATA[ACTIVE LOG085736]]></name>
    <extensions>
      <line xmlns="http://www.topografix.com/GPX/gpx_style/0/2">
        <color>0000FF</color>
        <width>4</width>
      </line>
    </extensions>
    <trkseg>
      <trkpt lat="43.61877" lon="4.06845">
        <ele>-19.013</ele>
        <time>2014-05-17T06:57:36Z</time>
      </trkpt>
      <trkpt lat="43.61875" lon="4.06813">
        <ele>-13.867</ele>
        <time>2014-05-17T06:58:44Z</time>
      </trkpt>
      <trkpt lat="43.61866" lon="4.06799">
        <ele>-9.77</ele>
        <time>2014-05-17T06:58:57Z</time>
      </trkpt>
      <trkpt lat="43.61853" lon="4.06796">
        <ele>-8.406</ele>
        <time>2014-05-17T06:59:11Z</time>
      </trkpt>
      <trkpt lat="43.61841" lon="4.06799">
        <ele>-5.296</ele>
        <time>2014-05-17T06:59:24Z</time>
      </trkpt>
      <trkpt lat="43.61839" lon="4.06803">
        <ele>-5.589</ele>
        <time>2014-05-17T06:59:28Z</time>
      </trkpt>
      <trkpt lat="43.61831" lon="4.06813">
        <ele>-1.589</ele>
        <time>2014-05-17T06:59:39Z</time>
      </trkpt>
      <trkpt lat="43.61819" lon="4.06811">
        <ele>-0.485</ele>
        <time>2014-05-17T06:59:49Z</time>
      </trkpt>
      <trkpt lat="43.61809" lon="4.06805">
        <ele>1.536</ele>
        <time>2014-05-17T06:59:59Z</time>
      </trkpt>
      <trkpt lat="43.61799" lon="4.0679">
        <ele>0.21</ele>
        <time>2014-05-17T07:00:13Z</time>
      </trkpt>
      <trkpt lat="43.61789" lon="4.06778">
        <ele>-0.113</ele>
        <time>2014-05-17T07:00:25Z</time>
      </trkpt>
      <trkpt lat="43.61779" lon="4.06766">
        <ele>0.089</ele>
        <time>2014-05-17T07:00:36Z</time>
      </trkpt>
      <trkpt lat="43.61768" lon="4.06752">
        <ele>-0.923</ele>
        <time>2014-05-17T07:00:49Z</time>
      </trkpt>
      <trkpt lat="43.61757" lon="4.06741">
        <ele>-1.904</ele>
        <time>2014-05-17T07:01:02Z</time>
      </trkpt>
      <trkpt lat="43.61751" lon="4.06729">
        <ele>-1.891</ele>
        <time>2014-05-17T07:01:12Z</time>
      </trkpt>
      <trkpt lat="43.6174" lon="4.06719">
        <ele>-3.731</ele>
        <time>2014-05-17T07:01:26Z</time>
      </trkpt>
      <trkpt lat="43.61732" lon="4.06701">
        <ele>-4.608</ele>
        <time>2014-05-17T07:01:41Z</time>
      </trkpt>
      <trkpt lat="43.61717" lon="4.06678">
        <ele>-3.074</ele>
        <time>2014-05-17T07:01:59Z</time>
      </trkpt>
      <trkpt lat="43.6171" lon="4.0667">
        <ele>-3.872</ele>
        <time>2014-05-17T07:02:10Z</time>
      </trkpt>
      <trkpt lat="43.61696" lon="4.0666">
        <ele>-6.576</ele>
        <time>2014-05-17T07:02:24Z</time>
      </trkpt>
      <trkpt lat="43.61685" lon="4.06657">
        <ele>-7.654</ele>
        <time>2014-05-17T07:02:35Z</time>
      </trkpt>
      <trkpt lat="43.61681" lon="4.06658">
        <ele>-8.261</ele>
        <time>2014-05-17T07:02:38Z</time>
      </trkpt>
      <trkpt lat="43.61663" lon="4.06656">
        <ele>-11.122</ele>
        <time>2014-05-17T07:02:53Z</time>
      </trkpt>
      <trkpt lat="43.61652" lon="4.06665">
        <ele>-10.385</ele>
        <time>2014-05-17T07:03:04Z</time>
      </trkpt>
      <trkpt lat="43.61638" lon="4.0668">
        <ele>-10.393</ele>
        <time>2014-05-17T07:03:18Z</time>
      </trkpt>
      <trkpt lat="43.6163" lon="4.0669">
        <ele>-10.826</ele>
        <time>2014-05-17T07:03:26Z</time>
      </trkpt>
      <trkpt lat="43.6163" lon="4.06691">
        <ele>-10.635</ele>
        <time>2014-05-17T07:03:27Z</time>
      </trkpt>
      <trkpt lat="43.61623" lon="4.06701">
        <ele>-10.024</ele>
        <time>2014-05-17T07:03:37Z</time>
      </trkpt>
      <trkpt lat="43.61618" lon="4.0671">
        <ele>-9.814</ele>
        <time>2014-05-17T07:03:43Z</time>
      </trkpt>
      <trkpt lat="43.61613" lon="4.06712">
        <ele>-7.434</ele>
        <time>2014-05-17T07:03:48Z</time>
      </trkpt>
      <trkpt lat="43.61596" lon="4.06732">
        <ele>-8.511</ele>
        <time>2014-05-17T07:04:06Z</time>
      </trkpt>
      <trkpt lat="43.61586" lon="4.0674">
        <ele>-7.914</ele>
        <time>2014-05-17T07:04:15Z</time>
      </trkpt>
      <trkpt lat="43.61577" lon="4.06748">
        <ele>-7.563</ele>
        <time>2014-05-17T07:04:23Z</time>
      </trkpt>
      <trkpt lat="43.61567" lon="4.06756">
        <ele>-8.413</ele>
        <time>2014-05-17T07:04:32Z</time>
      </trkpt>
      <trkpt lat="43.61563" lon="4.06756">
        <ele>-8.891</ele>
        <time>2014-05-17T07:04:39Z</time>
      </trkpt>
      <trkpt lat="43.61562" lon="4.06756">
        <ele>-9.041</ele>
        <time>2014-05-17T07:04:41Z</time>
      </trkpt>
      <trkpt lat="43.6155" lon="4.06757">
        <ele>-9.315</ele>
        <time>2014-05-17T07:04:51Z</time>
      </trkpt>
      <trkpt lat="43.61543" lon="4.06756">
        <ele>-9.142</ele>
        <time>2014-05-17T07:04:57Z</time>
      </trkpt>
      <trkpt lat="43.61533" lon="4.06757">
        <ele>-9.295</ele>
        <time>2014-05-17T07:05:06Z</time>
      </trkpt>
      <trkpt lat="43.61527" lon="4.06758">
        <ele>-9.64</ele>
        <time>2014-05-17T07:05:13Z</time>
      </trkpt>
      <trkpt lat="43.61522" lon="4.06757">
        <ele>-9.584</ele>
        <time>2014-05-17T07:05:17Z</time>
      </trkpt>
      <trkpt lat="43.61512" lon="4.06757">
        <ele>-9.787</ele>
        <time>2014-05-17T07:05:26Z</time>
      </trkpt>
      <trkpt lat="43.61499" lon="4.06762">
        <ele>-10.448</ele>
        <time>2014-05-17T07:05:34Z</time>
      </trkpt>
      <trkpt lat="43.61498" lon="4.06761">
        <ele>-10.501</ele>
        <time>2014-05-17T07:05:35Z</time>
      </trkpt>
      <trkpt lat="43.6149" lon="4.06758">
        <ele>-10.698</ele>
        <time>2014-05-17T07:05:41Z</time>
      </trkpt>
      <trkpt lat="43.61481" lon="4.06755">
        <ele>-11.256</ele>
        <time>2014-05-17T07:05:49Z</time>
      </trkpt>
      <trkpt lat="43.61468" lon="4.06743">
        <ele>-11.971</ele>
        <time>2014-05-17T07:06:03Z</time>
      </trkpt>
      <trkpt lat="43.61449" lon="4.06727">
        <ele>-12.463</ele>
        <time>2014-05-17T07:06:20Z</time>
      </trkpt>
      <trkpt lat="43.61437" lon="4.06711">
        <ele>-13.203</ele>
        <time>2014-05-17T07:06:35Z</time>
      </trkpt>
      <trkpt lat="43.61428" lon="4.06695">
        <ele>-12.856</ele>
        <time>2014-05-17T07:06:48Z</time>
      </trkpt>
      <trkpt lat="43.61415" lon="4.06679">
        <ele>-13.502</ele>
        <time>2014-05-17T07:07:00Z</time>
      </trkpt>
      <trkpt lat="43.61411" lon="4.06662">
        <ele>-13.049</ele>
        <time>2014-05-17T07:07:14Z</time>
      </trkpt>
      <trkpt lat="43.61399" lon="4.06641">
        <ele>-12.935</ele>
        <time>2014-05-17T07:07:30Z</time>
      </trkpt>
      <trkpt lat="43.61393" lon="4.06625">
        <ele>-12.858</ele>
        <time>2014-05-17T07:07:42Z</time>
      </trkpt>
      <trkpt lat="43.61384" lon="4.06607">
        <ele>-12.825</ele>
        <time>2014-05-17T07:07:55Z</time>
      </trkpt>
      <trkpt lat="43.61375" lon="4.06595">
        <ele>-13.256</ele>
        <time>2014-05-17T07:08:07Z</time>
      </trkpt>
      <trkpt lat="43.61369" lon="4.06592">
        <ele>-13.685</ele>
        <time>2014-05-17T07:08:19Z</time>
      </trkpt>
      <trkpt lat="43.61362" lon="4.06594">
        <ele>-12.624</ele>
        <time>2014-05-17T07:08:27Z</time>
      </trkpt>
      <trkpt lat="43.61346" lon="4.06601">
        <ele>-10.868</ele>
        <time>2014-05-17T07:08:42Z</time>
      </trkpt>
      <trkpt lat="43.61335" lon="4.06606">
        <ele>-10.472</ele>
        <time>2014-05-17T07:08:51Z</time>
      </trkpt>
      <trkpt lat="43.61327" lon="4.06611">
        <ele>-9.66</ele>
        <time>2014-05-17T07:09:01Z</time>
      </trkpt>
      <trkpt lat="43.61319" lon="4.06614">
        <ele>-8.626</ele>
        <time>2014-05-17T07:09:10Z</time>
      </trkpt>
      <trkpt lat="43.61304" lon="4.06625">
        <ele>-7.373</ele>
        <time>2014-05-17T07:09:21Z</time>
      </trkpt>
      <trkpt lat="43.61296" lon="4.0663">
        <ele>-7.041</ele>
        <time>2014-05-17T07:09:28Z</time>
      </trkpt>
      <trkpt lat="43.61288" lon="4.06641">
        <ele>-6.184</ele>
        <time>2014-05-17T07:09:37Z</time>
      </trkpt>
      <trkpt lat="43.61275" lon="4.06649">
        <ele>-6.758</ele>
        <time>2014-05-17T07:09:46Z</time>
      </trkpt>
      <trkpt lat="43.61273" lon="4.06652">
        <ele>-7.151</ele>
        <time>2014-05-17T07:09:47Z</time>
      </trkpt>
      <trkpt lat="43.61265" lon="4.06664">
        <ele>-5.266</ele>
        <time>2014-05-17T07:09:55Z</time>
      </trkpt>
      <trkpt lat="43.61253" lon="4.06664">
        <ele>-3.895</ele>
        <time>2014-05-17T07:10:03Z</time>
      </trkpt>
      <trkpt lat="43.61245" lon="4.06661">
        <ele>-3.303</ele>
        <time>2014-05-17T07:10:10Z</time>
      </trkpt>
      <trkpt lat="43.61246" lon="4.06658">
        <ele>-3.665</ele>
        <time>2014-05-17T07:10:20Z</time>
      </trkpt>
      <trkpt lat="43.61248" lon="4.06646">
        <ele>-3.892</ele>
        <time>2014-05-17T07:11:01Z</time>
      </trkpt>
      <trkpt lat="43.61249" lon="4.06649">
        <ele>-4.055</ele>
        <time>2014-05-17T07:11:12Z</time>
      </trkpt>
      <trkpt lat="43.6125" lon="4.0666">
        <ele>-4.378</ele>
        <time>2014-05-17T07:11:25Z</time>
      </trkpt>
      <trkpt lat="43.61248" lon="4.06666">
        <ele>-5.104</ele>
        <time>2014-05-17T07:11:32Z</time>
      </trkpt>
      <trkpt lat="43.61238" lon="4.06675">
        <ele>-5.057</ele>
        <time>2014-05-17T07:11:41Z</time>
      </trkpt>
      <trkpt lat="43.61231" lon="4.06686">
        <ele>-4.414</ele>
        <time>2014-05-17T07:11:49Z</time>
      </trkpt>
      <trkpt lat="43.6123" lon="4.06687">
        <ele>-4.355</ele>
        <time>2014-05-17T07:11:50Z</time>
      </trkpt>
      <trkpt lat="43.61222" lon="4.06696">
        <ele>-3.823</ele>
        <time>2014-05-17T07:11:58Z</time>
      </trkpt>
      <trkpt lat="43.61214" lon="4.06704">
        <ele>-3.271</ele>
        <time>2014-05-17T07:12:06Z</time>
      </trkpt>
      <trkpt lat="43.61207" lon="4.06714">
        <ele>-2.369</ele>
        <time>2014-05-17T07:12:15Z</time>
      </trkpt>
      <trkpt lat="43.61198" lon="4.06723">
        <ele>-2.324</ele>
        <time>2014-05-17T07:12:25Z</time>
      </trkpt>
      <trkpt lat="43.61189" lon="4.06737">
        <ele>-3.798</ele>
        <time>2014-05-17T07:12:34Z</time>
      </trkpt>
      <trkpt lat="43.61186" lon="4.06741">
        <ele>-4.11</ele>
        <time>2014-05-17T07:12:38Z</time>
      </trkpt>
      <trkpt lat="43.61182" lon="4.06743">
        <ele>-4.462</ele>
        <time>2014-05-17T07:12:41Z</time>
      </trkpt>
      <trkpt lat="43.61179" lon="4.06748">
        <ele>-5.122</ele>
        <time>2014-05-17T07:12:44Z</time>
      </trkpt>
      <trkpt lat="43.61168" lon="4.06757">
        <ele>-6.408</ele>
        <time>2014-05-17T07:12:54Z</time>
      </trkpt>
      <trkpt lat="43.61167" lon="4.06758">
        <ele>-6.648</ele>
        <time>2014-05-17T07:12:55Z</time>
      </trkpt>
      <trkpt lat="43.61159" lon="4.06768">
        <ele>-7.082</ele>
        <time>2014-05-17T07:13:03Z</time>
      </trkpt>
      <trkpt lat="43.61155" lon="4.06774">
        <ele>-7.252</ele>
        <time>2014-05-17T07:13:06Z</time>
      </trkpt>
      <trkpt lat="43.61151" lon="4.06777">
        <ele>-7.33</ele>
        <time>2014-05-17T07:13:10Z</time>
      </trkpt>
      <trkpt lat="43.61146" lon="4.06782">
        <ele>-7.532</ele>
        <time>2014-05-17T07:13:14Z</time>
      </trkpt>
      <trkpt lat="43.61137" lon="4.06784">
        <ele>-7.425</ele>
        <time>2014-05-17T07:13:22Z</time>
      </trkpt>
      <trkpt lat="43.61132" lon="4.06786">
        <ele>-6.951</ele>
        <time>2014-05-17T07:13:26Z</time>
      </trkpt>
      <trkpt lat="43.6113" lon="4.06788">
        <ele>-6.587</ele>
        <time>2014-05-17T07:13:28Z</time>
      </trkpt>
      <trkpt lat="43.61122" lon="4.06787">
        <ele>-6.639</ele>
        <time>2014-05-17T07:13:35Z</time>
      </trkpt>
      <trkpt lat="43.61111" lon="4.06792">
        <ele>-7.345</ele>
        <time>2014-05-17T07:13:44Z</time>
      </trkpt>
      <trkpt lat="43.611" lon="4.06792">
        <ele>-7.729</ele>
        <time>2014-05-17T07:13:51Z</time>
      </trkpt>
      <trkpt lat="43.61087" lon="4.06794">
        <ele>-9.644</ele>
        <time>2014-05-17T07:14:02Z</time>
      </trkpt>
      <trkpt lat="43.61071" lon="4.06794">
        <ele>-10.521</ele>
        <time>2014-05-17T07:14:15Z</time>
      </trkpt>
      <trkpt lat="43.61069" lon="4.06794">
        <ele>-10.796</ele>
        <time>2014-05-17T07:14:17Z</time>
      </trkpt>
      <trkpt lat="43.61062" lon="4.06795">
        <ele>-10.449</ele>
        <time>2014-05-17T07:14:25Z</time>
      </trkpt>
      <trkpt lat="43.6105" lon="4.06794">
        <ele>-9.929</ele>
        <time>2014-05-17T07:14:34Z</time>
      </trkpt>
      <trkpt lat="43.61041" lon="4.06786">
        <ele>-9.525</ele>
        <time>2014-05-17T07:14:41Z</time>
      </trkpt>
      <trkpt lat="43.61035" lon="4.06772">
        <ele>-9.804</ele>
        <time>2014-05-17T07:14:52Z</time>
      </trkpt>
      <trkpt lat="43.61034" lon="4.06761">
        <ele>-10.521</ele>
        <time>2014-05-17T07:15:02Z</time>
      </trkpt>
      <trkpt lat="43.61033" lon="4.06756">
        <ele>-10.635</ele>
        <time>2014-05-17T07:15:04Z</time>
      </trkpt>
      <trkpt lat="43.61027" lon="4.06732">
        <ele>-11.215</ele>
        <time>2014-05-17T07:15:19Z</time>
      </trkpt>
      <trkpt lat="43.61022" lon="4.06709">
        <ele>-10.398</ele>
        <time>2014-05-17T07:15:28Z</time>
      </trkpt>
      <trkpt lat="43.61018" lon="4.06704">
        <ele>-10.879</ele>
        <time>2014-05-17T07:15:33Z</time>
      </trkpt>
      <trkpt lat="43.61015" lon="4.06693">
        <ele>-10.997</ele>
        <time>2014-05-17T07:15:40Z</time>
      </trkpt>
      <trkpt lat="43.61009" lon="4.06679">
        <ele>-10.821</ele>
        <time>2014-05-17T07:15:48Z</time>
      </trkpt>
      <trkpt lat="43.61002" lon="4.06665">
        <ele>-9.65</ele>
        <time>2014-05-17T07:15:56Z</time>
      </trkpt>
      <trkpt lat="43.61002" lon="4.06663">
        <ele>-9.566</ele>
        <time>2014-05-17T07:15:57Z</time>
      </trkpt>
      <trkpt lat="43.61002" lon="4.06649">
        <ele>-8.607</ele>
        <time>2014-05-17T07:16:04Z</time>
      </trkpt>
      <trkpt lat="43.60998" lon="4.0664">
        <ele>-7.678</ele>
        <time>2014-05-17T07:16:10Z</time>
      </trkpt>
      <trkpt lat="43.60995" lon="4.06628">
        <ele>-5.258</ele>
        <time>2014-05-17T07:16:18Z</time>
      </trkpt>
      <trkpt lat="43.60985" lon="4.06613">
        <ele>-2.498</ele>
        <time>2014-05-17T07:16:30Z</time>
      </trkpt>
      <trkpt lat="43.60967" lon="4.06605">
        <ele>-0.829</ele>
        <time>2014-05-17T07:16:42Z</time>
      </trkpt>
      <trkpt lat="43.60952" lon="4.06601">
        <ele>0.802</ele>
        <time>2014-05-17T07:16:54Z</time>
      </trkpt>
      <trkpt lat="43.60945" lon="4.06602">
        <ele>1.72</ele>
        <time>2014-05-17T07:16:58Z</time>
      </trkpt>
      <trkpt lat="43.60939" lon="4.06604">
        <ele>1.968</ele>
        <time>2014-05-17T07:17:03Z</time>
      </trkpt>
      <trkpt lat="43.60934" lon="4.06608">
        <ele>3.284</ele>
        <time>2014-05-17T07:17:07Z</time>
      </trkpt>
      <trkpt lat="43.60926" lon="4.06609">
        <ele>5.058</ele>
        <time>2014-05-17T07:17:15Z</time>
      </trkpt>
      <trkpt lat="43.60921" lon="4.06614">
        <ele>5.09</ele>
        <time>2014-05-17T07:17:21Z</time>
      </trkpt>
      <trkpt lat="43.60911" lon="4.0662">
        <ele>4.397</ele>
        <time>2014-05-17T07:17:29Z</time>
      </trkpt>
      <trkpt lat="43.60901" lon="4.06627">
        <ele>6.954</ele>
        <time>2014-05-17T07:17:37Z</time>
      </trkpt>
      <trkpt lat="43.60891" lon="4.06635">
        <ele>7.369</ele>
        <time>2014-05-17T07:17:46Z</time>
      </trkpt>
      <trkpt lat="43.60881" lon="4.06642">
        <ele>7.089</ele>
        <time>2014-05-17T07:17:54Z</time>
      </trkpt>
      <trkpt lat="43.60877" lon="4.06644">
        <ele>7.074</ele>
        <time>2014-05-17T07:17:57Z</time>
      </trkpt>
      <trkpt lat="43.60874" lon="4.06651">
        <ele>6.338</ele>
        <time>2014-05-17T07:18:02Z</time>
      </trkpt>
      <trkpt lat="43.60874" lon="4.0666">
        <ele>6.379</ele>
        <time>2014-05-17T07:18:08Z</time>
      </trkpt>
      <trkpt lat="43.60876" lon="4.06665">
        <ele>6.685</ele>
        <time>2014-05-17T07:18:11Z</time>
      </trkpt>
      <trkpt lat="43.6088" lon="4.06673">
        <ele>6.416</ele>
        <time>2014-05-17T07:18:16Z</time>
      </trkpt>
      <trkpt lat="43.60882" lon="4.06678">
        <ele>5.821</ele>
        <time>2014-05-17T07:18:20Z</time>
      </trkpt>
      <trkpt lat="43.60885" lon="4.06682">
        <ele>6.072</ele>
        <time>2014-05-17T07:18:23Z</time>
      </trkpt>
      <trkpt lat="43.6089" lon="4.06691">
        <ele>6.168</ele>
        <time>2014-05-17T07:18:29Z</time>
      </trkpt>
      <trkpt lat="43.60895" lon="4.06702">
        <ele>6.292</ele>
        <time>2014-05-17T07:18:36Z</time>
      </trkpt>
      <trkpt lat="43.60897" lon="4.06703">
        <ele>6.161</ele>
        <time>2014-05-17T07:18:37Z</time>
      </trkpt>
      <trkpt lat="43.60899" lon="4.06708">
        <ele>5.897</ele>
        <time>2014-05-17T07:18:40Z</time>
      </trkpt>
      <trkpt lat="43.60901" lon="4.06711">
        <ele>5.628</ele>
        <time>2014-05-17T07:18:43Z</time>
      </trkpt>
      <trkpt lat="43.60901" lon="4.06716">
        <ele>5.994</ele>
        <time>2014-05-17T07:18:46Z</time>
      </trkpt>
      <trkpt lat="43.60903" lon="4.06718">
        <ele>6.124</ele>
        <time>2014-05-17T07:18:48Z</time>
      </trkpt>
      <trkpt lat="43.60908" lon="4.06727">
        <ele>6.468</ele>
        <time>2014-05-17T07:18:54Z</time>
      </trkpt>
      <trkpt lat="43.60907" lon="4.06743">
        <ele>5.843</ele>
        <time>2014-05-17T07:19:02Z</time>
      </trkpt>
      <trkpt lat="43.60904" lon="4.06753">
        <ele>5.211</ele>
        <time>2014-05-17T07:19:12Z</time>
      </trkpt>
      <trkpt lat="43.60899" lon="4.06757">
        <ele>4.912</ele>
        <time>2014-05-17T07:19:18Z</time>
      </trkpt>
      <trkpt lat="43.60888" lon="4.06767">
        <ele>7.454</ele>
        <time>2014-05-17T07:19:30Z</time>
      </trkpt>
      <trkpt lat="43.60881" lon="4.06769">
        <ele>7.847</ele>
        <time>2014-05-17T07:19:39Z</time>
      </trkpt>
      <trkpt lat="43.60869" lon="4.06783">
        <ele>8.369</ele>
        <time>2014-05-17T07:19:51Z</time>
      </trkpt>
      <trkpt lat="43.60867" lon="4.06783">
        <ele>8.452</ele>
        <time>2014-05-17T07:19:52Z</time>
      </trkpt>
      <trkpt lat="43.60855" lon="4.06789">
        <ele>9.569</ele>
        <time>2014-05-17T07:20:03Z</time>
      </trkpt>
      <trkpt lat="43.60848" lon="4.06791">
        <ele>9.918</ele>
        <time>2014-05-17T07:20:09Z</time>
      </trkpt>
      <trkpt lat="43.60843" lon="4.06793">
        <ele>10.118</ele>
        <time>2014-05-17T07:20:13Z</time>
      </trkpt>
      <trkpt lat="43.60838" lon="4.06797">
        <ele>10.489</ele>
        <time>2014-05-17T07:20:17Z</time>
      </trkpt>
      <trkpt lat="43.60828" lon="4.06802">
        <ele>10.978</ele>
        <time>2014-05-17T07:20:25Z</time>
      </trkpt>
      <trkpt lat="43.60821" lon="4.06806">
        <ele>10.828</ele>
        <time>2014-05-17T07:20:31Z</time>
      </trkpt>
      <trkpt lat="43.60813" lon="4.06816">
        <ele>10.967</ele>
        <time>2014-05-17T07:20:38Z</time>
      </trkpt>
      <trkpt lat="43.60808" lon="4.06822">
        <ele>10.397</ele>
        <time>2014-05-17T07:20:45Z</time>
      </trkpt>
      <trkpt lat="43.60808" lon="4.06825">
        <ele>10.11</ele>
        <time>2014-05-17T07:20:56Z</time>
      </trkpt>
      <trkpt lat="43.60801" lon="4.06829">
        <ele>7.941</ele>
        <time>2014-05-17T07:21:06Z</time>
      </trkpt>
      <trkpt lat="43.60789" lon="4.06838">
        <ele>6.819</ele>
        <time>2014-05-17T07:21:17Z</time>
      </trkpt>
      <trkpt lat="43.60783" lon="4.06841">
        <ele>6.798</ele>
        <time>2014-05-17T07:21:25Z</time>
      </trkpt>
      <trkpt lat="43.60772" lon="4.0685">
        <ele>5.645</ele>
        <time>2014-05-17T07:21:38Z</time>
      </trkpt>
      <trkpt lat="43.6077" lon="4.06851">
        <ele>5.458</ele>
        <time>2014-05-17T07:21:48Z</time>
      </trkpt>
      <trkpt lat="43.60766" lon="4.06858">
        <ele>3.777</ele>
        <time>2014-05-17T07:22:11Z</time>
      </trkpt>
      <trkpt lat="43.60764" lon="4.06859">
        <ele>3.426</ele>
        <time>2014-05-17T07:22:21Z</time>
      </trkpt>
      <trkpt lat="43.60761" lon="4.06863">
        <ele>3.389</ele>
        <time>2014-05-17T07:22:29Z</time>
      </trkpt>
      <trkpt lat="43.60756" lon="4.06863">
        <ele>3.153</ele>
        <time>2014-05-17T07:22:33Z</time>
      </trkpt>
      <trkpt lat="43.60746" lon="4.06872">
        <ele>2.873</ele>
        <time>2014-05-17T07:22:41Z</time>
      </trkpt>
      <trkpt lat="43.60743" lon="4.06872">
        <ele>2.812</ele>
        <time>2014-05-17T07:22:43Z</time>
      </trkpt>
      <trkpt lat="43.60734" lon="4.06878">
        <ele>3.47</ele>
        <time>2014-05-17T07:22:53Z</time>
      </trkpt>
      <trkpt lat="43.60722" lon="4.06884">
        <ele>3.924</ele>
        <time>2014-05-17T07:23:02Z</time>
      </trkpt>
      <trkpt lat="43.60715" lon="4.06889">
        <ele>4.25</ele>
        <time>2014-05-17T07:23:10Z</time>
      </trkpt>
      <trkpt lat="43.60711" lon="4.06893">
        <ele>4.586</ele>
        <time>2014-05-17T07:23:13Z</time>
      </trkpt>
      <trkpt lat="43.60701" lon="4.06901">
        <ele>4.666</ele>
        <time>2014-05-17T07:23:23Z</time>
      </trkpt>
      <trkpt lat="43.60698" lon="4.06904">
        <ele>4.753</ele>
        <time>2014-05-17T07:23:26Z</time>
      </trkpt>
      <trkpt lat="43.60678" lon="4.06913">
        <ele>6.493</ele>
        <time>2014-05-17T07:23:39Z</time>
      </trkpt>
      <trkpt lat="43.60671" lon="4.06922">
        <ele>7.204</ele>
        <time>2014-05-17T07:23:48Z</time>
      </trkpt>
      <trkpt lat="43.60662" lon="4.06931">
        <ele>7.983</ele>
        <time>2014-05-17T07:23:55Z</time>
      </trkpt>
      <trkpt lat="43.60652" lon="4.06938">
        <ele>9.447</ele>
        <time>2014-05-17T07:24:04Z</time>
      </trkpt>
      <trkpt lat="43.60639" lon="4.06944">
        <ele>10.622</ele>
        <time>2014-05-17T07:24:13Z</time>
      </trkpt>
      <trkpt lat="43.60629" lon="4.06951">
        <ele>12.129</ele>
        <time>2014-05-17T07:24:23Z</time>
      </trkpt>
      <trkpt lat="43.60624" lon="4.06959">
        <ele>12.176</ele>
        <time>2014-05-17T07:24:27Z</time>
      </trkpt>
      <trkpt lat="43.60618" lon="4.06965">
        <ele>12.358</ele>
        <time>2014-05-17T07:24:33Z</time>
      </trkpt>
      <trkpt lat="43.60614" lon="4.06967">
        <ele>12.794</ele>
        <time>2014-05-17T07:24:36Z</time>
      </trkpt>
      <trkpt lat="43.6061" lon="4.06974">
        <ele>12.936</ele>
        <time>2014-05-17T07:24:43Z</time>
      </trkpt>
      <trkpt lat="43.60607" lon="4.06974">
        <ele>13.092</ele>
        <time>2014-05-17T07:24:45Z</time>
      </trkpt>
      <trkpt lat="43.60597" lon="4.06978">
        <ele>12.487</ele>
        <time>2014-05-17T07:24:53Z</time>
      </trkpt>
      <trkpt lat="43.60593" lon="4.0698">
        <ele>12.389</ele>
        <time>2014-05-17T07:24:56Z</time>
      </trkpt>
      <trkpt lat="43.60581" lon="4.06986">
        <ele>10.902</ele>
        <time>2014-05-17T07:25:05Z</time>
      </trkpt>
      <trkpt lat="43.60572" lon="4.06996">
        <ele>10.476</ele>
        <time>2014-05-17T07:25:13Z</time>
      </trkpt>
      <trkpt lat="43.60568" lon="4.06999">
        <ele>10.952</ele>
        <time>2014-05-17T07:25:17Z</time>
      </trkpt>
      <trkpt lat="43.60562" lon="4.07007">
        <ele>10.382</ele>
        <time>2014-05-17T07:25:24Z</time>
      </trkpt>
      <trkpt lat="43.60553" lon="4.07011">
        <ele>10.491</ele>
        <time>2014-05-17T07:25:33Z</time>
      </trkpt>
      <trkpt lat="43.60544" lon="4.07018">
        <ele>10.78</ele>
        <time>2014-05-17T07:25:40Z</time>
      </trkpt>
      <trkpt lat="43.60541" lon="4.07028">
        <ele>10.316</ele>
        <time>2014-05-17T07:25:46Z</time>
      </trkpt>
      <trkpt lat="43.6053" lon="4.07029">
        <ele>11.125</ele>
        <time>2014-05-17T07:25:55Z</time>
      </trkpt>
      <trkpt lat="43.60519" lon="4.07032">
        <ele>12.052</ele>
        <time>2014-05-17T07:26:06Z</time>
      </trkpt>
      <trkpt lat="43.60518" lon="4.07038">
        <ele>12.84</ele>
        <time>2014-05-17T07:26:18Z</time>
      </trkpt>
      <trkpt lat="43.60515" lon="4.07041">
        <ele>9.913</ele>
        <time>2014-05-17T07:27:27Z</time>
      </trkpt>
      <trkpt lat="43.60504" lon="4.07049">
        <ele>8.541</ele>
        <time>2014-05-17T07:27:40Z</time>
      </trkpt>
      <trkpt lat="43.60497" lon="4.07054">
        <ele>6.813</ele>
        <time>2014-05-17T07:27:53Z</time>
      </trkpt>
      <trkpt lat="43.60487" lon="4.0706">
        <ele>5.019</ele>
        <time>2014-05-17T07:28:08Z</time>
      </trkpt>
      <trkpt lat="43.60477" lon="4.07068">
        <ele>4.382</ele>
        <time>2014-05-17T07:28:21Z</time>
      </trkpt>
      <trkpt lat="43.60471" lon="4.07073">
        <ele>4.184</ele>
        <time>2014-05-17T07:28:27Z</time>
      </trkpt>
      <trkpt lat="43.60469" lon="4.07078">
        <ele>4.072</ele>
        <time>2014-05-17T07:28:30Z</time>
      </trkpt>
      <trkpt lat="43.60461" lon="4.07082">
        <ele>3.612</ele>
        <time>2014-05-17T07:28:39Z</time>
      </trkpt>
      <trkpt lat="43.6046" lon="4.07083">
        <ele>3.561</ele>
        <time>2014-05-17T07:28:40Z</time>
      </trkpt>
      <trkpt lat="43.60449" lon="4.07094">
        <ele>2.622</ele>
        <time>2014-05-17T07:28:54Z</time>
      </trkpt>
      <trkpt lat="43.60433" lon="4.07106">
        <ele>1.822</ele>
        <time>2014-05-17T07:29:08Z</time>
      </trkpt>
      <trkpt lat="43.60426" lon="4.07109">
        <ele>2.257</ele>
        <time>2014-05-17T07:29:15Z</time>
      </trkpt>
      <trkpt lat="43.60415" lon="4.07115">
        <ele>2.935</ele>
        <time>2014-05-17T07:29:26Z</time>
      </trkpt>
      <trkpt lat="43.60407" lon="4.07122">
        <ele>3.32</ele>
        <time>2014-05-17T07:29:35Z</time>
      </trkpt>
      <trkpt lat="43.60395" lon="4.07127">
        <ele>3.611</ele>
        <time>2014-05-17T07:29:46Z</time>
      </trkpt>
      <trkpt lat="43.60392" lon="4.07128">
        <ele>3.758</ele>
        <time>2014-05-17T07:29:48Z</time>
      </trkpt>
      <trkpt lat="43.60383" lon="4.07137">
        <ele>3.955</ele>
        <time>2014-05-17T07:29:58Z</time>
      </trkpt>
      <trkpt lat="43.60379" lon="4.07141">
        <ele>4.353</ele>
        <time>2014-05-17T07:30:02Z</time>
      </trkpt>
      <trkpt lat="43.60371" lon="4.07147">
        <ele>4.789</ele>
        <time>2014-05-17T07:30:10Z</time>
      </trkpt>
      <trkpt lat="43.60367" lon="4.07151">
        <ele>4.884</ele>
        <time>2014-05-17T07:30:14Z</time>
      </trkpt>
      <trkpt lat="43.60353" lon="4.0716">
        <ele>4.282</ele>
        <time>2014-05-17T07:30:29Z</time>
      </trkpt>
      <trkpt lat="43.60341" lon="4.0717">
        <ele>4.419</ele>
        <time>2014-05-17T07:30:40Z</time>
      </trkpt>
      <trkpt lat="43.60331" lon="4.07181">
        <ele>5.125</ele>
        <time>2014-05-17T07:30:52Z</time>
      </trkpt>
      <trkpt lat="43.60324" lon="4.07181">
        <ele>5.234</ele>
        <time>2014-05-17T07:31:00Z</time>
      </trkpt>
      <trkpt lat="43.60321" lon="4.07185">
        <ele>5.302</ele>
        <time>2014-05-17T07:31:03Z</time>
      </trkpt>
      <trkpt lat="43.60314" lon="4.07192">
        <ele>6.041</ele>
        <time>2014-05-17T07:31:10Z</time>
      </trkpt>
      <trkpt lat="43.60302" lon="4.07195">
        <ele>5.699</ele>
        <time>2014-05-17T07:31:23Z</time>
      </trkpt>
      <trkpt lat="43.60299" lon="4.07202">
        <ele>5.395</ele>
        <time>2014-05-17T07:31:31Z</time>
      </trkpt>
      <trkpt lat="43.60294" lon="4.07209">
        <ele>5.195</ele>
        <time>2014-05-17T07:31:44Z</time>
      </trkpt>
      <trkpt lat="43.60298" lon="4.07209">
        <ele>4.638</ele>
        <time>2014-05-17T07:32:48Z</time>
      </trkpt>
      <trkpt lat="43.60301" lon="4.07204">
        <ele>4.392</ele>
        <time>2014-05-17T07:33:15Z</time>
      </trkpt>
      <trkpt lat="43.60306" lon="4.07202">
        <ele>2.331</ele>
        <time>2014-05-17T07:33:35Z</time>
      </trkpt>
      <trkpt lat="43.60304" lon="4.07194">
        <ele>1.667</ele>
        <time>2014-05-17T07:34:27Z</time>
      </trkpt>
      <trkpt lat="43.60304" lon="4.07185">
        <ele>1.778</ele>
        <time>2014-05-17T07:34:37Z</time>
      </trkpt>
      <trkpt lat="43.60301" lon="4.07177">
        <ele>1.945</ele>
        <time>2014-05-17T07:34:43Z</time>
      </trkpt>
      <trkpt lat="43.60292" lon="4.07172">
        <ele>2.012</ele>
        <time>2014-05-17T07:34:55Z</time>
      </trkpt>
      <trkpt lat="43.60294" lon="4.07172">
        <ele>1.909</ele>
        <time>2014-05-17T07:35:10Z</time>
      </trkpt>
      <trkpt lat="43.60294" lon="4.07174">
        <ele>2.239</ele>
        <time>2014-05-17T07:35:12Z</time>
      </trkpt>
      <trkpt lat="43.60297" lon="4.07172">
        <ele>1.695</ele>
        <time>2014-05-17T07:35:20Z</time>
      </trkpt>
      <trkpt lat="43.60302" lon="4.07166">
        <ele>1.646</ele>
        <time>2014-05-17T07:35:54Z</time>
      </trkpt>
      <trkpt lat="43.603" lon="4.07144">
        <ele>2.076</ele>
        <time>2014-05-17T07:36:00Z</time>
      </trkpt>
      <trkpt lat="43.60299" lon="4.07131">
        <ele>2.231</ele>
        <time>2014-05-17T07:36:04Z</time>
      </trkpt>
      <trkpt lat="43.60297" lon="4.0712">
        <ele>2.47</ele>
        <time>2014-05-17T07:36:07Z</time>
      </trkpt>
      <trkpt lat="43.60297" lon="4.0711">
        <ele>2.712</ele>
        <time>2014-05-17T07:36:10Z</time>
      </trkpt>
      <trkpt lat="43.60299" lon="4.07102">
        <ele>2.918</ele>
        <time>2014-05-17T07:36:15Z</time>
      </trkpt>
      <trkpt lat="43.60298" lon="4.07082">
        <ele>3.16</ele>
        <time>2014-05-17T07:36:23Z</time>
      </trkpt>
      <trkpt lat="43.60298" lon="4.0706">
        <ele>4.611</ele>
        <time>2014-05-17T07:36:32Z</time>
      </trkpt>
      <trkpt lat="43.60299" lon="4.07045">
        <ele>4.43</ele>
        <time>2014-05-17T07:36:39Z</time>
      </trkpt>
      <trkpt lat="43.60294" lon="4.07037">
        <ele>6.085</ele>
        <time>2014-05-17T07:36:43Z</time>
      </trkpt>
      <trkpt lat="43.60295" lon="4.0703">
        <ele>6.825</ele>
        <time>2014-05-17T07:36:46Z</time>
      </trkpt>
      <trkpt lat="43.60293" lon="4.0702">
        <ele>7.324</ele>
        <time>2014-05-17T07:36:50Z</time>
      </trkpt>
      <trkpt lat="43.60293" lon="4.0701">
        <ele>7.073</ele>
        <time>2014-05-17T07:36:57Z</time>
      </trkpt>
      <trkpt lat="43.60289" lon="4.06992">
        <ele>8.443</ele>
        <time>2014-05-17T07:37:04Z</time>
      </trkpt>
      <trkpt lat="43.60284" lon="4.06979">
        <ele>10.396</ele>
        <time>2014-05-17T07:37:12Z</time>
      </trkpt>
      <trkpt lat="43.60285" lon="4.06972">
        <ele>11.186</ele>
        <time>2014-05-17T07:37:16Z</time>
      </trkpt>
      <trkpt lat="43.60283" lon="4.06958">
        <ele>12.269</ele>
        <time>2014-05-17T07:37:24Z</time>
      </trkpt>
      <trkpt lat="43.60281" lon="4.06946">
        <ele>13.3</ele>
        <time>2014-05-17T07:37:32Z</time>
      </trkpt>
      <trkpt lat="43.60277" lon="4.06935">
        <ele>13.89</ele>
        <time>2014-05-17T07:37:39Z</time>
      </trkpt>
      <trkpt lat="43.60276" lon="4.06927">
        <ele>14.216</ele>
        <time>2014-05-17T07:37:43Z</time>
      </trkpt>
      <trkpt lat="43.60274" lon="4.06918">
        <ele>13.775</ele>
        <time>2014-05-17T07:37:50Z</time>
      </trkpt>
      <trkpt lat="43.6027" lon="4.06906">
        <ele>14.097</ele>
        <time>2014-05-17T07:37:57Z</time>
      </trkpt>
      <trkpt lat="43.60268" lon="4.06902">
        <ele>14.438</ele>
        <time>2014-05-17T07:38:03Z</time>
      </trkpt>
      <trkpt lat="43.60269" lon="4.06892">
        <ele>13.21</ele>
        <time>2014-05-17T07:38:25Z</time>
      </trkpt>
      <trkpt lat="43.6027" lon="4.06877">
        <ele>12.273</ele>
        <time>2014-05-17T07:38:36Z</time>
      </trkpt>
      <trkpt lat="43.60262" lon="4.06857">
        <ele>12.714</ele>
        <time>2014-05-17T07:38:48Z</time>
      </trkpt>
      <trkpt lat="43.60259" lon="4.06854">
        <ele>12.748</ele>
        <time>2014-05-17T07:38:51Z</time>
      </trkpt>
      <trkpt lat="43.60258" lon="4.06845">
        <ele>12.805</ele>
        <time>2014-05-17T07:38:58Z</time>
      </trkpt>
      <trkpt lat="43.60255" lon="4.06831">
        <ele>12.818</ele>
        <time>2014-05-17T07:39:05Z</time>
      </trkpt>
      <trkpt lat="43.60254" lon="4.06824">
        <ele>12.016</ele>
        <time>2014-05-17T07:39:10Z</time>
      </trkpt>
      <trkpt lat="43.60255" lon="4.06819">
        <ele>11.451</ele>
        <time>2014-05-17T07:39:13Z</time>
      </trkpt>
      <trkpt lat="43.60249" lon="4.068">
        <ele>10.042</ele>
        <time>2014-05-17T07:39:23Z</time>
      </trkpt>
      <trkpt lat="43.60244" lon="4.06788">
        <ele>10.098</ele>
        <time>2014-05-17T07:39:30Z</time>
      </trkpt>
      <trkpt lat="43.60243" lon="4.06783">
        <ele>10.036</ele>
        <time>2014-05-17T07:39:32Z</time>
      </trkpt>
      <trkpt lat="43.60238" lon="4.06772">
        <ele>11.583</ele>
        <time>2014-05-17T07:39:40Z</time>
      </trkpt>
      <trkpt lat="43.60233" lon="4.06762">
        <ele>11.933</ele>
        <time>2014-05-17T07:39:47Z</time>
      </trkpt>
      <trkpt lat="43.60231" lon="4.06748">
        <ele>12.076</ele>
        <time>2014-05-17T07:39:55Z</time>
      </trkpt>
      <trkpt lat="43.60231" lon="4.06746">
        <ele>11.937</ele>
        <time>2014-05-17T07:39:56Z</time>
      </trkpt>
      <trkpt lat="43.60229" lon="4.06725">
        <ele>12.303</ele>
        <time>2014-05-17T07:40:10Z</time>
      </trkpt>
      <trkpt lat="43.60228" lon="4.06721">
        <ele>12.505</ele>
        <time>2014-05-17T07:40:12Z</time>
      </trkpt>
      <trkpt lat="43.60226" lon="4.06715">
        <ele>11.488</ele>
        <time>2014-05-17T07:40:15Z</time>
      </trkpt>
      <trkpt lat="43.60226" lon="4.06694">
        <ele>12.701</ele>
        <time>2014-05-17T07:40:27Z</time>
      </trkpt>
      <trkpt lat="43.60225" lon="4.06691">
        <ele>12.798</ele>
        <time>2014-05-17T07:40:29Z</time>
      </trkpt>
      <trkpt lat="43.60224" lon="4.06688">
        <ele>13.209</ele>
        <time>2014-05-17T07:40:31Z</time>
      </trkpt>
      <trkpt lat="43.60221" lon="4.06675">
        <ele>14.846</ele>
        <time>2014-05-17T07:40:39Z</time>
      </trkpt>
      <trkpt lat="43.60216" lon="4.06669">
        <ele>15.77</ele>
        <time>2014-05-17T07:40:44Z</time>
      </trkpt>
      <trkpt lat="43.60209" lon="4.06657">
        <ele>16.233</ele>
        <time>2014-05-17T07:40:51Z</time>
      </trkpt>
      <trkpt lat="43.60207" lon="4.06647">
        <ele>15.72</ele>
        <time>2014-05-17T07:40:58Z</time>
      </trkpt>
      <trkpt lat="43.60205" lon="4.06641">
        <ele>15.246</ele>
        <time>2014-05-17T07:41:02Z</time>
      </trkpt>
      <trkpt lat="43.60202" lon="4.06629">
        <ele>15.411</ele>
        <time>2014-05-17T07:41:10Z</time>
      </trkpt>
      <trkpt lat="43.60202" lon="4.06628">
        <ele>15.502</ele>
        <time>2014-05-17T07:41:11Z</time>
      </trkpt>
      <trkpt lat="43.60201" lon="4.06624">
        <ele>15.27</ele>
        <time>2014-05-17T07:41:14Z</time>
      </trkpt>
      <trkpt lat="43.60199" lon="4.0661">
        <ele>14.604</ele>
        <time>2014-05-17T07:41:22Z</time>
      </trkpt>
      <trkpt lat="43.60198" lon="4.06598">
        <ele>13.587</ele>
        <time>2014-05-17T07:41:30Z</time>
      </trkpt>
      <trkpt lat="43.60195" lon="4.06588">
        <ele>13.511</ele>
        <time>2014-05-17T07:41:37Z</time>
      </trkpt>
      <trkpt lat="43.60191" lon="4.06582">
        <ele>13.803</ele>
        <time>2014-05-17T07:41:41Z</time>
      </trkpt>
      <trkpt lat="43.60191" lon="4.06572">
        <ele>12.47</ele>
        <time>2014-05-17T07:41:49Z</time>
      </trkpt>
      <trkpt lat="43.60191" lon="4.06571">
        <ele>12.256</ele>
        <time>2014-05-17T07:41:50Z</time>
      </trkpt>
      <trkpt lat="43.60189" lon="4.06561">
        <ele>12.27</ele>
        <time>2014-05-17T07:41:58Z</time>
      </trkpt>
      <trkpt lat="43.60189" lon="4.06557">
        <ele>11.729</ele>
        <time>2014-05-17T07:42:01Z</time>
      </trkpt>
      <trkpt lat="43.60185" lon="4.06548">
        <ele>12.406</ele>
        <time>2014-05-17T07:42:08Z</time>
      </trkpt>
      <trkpt lat="43.60186" lon="4.06539">
        <ele>11.901</ele>
        <time>2014-05-17T07:42:15Z</time>
      </trkpt>
      <trkpt lat="43.6018" lon="4.0652">
        <ele>13.352</ele>
        <time>2014-05-17T07:42:26Z</time>
      </trkpt>
      <trkpt lat="43.60179" lon="4.06514">
        <ele>13.935</ele>
        <time>2014-05-17T07:42:29Z</time>
      </trkpt>
      <trkpt lat="43.60173" lon="4.06503">
        <ele>15.229</ele>
        <time>2014-05-17T07:42:38Z</time>
      </trkpt>
      <trkpt lat="43.60171" lon="4.06489">
        <ele>16.831</ele>
        <time>2014-05-17T07:42:53Z</time>
      </trkpt>
      <trkpt lat="43.60168" lon="4.06485">
        <ele>17.683</ele>
        <time>2014-05-17T07:43:06Z</time>
      </trkpt>
      <trkpt lat="43.60168" lon="4.0648">
        <ele>17.439</ele>
        <time>2014-05-17T07:43:13Z</time>
      </trkpt>
      <trkpt lat="43.60166" lon="4.06475">
        <ele>17.505</ele>
        <time>2014-05-17T07:43:16Z</time>
      </trkpt>
      <trkpt lat="43.60163" lon="4.06463">
        <ele>17.127</ele>
        <time>2014-05-17T07:43:28Z</time>
      </trkpt>
      <trkpt lat="43.60161" lon="4.0644">
        <ele>16.309</ele>
        <time>2014-05-17T07:43:39Z</time>
      </trkpt>
      <trkpt lat="43.60159" lon="4.06426">
        <ele>15.456</ele>
        <time>2014-05-17T07:43:50Z</time>
      </trkpt>
      <trkpt lat="43.60158" lon="4.06414">
        <ele>15.534</ele>
        <time>2014-05-17T07:43:59Z</time>
      </trkpt>
      <trkpt lat="43.6015" lon="4.06396">
        <ele>15.601</ele>
        <time>2014-05-17T07:44:10Z</time>
      </trkpt>
      <trkpt lat="43.60144" lon="4.06376">
        <ele>15.767</ele>
        <time>2014-05-17T07:44:22Z</time>
      </trkpt>
      <trkpt lat="43.60138" lon="4.06353">
        <ele>15.207</ele>
        <time>2014-05-17T07:44:34Z</time>
      </trkpt>
      <trkpt lat="43.60133" lon="4.0634">
        <ele>15.452</ele>
        <time>2014-05-17T07:44:44Z</time>
      </trkpt>
      <trkpt lat="43.60132" lon="4.06335">
        <ele>15.775</ele>
        <time>2014-05-17T07:44:48Z</time>
      </trkpt>
      <trkpt lat="43.60132" lon="4.06331">
        <ele>16.191</ele>
        <time>2014-05-17T07:44:51Z</time>
      </trkpt>
      <trkpt lat="43.60132" lon="4.0632">
        <ele>16.495</ele>
        <time>2014-05-17T07:44:58Z</time>
      </trkpt>
      <trkpt lat="43.60129" lon="4.06313">
        <ele>16.449</ele>
        <time>2014-05-17T07:45:04Z</time>
      </trkpt>
      <trkpt lat="43.60126" lon="4.063">
        <ele>15.297</ele>
        <time>2014-05-17T07:45:18Z</time>
      </trkpt>
      <trkpt lat="43.60121" lon="4.06274">
        <ele>13.403</ele>
        <time>2014-05-17T07:45:32Z</time>
      </trkpt>
      <trkpt lat="43.60119" lon="4.06259">
        <ele>11.846</ele>
        <time>2014-05-17T07:45:39Z</time>
      </trkpt>
      <trkpt lat="43.60115" lon="4.0625">
        <ele>10.573</ele>
        <time>2014-05-17T07:45:46Z</time>
      </trkpt>
      <trkpt lat="43.60112" lon="4.06243">
        <ele>9.959</ele>
        <time>2014-05-17T07:45:52Z</time>
      </trkpt>
      <trkpt lat="43.60109" lon="4.06236">
        <ele>9.516</ele>
        <time>2014-05-17T07:45:56Z</time>
      </trkpt>
      <trkpt lat="43.60104" lon="4.06229">
        <ele>9.803</ele>
        <time>2014-05-17T07:46:01Z</time>
      </trkpt>
      <trkpt lat="43.601" lon="4.06212">
        <ele>10.01</ele>
        <time>2014-05-17T07:46:10Z</time>
      </trkpt>
      <trkpt lat="43.601" lon="4.06211">
        <ele>10.078</ele>
        <time>2014-05-17T07:46:11Z</time>
      </trkpt>
      <trkpt lat="43.601" lon="4.06202">
        <ele>9.953</ele>
        <time>2014-05-17T07:46:16Z</time>
      </trkpt>
      <trkpt lat="43.60095" lon="4.06191">
        <ele>10.051</ele>
        <time>2014-05-17T07:46:24Z</time>
      </trkpt>
      <trkpt lat="43.60093" lon="4.06183">
        <ele>10.1</ele>
        <time>2014-05-17T07:46:31Z</time>
      </trkpt>
      <trkpt lat="43.60092" lon="4.0618">
        <ele>9.977</ele>
        <time>2014-05-17T07:46:33Z</time>
      </trkpt>
      <trkpt lat="43.60083" lon="4.06171">
        <ele>10.072</ele>
        <time>2014-05-17T07:46:42Z</time>
      </trkpt>
      <trkpt lat="43.60077" lon="4.06155">
        <ele>9.982</ele>
        <time>2014-05-17T07:46:53Z</time>
      </trkpt>
      <trkpt lat="43.6007" lon="4.06138">
        <ele>11.452</ele>
        <time>2014-05-17T07:47:04Z</time>
      </trkpt>
      <trkpt lat="43.60069" lon="4.06136">
        <ele>11.623</ele>
        <time>2014-05-17T07:47:05Z</time>
      </trkpt>
      <trkpt lat="43.60068" lon="4.06128">
        <ele>12.751</ele>
        <time>2014-05-17T07:47:12Z</time>
      </trkpt>
      <trkpt lat="43.60065" lon="4.06121">
        <ele>12.035</ele>
        <time>2014-05-17T07:47:16Z</time>
      </trkpt>
      <trkpt lat="43.6006" lon="4.06113">
        <ele>12.665</ele>
        <time>2014-05-17T07:47:21Z</time>
      </trkpt>
      <trkpt lat="43.60058" lon="4.06107">
        <ele>13.33</ele>
        <time>2014-05-17T07:47:27Z</time>
      </trkpt>
      <trkpt lat="43.60054" lon="4.06093">
        <ele>13.474</ele>
        <time>2014-05-17T07:47:38Z</time>
      </trkpt>
      <trkpt lat="43.60046" lon="4.06076">
        <ele>14.143</ele>
        <time>2014-05-17T07:47:50Z</time>
      </trkpt>
      <trkpt lat="43.60042" lon="4.06068">
        <ele>14.373</ele>
        <time>2014-05-17T07:47:57Z</time>
      </trkpt>
      <trkpt lat="43.6004" lon="4.06063">
        <ele>14.639</ele>
        <time>2014-05-17T07:48:01Z</time>
      </trkpt>
      <trkpt lat="43.60032" lon="4.06046">
        <ele>15.271</ele>
        <time>2014-05-17T07:48:13Z</time>
      </trkpt>
      <trkpt lat="43.60025" lon="4.06027">
        <ele>15.924</ele>
        <time>2014-05-17T07:48:26Z</time>
      </trkpt>
      <trkpt lat="43.6002" lon="4.06006">
        <ele>16.32</ele>
        <time>2014-05-17T07:48:41Z</time>
      </trkpt>
      <trkpt lat="43.60011" lon="4.05988">
        <ele>17.024</ele>
        <time>2014-05-17T07:48:54Z</time>
      </trkpt>
      <trkpt lat="43.60007" lon="4.05972">
        <ele>18.028</ele>
        <time>2014-05-17T07:49:06Z</time>
      </trkpt>
      <trkpt lat="43.60002" lon="4.05966">
        <ele>18.673</ele>
        <time>2014-05-17T07:49:16Z</time>
      </trkpt>
      <trkpt lat="43.59998" lon="4.05963">
        <ele>18.816</ele>
        <time>2014-05-17T07:49:26Z</time>
      </trkpt>
      <trkpt lat="43.59998" lon="4.05962">
        <ele>15.358</ele>
        <time>2014-05-17T07:50:04Z</time>
      </trkpt>
      <trkpt lat="43.59996" lon="4.05967">
        <ele>14.307</ele>
        <time>2014-05-17T07:50:28Z</time>
      </trkpt>
      <trkpt lat="43.59995" lon="4.05972">
        <ele>12.287</ele>
        <time>2014-05-17T07:50:52Z</time>
      </trkpt>
      <trkpt lat="43.59995" lon="4.0598">
        <ele>9.659</ele>
        <time>2014-05-17T07:51:12Z</time>
      </trkpt>
      <trkpt lat="43.59992" lon="4.05973">
        <ele>7.729</ele>
        <time>2014-05-17T07:51:27Z</time>
      </trkpt>
      <trkpt lat="43.59998" lon="4.05969">
        <ele>4.035</ele>
        <time>2014-05-17T07:54:26Z</time>
      </trkpt>
      <trkpt lat="43.60002" lon="4.05966">
        <ele>4.465</ele>
        <time>2014-05-17T07:54:44Z</time>
      </trkpt>
      <trkpt lat="43.60004" lon="4.05967">
        <ele>2.566</ele>
        <time>2014-05-17T07:55:11Z</time>
      </trkpt>
      <trkpt lat="43.60007" lon="4.05969">
        <ele>1.931</ele>
        <time>2014-05-17T07:55:46Z</time>
      </trkpt>
      <trkpt lat="43.60012" lon="4.05977">
        <ele>0.328</ele>
        <time>2014-05-17T07:57:30Z</time>
      </trkpt>
      <trkpt lat="43.60018" lon="4.05993">
        <ele>-1.01</ele>
        <time>2014-05-17T07:57:40Z</time>
      </trkpt>
      <trkpt lat="43.60023" lon="4.06005">
        <ele>-1.63</ele>
        <time>2014-05-17T07:57:51Z</time>
      </trkpt>
      <trkpt lat="43.60027" lon="4.06018">
        <ele>-2.254</ele>
        <time>2014-05-17T07:58:02Z</time>
      </trkpt>
      <trkpt lat="43.6003" lon="4.0603">
        <ele>-2.829</ele>
        <time>2014-05-17T07:58:11Z</time>
      </trkpt>
      <trkpt lat="43.6004" lon="4.06048">
        <ele>-4.912</ele>
        <time>2014-05-17T07:58:25Z</time>
      </trkpt>
      <trkpt lat="43.60048" lon="4.06063">
        <ele>-4.879</ele>
        <time>2014-05-17T07:58:38Z</time>
      </trkpt>
      <trkpt lat="43.60053" lon="4.06076">
        <ele>-6.883</ele>
        <time>2014-05-17T07:58:48Z</time>
      </trkpt>
      <trkpt lat="43.60058" lon="4.06092">
        <ele>-7.934</ele>
        <time>2014-05-17T07:58:58Z</time>
      </trkpt>
      <trkpt lat="43.60063" lon="4.06102">
        <ele>-8.53</ele>
        <time>2014-05-17T07:59:08Z</time>
      </trkpt>
      <trkpt lat="43.6007" lon="4.06115">
        <ele>-9.097</ele>
        <time>2014-05-17T07:59:20Z</time>
      </trkpt>
      <trkpt lat="43.60078" lon="4.0613">
        <ele>-9.856</ele>
        <time>2014-05-17T07:59:32Z</time>
      </trkpt>
      <trkpt lat="43.60084" lon="4.06147">
        <ele>-9.778</ele>
        <time>2014-05-17T07:59:47Z</time>
      </trkpt>
      <trkpt lat="43.60092" lon="4.06164">
        <ele>-10.402</ele>
        <time>2014-05-17T07:59:59Z</time>
      </trkpt>
      <trkpt lat="43.601" lon="4.06182">
        <ele>-11.605</ele>
        <time>2014-05-17T08:00:12Z</time>
      </trkpt>
      <trkpt lat="43.60102" lon="4.06185">
        <ele>-11.899</ele>
        <time>2014-05-17T08:00:15Z</time>
      </trkpt>
      <trkpt lat="43.60105" lon="4.06196">
        <ele>-12.87</ele>
        <time>2014-05-17T08:00:24Z</time>
      </trkpt>
      <trkpt lat="43.60109" lon="4.06211">
        <ele>-13.22</ele>
        <time>2014-05-17T08:00:33Z</time>
      </trkpt>
      <trkpt lat="43.60112" lon="4.06223">
        <ele>-13.533</ele>
        <time>2014-05-17T08:00:40Z</time>
      </trkpt>
      <trkpt lat="43.60117" lon="4.06232">
        <ele>-13.924</ele>
        <time>2014-05-17T08:00:49Z</time>
      </trkpt>
      <trkpt lat="43.60125" lon="4.0625">
        <ele>-13.419</ele>
        <time>2014-05-17T08:01:00Z</time>
      </trkpt>
      <trkpt lat="43.6013" lon="4.06264">
        <ele>-14.197</ele>
        <time>2014-05-17T08:01:10Z</time>
      </trkpt>
      <trkpt lat="43.6013" lon="4.06268">
        <ele>-14.204</ele>
        <time>2014-05-17T08:01:12Z</time>
      </trkpt>
      <trkpt lat="43.60133" lon="4.06283">
        <ele>-13.08</ele>
        <time>2014-05-17T08:01:21Z</time>
      </trkpt>
      <trkpt lat="43.60136" lon="4.063">
        <ele>-11.508</ele>
        <time>2014-05-17T08:01:32Z</time>
      </trkpt>
      <trkpt lat="43.60138" lon="4.06306">
        <ele>-10.722</ele>
        <time>2014-05-17T08:01:37Z</time>
      </trkpt>
      <trkpt lat="43.60142" lon="4.06326">
        <ele>-8.272</ele>
        <time>2014-05-17T08:01:49Z</time>
      </trkpt>
      <trkpt lat="43.60147" lon="4.0634">
        <ele>-7.319</ele>
        <time>2014-05-17T08:02:00Z</time>
      </trkpt>
      <trkpt lat="43.60148" lon="4.0636">
        <ele>-6.487</ele>
        <time>2014-05-17T08:02:12Z</time>
      </trkpt>
      <trkpt lat="43.60153" lon="4.06378">
        <ele>-6.478</ele>
        <time>2014-05-17T08:02:23Z</time>
      </trkpt>
      <trkpt lat="43.60155" lon="4.06382">
        <ele>-6.507</ele>
        <time>2014-05-17T08:02:27Z</time>
      </trkpt>
      <trkpt lat="43.60158" lon="4.06394">
        <ele>-6.505</ele>
        <time>2014-05-17T08:02:35Z</time>
      </trkpt>
      <trkpt lat="43.6016" lon="4.06396">
        <ele>-6.999</ele>
        <time>2014-05-17T08:02:38Z</time>
      </trkpt>
      <trkpt lat="43.60161" lon="4.06409">
        <ele>-6.195</ele>
        <time>2014-05-17T08:02:46Z</time>
      </trkpt>
      <trkpt lat="43.60164" lon="4.06419">
        <ele>-6.283</ele>
        <time>2014-05-17T08:02:52Z</time>
      </trkpt>
      <trkpt lat="43.60165" lon="4.06422">
        <ele>-6.168</ele>
        <time>2014-05-17T08:02:54Z</time>
      </trkpt>
      <trkpt lat="43.60166" lon="4.06433">
        <ele>-6.639</ele>
        <time>2014-05-17T08:03:00Z</time>
      </trkpt>
      <trkpt lat="43.60167" lon="4.06436">
        <ele>-6.248</ele>
        <time>2014-05-17T08:03:02Z</time>
      </trkpt>
      <trkpt lat="43.60167" lon="4.06443">
        <ele>-5.449</ele>
        <time>2014-05-17T08:03:07Z</time>
      </trkpt>
      <trkpt lat="43.60174" lon="4.0646">
        <ele>-5.814</ele>
        <time>2014-05-17T08:03:19Z</time>
      </trkpt>
      <trkpt lat="43.60176" lon="4.06472">
        <ele>-3.705</ele>
        <time>2014-05-17T08:03:27Z</time>
      </trkpt>
      <trkpt lat="43.60177" lon="4.06489">
        <ele>-3.328</ele>
        <time>2014-05-17T08:03:39Z</time>
      </trkpt>
      <trkpt lat="43.60183" lon="4.06506">
        <ele>-2.451</ele>
        <time>2014-05-17T08:03:50Z</time>
      </trkpt>
      <trkpt lat="43.60187" lon="4.06526">
        <ele>-1.288</ele>
        <time>2014-05-17T08:04:01Z</time>
      </trkpt>
      <trkpt lat="43.6019" lon="4.06539">
        <ele>-0.828</ele>
        <time>2014-05-17T08:04:09Z</time>
      </trkpt>
      <trkpt lat="43.60191" lon="4.06542">
        <ele>-0.664</ele>
        <time>2014-05-17T08:04:11Z</time>
      </trkpt>
      <trkpt lat="43.60194" lon="4.06551">
        <ele>-0.69</ele>
        <time>2014-05-17T08:04:17Z</time>
      </trkpt>
      <trkpt lat="43.60195" lon="4.06565">
        <ele>-1.223</ele>
        <time>2014-05-17T08:04:26Z</time>
      </trkpt>
      <trkpt lat="43.60199" lon="4.06582">
        <ele>-0.167</ele>
        <time>2014-05-17T08:04:38Z</time>
      </trkpt>
      <trkpt lat="43.60202" lon="4.06595">
        <ele>0.304</ele>
        <time>2014-05-17T08:04:56Z</time>
      </trkpt>
      <trkpt lat="43.60208" lon="4.06604">
        <ele>-0.854</ele>
        <time>2014-05-17T08:05:08Z</time>
      </trkpt>
      <trkpt lat="43.60209" lon="4.06621">
        <ele>-2.687</ele>
        <time>2014-05-17T08:05:19Z</time>
      </trkpt>
      <trkpt lat="43.60214" lon="4.06638">
        <ele>-3.613</ele>
        <time>2014-05-17T08:05:32Z</time>
      </trkpt>
      <trkpt lat="43.60218" lon="4.06655">
        <ele>-4.246</ele>
        <time>2014-05-17T08:05:44Z</time>
      </trkpt>
      <trkpt lat="43.60223" lon="4.06675">
        <ele>-3.746</ele>
        <time>2014-05-17T08:05:56Z</time>
      </trkpt>
      <trkpt lat="43.60227" lon="4.06695">
        <ele>-2.712</ele>
        <time>2014-05-17T08:06:08Z</time>
      </trkpt>
      <trkpt lat="43.60233" lon="4.06711">
        <ele>-2.646</ele>
        <time>2014-05-17T08:06:20Z</time>
      </trkpt>
      <trkpt lat="43.60236" lon="4.06731">
        <ele>-2.812</ele>
        <time>2014-05-17T08:06:33Z</time>
      </trkpt>
      <trkpt lat="43.60239" lon="4.06751">
        <ele>-2.389</ele>
        <time>2014-05-17T08:06:47Z</time>
      </trkpt>
      <trkpt lat="43.60243" lon="4.06769">
        <ele>-4.002</ele>
        <time>2014-05-17T08:06:59Z</time>
      </trkpt>
      <trkpt lat="43.60247" lon="4.06781">
        <ele>-4.185</ele>
        <time>2014-05-17T08:07:07Z</time>
      </trkpt>
      <trkpt lat="43.60252" lon="4.06791">
        <ele>-6.464</ele>
        <time>2014-05-17T08:07:16Z</time>
      </trkpt>
      <trkpt lat="43.60254" lon="4.06805">
        <ele>-6.987</ele>
        <time>2014-05-17T08:07:25Z</time>
      </trkpt>
      <trkpt lat="43.60259" lon="4.06813">
        <ele>-6.834</ele>
        <time>2014-05-17T08:07:31Z</time>
      </trkpt>
      <trkpt lat="43.6026" lon="4.06831">
        <ele>-7.157</ele>
        <time>2014-05-17T08:07:40Z</time>
      </trkpt>
      <trkpt lat="43.60261" lon="4.06837">
        <ele>-6.802</ele>
        <time>2014-05-17T08:07:45Z</time>
      </trkpt>
      <trkpt lat="43.60262" lon="4.06842">
        <ele>-6.413</ele>
        <time>2014-05-17T08:07:48Z</time>
      </trkpt>
      <trkpt lat="43.60263" lon="4.06862">
        <ele>-8.045</ele>
        <time>2014-05-17T08:07:58Z</time>
      </trkpt>
      <trkpt lat="43.60265" lon="4.06867">
        <ele>-8.445</ele>
        <time>2014-05-17T08:08:01Z</time>
      </trkpt>
      <trkpt lat="43.60265" lon="4.06869">
        <ele>-9.484</ele>
        <time>2014-05-17T08:08:10Z</time>
      </trkpt>
      <trkpt lat="43.60271" lon="4.0688">
        <ele>-10.088</ele>
        <time>2014-05-17T08:08:19Z</time>
      </trkpt>
      <trkpt lat="43.60274" lon="4.06888">
        <ele>-11.337</ele>
        <time>2014-05-17T08:08:25Z</time>
      </trkpt>
      <trkpt lat="43.60277" lon="4.06898">
        <ele>-10.695</ele>
        <time>2014-05-17T08:08:31Z</time>
      </trkpt>
      <trkpt lat="43.60279" lon="4.06912">
        <ele>-10.376</ele>
        <time>2014-05-17T08:08:40Z</time>
      </trkpt>
      <trkpt lat="43.6028" lon="4.06914">
        <ele>-10.333</ele>
        <time>2014-05-17T08:08:41Z</time>
      </trkpt>
      <trkpt lat="43.60281" lon="4.0692">
        <ele>-9.885</ele>
        <time>2014-05-17T08:08:45Z</time>
      </trkpt>
      <trkpt lat="43.60282" lon="4.06933">
        <ele>-9.338</ele>
        <time>2014-05-17T08:08:53Z</time>
      </trkpt>
      <trkpt lat="43.60285" lon="4.06941">
        <ele>-8.499</ele>
        <time>2014-05-17T08:09:00Z</time>
      </trkpt>
      <trkpt lat="43.60287" lon="4.06955">
        <ele>-7.527</ele>
        <time>2014-05-17T08:09:08Z</time>
      </trkpt>
      <trkpt lat="43.6029" lon="4.06966">
        <ele>-6.903</ele>
        <time>2014-05-17T08:09:16Z</time>
      </trkpt>
      <trkpt lat="43.60291" lon="4.0697">
        <ele>-7.42</ele>
        <time>2014-05-17T08:09:19Z</time>
      </trkpt>
      <trkpt lat="43.60292" lon="4.06974">
        <ele>-7.118</ele>
        <time>2014-05-17T08:09:22Z</time>
      </trkpt>
      <trkpt lat="43.60297" lon="4.06987">
        <ele>-6.292</ele>
        <time>2014-05-17T08:09:31Z</time>
      </trkpt>
      <trkpt lat="43.60296" lon="4.07007">
        <ele>-8.102</ele>
        <time>2014-05-17T08:09:43Z</time>
      </trkpt>
      <trkpt lat="43.60296" lon="4.07009">
        <ele>-8.085</ele>
        <time>2014-05-17T08:09:44Z</time>
      </trkpt>
      <trkpt lat="43.60297" lon="4.07024">
        <ele>-6.835</ele>
        <time>2014-05-17T08:09:53Z</time>
      </trkpt>
      <trkpt lat="43.60298" lon="4.07038">
        <ele>-5.489</ele>
        <time>2014-05-17T08:10:01Z</time>
      </trkpt>
      <trkpt lat="43.603" lon="4.07047">
        <ele>-6.106</ele>
        <time>2014-05-17T08:10:08Z</time>
      </trkpt>
      <trkpt lat="43.60298" lon="4.0705">
        <ele>-6.19</ele>
        <time>2014-05-17T08:10:09Z</time>
      </trkpt>
      <trkpt lat="43.60297" lon="4.0707">
        <ele>-4.217</ele>
        <time>2014-05-17T08:10:20Z</time>
      </trkpt>
      <trkpt lat="43.60297" lon="4.07085">
        <ele>-2.543</ele>
        <time>2014-05-17T08:10:29Z</time>
      </trkpt>
      <trkpt lat="43.60297" lon="4.07087">
        <ele>-2.221</ele>
        <time>2014-05-17T08:10:31Z</time>
      </trkpt>
      <trkpt lat="43.60298" lon="4.07095">
        <ele>-1.706</ele>
        <time>2014-05-17T08:10:36Z</time>
      </trkpt>
      <trkpt lat="43.60301" lon="4.07101">
        <ele>-1.215</ele>
        <time>2014-05-17T08:10:41Z</time>
      </trkpt>
      <trkpt lat="43.60301" lon="4.07117">
        <ele>-0.646</ele>
        <time>2014-05-17T08:10:51Z</time>
      </trkpt>
      <trkpt lat="43.60303" lon="4.07125">
        <ele>-0.46</ele>
        <time>2014-05-17T08:10:56Z</time>
      </trkpt>
      <trkpt lat="43.60301" lon="4.07129">
        <ele>-0.191</ele>
        <time>2014-05-17T08:10:59Z</time>
      </trkpt>
      <trkpt lat="43.60299" lon="4.07137">
        <ele>0.626</ele>
        <time>2014-05-17T08:11:04Z</time>
      </trkpt>
      <trkpt lat="43.60299" lon="4.0715">
        <ele>0.519</ele>
        <time>2014-05-17T08:11:11Z</time>
      </trkpt>
      <trkpt lat="43.603" lon="4.07166">
        <ele>-0.105</ele>
        <time>2014-05-17T08:11:20Z</time>
      </trkpt>
      <trkpt lat="43.60301" lon="4.07177">
        <ele>-0.03</ele>
        <time>2014-05-17T08:11:28Z</time>
      </trkpt>
      <trkpt lat="43.60303" lon="4.07186">
        <ele>-0.164</ele>
        <time>2014-05-17T08:11:34Z</time>
      </trkpt>
      <trkpt lat="43.60303" lon="4.07196">
        <ele>0.165</ele>
        <time>2014-05-17T08:11:42Z</time>
      </trkpt>
      <trkpt lat="43.60296" lon="4.07189">
        <ele>5.604</ele>
        <time>2014-05-17T08:12:17Z</time>
      </trkpt>
      <trkpt lat="43.60297" lon="4.07186">
        <ele>7.951</ele>
        <time>2014-05-17T08:12:36Z</time>
      </trkpt>
      <trkpt lat="43.60294" lon="4.07181">
        <ele>8.293</ele>
        <time>2014-05-17T08:12:48Z</time>
      </trkpt>
      <trkpt lat="43.60288" lon="4.07175">
        <ele>7.032</ele>
        <time>2014-05-17T08:12:59Z</time>
      </trkpt>
      <trkpt lat="43.60288" lon="4.07171">
        <ele>7.191</ele>
        <time>2014-05-17T08:13:18Z</time>
      </trkpt>
      <trkpt lat="43.6029" lon="4.07181">
        <ele>6.362</ele>
        <time>2014-05-17T08:13:32Z</time>
      </trkpt>
      <trkpt lat="43.60291" lon="4.07178">
        <ele>5.419</ele>
        <time>2014-05-17T08:13:43Z</time>
      </trkpt>
      <trkpt lat="43.60293" lon="4.07177">
        <ele>5.596</ele>
        <time>2014-05-17T08:14:04Z</time>
      </trkpt>
      <trkpt lat="43.60296" lon="4.07179">
        <ele>-5.908</ele>
        <time>2014-05-17T08:32:17Z</time>
      </trkpt>
      <trkpt lat="43.60298" lon="4.07183">
        <ele>-5.795</ele>
        <time>2014-05-17T08:32:26Z</time>
      </trkpt>
      <trkpt lat="43.60302" lon="4.07195">
        <ele>-6.162</ele>
        <time>2014-05-17T08:32:37Z</time>
      </trkpt>
      <trkpt lat="43.60303" lon="4.07205">
        <ele>-5.9</ele>
        <time>2014-05-17T08:32:51Z</time>
      </trkpt>
      <trkpt lat="43.60301" lon="4.07207">
        <ele>-5.62</ele>
        <time>2014-05-17T08:32:53Z</time>
      </trkpt>
      <trkpt lat="43.603" lon="4.0722">
        <ele>-5.408</ele>
        <time>2014-05-17T08:33:07Z</time>
      </trkpt>
      <trkpt lat="43.60303" lon="4.07223">
        <ele>-5.378</ele>
        <time>2014-05-17T08:33:11Z</time>
      </trkpt>
      <trkpt lat="43.60311" lon="4.07233">
        <ele>-5.879</ele>
        <time>2014-05-17T08:33:24Z</time>
      </trkpt>
      <trkpt lat="43.60321" lon="4.07245">
        <ele>-5.6</ele>
        <time>2014-05-17T08:33:38Z</time>
      </trkpt>
      <trkpt lat="43.60331" lon="4.07253">
        <ele>-7.044</ele>
        <time>2014-05-17T08:33:48Z</time>
      </trkpt>
      <trkpt lat="43.60338" lon="4.07261">
        <ele>-7.763</ele>
        <time>2014-05-17T08:33:56Z</time>
      </trkpt>
      <trkpt lat="43.60346" lon="4.07268">
        <ele>-8.253</ele>
        <time>2014-05-17T08:34:05Z</time>
      </trkpt>
      <trkpt lat="43.60353" lon="4.07279">
        <ele>-9.213</ele>
        <time>2014-05-17T08:34:17Z</time>
      </trkpt>
      <trkpt lat="43.60361" lon="4.07288">
        <ele>-10.391</ele>
        <time>2014-05-17T08:34:29Z</time>
      </trkpt>
      <trkpt lat="43.60369" lon="4.07298">
        <ele>-9.921</ele>
        <time>2014-05-17T08:34:39Z</time>
      </trkpt>
      <trkpt lat="43.60378" lon="4.07309">
        <ele>-10.3</ele>
        <time>2014-05-17T08:34:51Z</time>
      </trkpt>
      <trkpt lat="43.60386" lon="4.07317">
        <ele>-10.343</ele>
        <time>2014-05-17T08:35:02Z</time>
      </trkpt>
      <trkpt lat="43.60394" lon="4.07323">
        <ele>-11.35</ele>
        <time>2014-05-17T08:35:11Z</time>
      </trkpt>
      <trkpt lat="43.60396" lon="4.07328">
        <ele>-11.824</ele>
        <time>2014-05-17T08:35:15Z</time>
      </trkpt>
      <trkpt lat="43.60404" lon="4.07339">
        <ele>-13.696</ele>
        <time>2014-05-17T08:35:27Z</time>
      </trkpt>
      <trkpt lat="43.60414" lon="4.0735">
        <ele>-15.42</ele>
        <time>2014-05-17T08:35:39Z</time>
      </trkpt>
      <trkpt lat="43.60424" lon="4.07359">
        <ele>-16.742</ele>
        <time>2014-05-17T08:35:51Z</time>
      </trkpt>
      <trkpt lat="43.60433" lon="4.07371">
        <ele>-18.059</ele>
        <time>2014-05-17T08:36:03Z</time>
      </trkpt>
      <trkpt lat="43.60442" lon="4.0738">
        <ele>-19.156</ele>
        <time>2014-05-17T08:36:13Z</time>
      </trkpt>
      <trkpt lat="43.60452" lon="4.07388">
        <ele>-20.437</ele>
        <time>2014-05-17T08:36:25Z</time>
      </trkpt>
      <trkpt lat="43.60459" lon="4.07402">
        <ele>-21.662</ele>
        <time>2014-05-17T08:36:39Z</time>
      </trkpt>
      <trkpt lat="43.60464" lon="4.07411">
        <ele>-22.799</ele>
        <time>2014-05-17T08:36:51Z</time>
      </trkpt>
      <trkpt lat="43.60476" lon="4.07419">
        <ele>-23.889</ele>
        <time>2014-05-17T08:37:03Z</time>
      </trkpt>
      <trkpt lat="43.60483" lon="4.07428">
        <ele>-24.848</ele>
        <time>2014-05-17T08:37:09Z</time>
      </trkpt>
      <trkpt lat="43.60485" lon="4.07429">
        <ele>-25.27</ele>
        <time>2014-05-17T08:37:12Z</time>
      </trkpt>
      <trkpt lat="43.6049" lon="4.07434">
        <ele>-25.933</ele>
        <time>2014-05-17T08:37:17Z</time>
      </trkpt>
      <trkpt lat="43.60492" lon="4.07438">
        <ele>-26.311</ele>
        <time>2014-05-17T08:37:20Z</time>
      </trkpt>
      <trkpt lat="43.60496" lon="4.07444">
        <ele>-27.175</ele>
        <time>2014-05-17T08:37:28Z</time>
      </trkpt>
      <trkpt lat="43.60505" lon="4.07451">
        <ele>-27.946</ele>
        <time>2014-05-17T08:37:38Z</time>
      </trkpt>
      <trkpt lat="43.6051" lon="4.07461">
        <ele>-28.103</ele>
        <time>2014-05-17T08:37:45Z</time>
      </trkpt>
      <trkpt lat="43.6052" lon="4.0747">
        <ele>-28.757</ele>
        <time>2014-05-17T08:37:56Z</time>
      </trkpt>
      <trkpt lat="43.60524" lon="4.07476">
        <ele>-29.355</ele>
        <time>2014-05-17T08:38:03Z</time>
      </trkpt>
      <trkpt lat="43.60533" lon="4.0749">
        <ele>-30.221</ele>
        <time>2014-05-17T08:38:15Z</time>
      </trkpt>
      <trkpt lat="43.60539" lon="4.07493">
        <ele>-30.353</ele>
        <time>2014-05-17T08:38:21Z</time>
      </trkpt>
      <trkpt lat="43.6055" lon="4.07504">
        <ele>-30.507</ele>
        <time>2014-05-17T08:38:33Z</time>
      </trkpt>
      <trkpt lat="43.60559" lon="4.07512">
        <ele>-29.867</ele>
        <time>2014-05-17T08:38:45Z</time>
      </trkpt>
      <trkpt lat="43.60571" lon="4.07528">
        <ele>-29.62</ele>
        <time>2014-05-17T08:38:58Z</time>
      </trkpt>
      <trkpt lat="43.60577" lon="4.07541">
        <ele>-29.041</ele>
        <time>2014-05-17T08:39:08Z</time>
      </trkpt>
      <trkpt lat="43.60587" lon="4.07548">
        <ele>-28.648</ele>
        <time>2014-05-17T08:39:18Z</time>
      </trkpt>
      <trkpt lat="43.60593" lon="4.07556">
        <ele>-27.323</ele>
        <time>2014-05-17T08:39:30Z</time>
      </trkpt>
      <trkpt lat="43.60602" lon="4.07569">
        <ele>-26.457</ele>
        <time>2014-05-17T08:39:43Z</time>
      </trkpt>
      <trkpt lat="43.60612" lon="4.07579">
        <ele>-25.941</ele>
        <time>2014-05-17T08:39:54Z</time>
      </trkpt>
      <trkpt lat="43.60615" lon="4.07583">
        <ele>-25.633</ele>
        <time>2014-05-17T08:39:58Z</time>
      </trkpt>
      <trkpt lat="43.60621" lon="4.0759">
        <ele>-24.5</ele>
        <time>2014-05-17T08:40:10Z</time>
      </trkpt>
      <trkpt lat="43.6062" lon="4.07589">
        <ele>-25.442</ele>
        <time>2014-05-17T08:41:00Z</time>
      </trkpt>
      <trkpt lat="43.60604" lon="4.07572">
        <ele>-21.25</ele>
        <time>2014-05-17T08:41:11Z</time>
      </trkpt>
      <trkpt lat="43.60597" lon="4.07562">
        <ele>-20.809</ele>
        <time>2014-05-17T08:41:18Z</time>
      </trkpt>
      <trkpt lat="43.60593" lon="4.07559">
        <ele>-20.374</ele>
        <time>2014-05-17T08:41:20Z</time>
      </trkpt>
      <trkpt lat="43.60592" lon="4.07555">
        <ele>-20.158</ele>
        <time>2014-05-17T08:41:22Z</time>
      </trkpt>
      <trkpt lat="43.60584" lon="4.07545">
        <ele>-18.148</ele>
        <time>2014-05-17T08:41:29Z</time>
      </trkpt>
      <trkpt lat="43.60583" lon="4.07543">
        <ele>-17.893</ele>
        <time>2014-05-17T08:41:30Z</time>
      </trkpt>
      <trkpt lat="43.60576" lon="4.07535">
        <ele>-15.195</ele>
        <time>2014-05-17T08:41:36Z</time>
      </trkpt>
      <trkpt lat="43.60568" lon="4.07529">
        <ele>-13.834</ele>
        <time>2014-05-17T08:41:42Z</time>
      </trkpt>
      <trkpt lat="43.60556" lon="4.07515">
        <ele>-12.316</ele>
        <time>2014-05-17T08:41:50Z</time>
      </trkpt>
      <trkpt lat="43.60547" lon="4.07501">
        <ele>-10.455</ele>
        <time>2014-05-17T08:41:58Z</time>
      </trkpt>
      <trkpt lat="43.60541" lon="4.07493">
        <ele>-8.805</ele>
        <time>2014-05-17T08:42:04Z</time>
      </trkpt>
      <trkpt lat="43.60537" lon="4.07491">
        <ele>-8.181</ele>
        <time>2014-05-17T08:42:06Z</time>
      </trkpt>
      <trkpt lat="43.60531" lon="4.07483">
        <ele>-6.544</ele>
        <time>2014-05-17T08:42:12Z</time>
      </trkpt>
      <trkpt lat="43.60527" lon="4.07479">
        <ele>-5.958</ele>
        <time>2014-05-17T08:42:15Z</time>
      </trkpt>
      <trkpt lat="43.60515" lon="4.07465">
        <ele>-5.065</ele>
        <time>2014-05-17T08:42:25Z</time>
      </trkpt>
      <trkpt lat="43.60507" lon="4.07456">
        <ele>-3.019</ele>
        <time>2014-05-17T08:42:33Z</time>
      </trkpt>
      <trkpt lat="43.60496" lon="4.07446">
        <ele>-4.023</ele>
        <time>2014-05-17T08:42:41Z</time>
      </trkpt>
      <trkpt lat="43.6049" lon="4.07438">
        <ele>-1.521</ele>
        <time>2014-05-17T08:42:48Z</time>
      </trkpt>
      <trkpt lat="43.60482" lon="4.07427">
        <ele>-0.234</ele>
        <time>2014-05-17T08:42:55Z</time>
      </trkpt>
      <trkpt lat="43.6047" lon="4.07415">
        <ele>2.351</ele>
        <time>2014-05-17T08:43:04Z</time>
      </trkpt>
      <trkpt lat="43.60465" lon="4.0741">
        <ele>4.104</ele>
        <time>2014-05-17T08:43:11Z</time>
      </trkpt>
      <trkpt lat="43.60455" lon="4.07395">
        <ele>5.08</ele>
        <time>2014-05-17T08:43:20Z</time>
      </trkpt>
      <trkpt lat="43.60445" lon="4.0738">
        <ele>7.302</ele>
        <time>2014-05-17T08:43:29Z</time>
      </trkpt>
      <trkpt lat="43.6043" lon="4.07365">
        <ele>10.921</ele>
        <time>2014-05-17T08:43:41Z</time>
      </trkpt>
      <trkpt lat="43.60422" lon="4.07357">
        <ele>12.558</ele>
        <time>2014-05-17T08:43:47Z</time>
      </trkpt>
      <trkpt lat="43.60414" lon="4.07345">
        <ele>10.299</ele>
        <time>2014-05-17T08:43:55Z</time>
      </trkpt>
      <trkpt lat="43.60408" lon="4.0734">
        <ele>10.269</ele>
        <time>2014-05-17T08:44:00Z</time>
      </trkpt>
      <trkpt lat="43.604" lon="4.0733">
        <ele>8.031</ele>
        <time>2014-05-17T08:44:07Z</time>
      </trkpt>
      <trkpt lat="43.60392" lon="4.07319">
        <ele>6.982</ele>
        <time>2014-05-17T08:44:15Z</time>
      </trkpt>
      <trkpt lat="43.60383" lon="4.07309">
        <ele>7.492</ele>
        <time>2014-05-17T08:44:23Z</time>
      </trkpt>
      <trkpt lat="43.60373" lon="4.07298">
        <ele>7.548</ele>
        <time>2014-05-17T08:44:30Z</time>
      </trkpt>
      <trkpt lat="43.60364" lon="4.0729">
        <ele>6.072</ele>
        <time>2014-05-17T08:44:40Z</time>
      </trkpt>
      <trkpt lat="43.6036" lon="4.07287">
        <ele>6.563</ele>
        <time>2014-05-17T08:44:43Z</time>
      </trkpt>
      <trkpt lat="43.60346" lon="4.07269">
        <ele>8.177</ele>
        <time>2014-05-17T08:44:56Z</time>
      </trkpt>
      <trkpt lat="43.60334" lon="4.07255">
        <ele>9.248</ele>
        <time>2014-05-17T08:45:06Z</time>
      </trkpt>
      <trkpt lat="43.60325" lon="4.07245">
        <ele>8.471</ele>
        <time>2014-05-17T08:45:14Z</time>
      </trkpt>
      <trkpt lat="43.60316" lon="4.07237">
        <ele>4.115</ele>
        <time>2014-05-17T08:45:23Z</time>
      </trkpt>
      <trkpt lat="43.60305" lon="4.07223">
        <ele>5.901</ele>
        <time>2014-05-17T08:45:33Z</time>
      </trkpt>
      <trkpt lat="43.60297" lon="4.0721">
        <ele>7.036</ele>
        <time>2014-05-17T08:45:41Z</time>
      </trkpt>
      <trkpt lat="43.603" lon="4.07202">
        <ele>7.597</ele>
        <time>2014-05-17T08:45:48Z</time>
      </trkpt>
      <trkpt lat="43.60301" lon="4.07201">
        <ele>7.598</ele>
        <time>2014-05-17T08:45:49Z</time>
      </trkpt>
      <trkpt lat="43.60303" lon="4.07195">
        <ele>7.023</ele>
        <time>2014-05-17T08:45:57Z</time>
      </trkpt>
      <trkpt lat="43.60304" lon="4.07184">
        <ele>9.949</ele>
        <time>2014-05-17T08:46:44Z</time>
      </trkpt>
      <trkpt lat="43.60302" lon="4.07171">
        <ele>7.35</ele>
        <time>2014-05-17T08:46:59Z</time>
      </trkpt>
      <trkpt lat="43.60306" lon="4.07178">
        <ele>6.62</ele>
        <time>2014-05-17T08:47:28Z</time>
      </trkpt>
      <trkpt lat="43.60306" lon="4.07192">
        <ele>3.256</ele>
        <time>2014-05-17T08:47:45Z</time>
      </trkpt>
      <trkpt lat="43.60301" lon="4.07205">
        <ele>-5.409</ele>
        <time>2014-05-17T08:50:03Z</time>
      </trkpt>
      <trkpt lat="43.60296" lon="4.0721">
        <ele>-5.351</ele>
        <time>2014-05-17T08:50:17Z</time>
      </trkpt>
      <trkpt lat="43.60302" lon="4.07198">
        <ele>-4.552</ele>
        <time>2014-05-17T08:50:36Z</time>
      </trkpt>
      <trkpt lat="43.60303" lon="4.07197">
        <ele>-4.625</ele>
        <time>2014-05-17T08:50:47Z</time>
      </trkpt>
      <trkpt lat="43.60307" lon="4.07198">
        <ele>-4.559</ele>
        <time>2014-05-17T08:51:04Z</time>
      </trkpt>
      <trkpt lat="43.60304" lon="4.07201">
        <ele>-5.242</ele>
        <time>2014-05-17T08:51:54Z</time>
      </trkpt>
      <trkpt lat="43.60298" lon="4.07212">
        <ele>-4.311</ele>
        <time>2014-05-17T08:52:08Z</time>
      </trkpt>
      <trkpt lat="43.60307" lon="4.07203">
        <ele>-4.89</ele>
        <time>2014-05-17T08:55:14Z</time>
      </trkpt>
      <trkpt lat="43.60308" lon="4.07204">
        <ele>-5.923</ele>
        <time>2014-05-17T08:56:41Z</time>
      </trkpt>
      <trkpt lat="43.60305" lon="4.07208">
        <ele>-5.592</ele>
        <time>2014-05-17T08:56:53Z</time>
      </trkpt>
      <trkpt lat="43.60302" lon="4.07217">
        <ele>-6.513</ele>
        <time>2014-05-17T08:57:30Z</time>
      </trkpt>
      <trkpt lat="43.60303" lon="4.07212">
        <ele>-8.349</ele>
        <time>2014-05-17T08:58:00Z</time>
      </trkpt>
      <trkpt lat="43.60303" lon="4.07208">
        <ele>-9.459</ele>
        <time>2014-05-17T08:58:15Z</time>
      </trkpt>
      <trkpt lat="43.60304" lon="4.07206">
        <ele>-9.702</ele>
        <time>2014-05-17T08:58:28Z</time>
      </trkpt>
      <trkpt lat="43.60307" lon="4.072">
        <ele>-9.128</ele>
        <time>2014-05-17T09:01:49Z</time>
      </trkpt>
      <trkpt lat="43.60309" lon="4.07198">
        <ele>-9.096</ele>
        <time>2014-05-17T09:02:02Z</time>
      </trkpt>
      <trkpt lat="43.60309" lon="4.07201">
        <ele>-4.621</ele>
        <time>2014-05-17T09:03:13Z</time>
      </trkpt>
      <trkpt lat="43.60309" lon="4.07197">
        <ele>-4.95</ele>
        <time>2014-05-17T09:03:37Z</time>
      </trkpt>
      <trkpt lat="43.6031" lon="4.07205">
        <ele>-5.627</ele>
        <time>2014-05-17T09:06:44Z</time>
      </trkpt>
      <trkpt lat="43.60318" lon="4.07223">
        <ele>-6.069</ele>
        <time>2014-05-17T09:06:55Z</time>
      </trkpt>
      <trkpt lat="43.60323" lon="4.07232">
        <ele>-5.415</ele>
        <time>2014-05-17T09:07:02Z</time>
      </trkpt>
      <trkpt lat="43.60324" lon="4.07233">
        <ele>-5.406</ele>
        <time>2014-05-17T09:07:03Z</time>
      </trkpt>
      <trkpt lat="43.60329" lon="4.07242">
        <ele>-4.644</ele>
        <time>2014-05-17T09:07:08Z</time>
      </trkpt>
      <trkpt lat="43.60336" lon="4.07261">
        <ele>-4.43</ele>
        <time>2014-05-17T09:07:18Z</time>
      </trkpt>
      <trkpt lat="43.60343" lon="4.07268">
        <ele>-5.073</ele>
        <time>2014-05-17T09:07:25Z</time>
      </trkpt>
      <trkpt lat="43.60352" lon="4.0728">
        <ele>-5.104</ele>
        <time>2014-05-17T09:07:34Z</time>
      </trkpt>
      <trkpt lat="43.60361" lon="4.07289">
        <ele>-3.923</ele>
        <time>2014-05-17T09:07:42Z</time>
      </trkpt>
      <trkpt lat="43.60369" lon="4.07298">
        <ele>-2.704</ele>
        <time>2014-05-17T09:07:49Z</time>
      </trkpt>
      <trkpt lat="43.6038" lon="4.07307">
        <ele>-1.327</ele>
        <time>2014-05-17T09:07:57Z</time>
      </trkpt>
      <trkpt lat="43.60385" lon="4.07318">
        <ele>-0.16</ele>
        <time>2014-05-17T09:08:04Z</time>
      </trkpt>
      <trkpt lat="43.60387" lon="4.07322">
        <ele>0.412</ele>
        <time>2014-05-17T09:08:07Z</time>
      </trkpt>
      <trkpt lat="43.6039" lon="4.07329">
        <ele>0.256</ele>
        <time>2014-05-17T09:08:11Z</time>
      </trkpt>
      <trkpt lat="43.60396" lon="4.07339">
        <ele>-0.652</ele>
        <time>2014-05-17T09:08:19Z</time>
      </trkpt>
      <trkpt lat="43.604" lon="4.07347">
        <ele>0.199</ele>
        <time>2014-05-17T09:08:24Z</time>
      </trkpt>
      <trkpt lat="43.60406" lon="4.07353">
        <ele>1.656</ele>
        <time>2014-05-17T09:08:31Z</time>
      </trkpt>
      <trkpt lat="43.60418" lon="4.07366">
        <ele>1.542</ele>
        <time>2014-05-17T09:08:40Z</time>
      </trkpt>
      <trkpt lat="43.60424" lon="4.0737">
        <ele>0.349</ele>
        <time>2014-05-17T09:08:45Z</time>
      </trkpt>
      <trkpt lat="43.60439" lon="4.07374">
        <ele>-2.816</ele>
        <time>2014-05-17T09:08:56Z</time>
      </trkpt>
      <trkpt lat="43.60449" lon="4.07382">
        <ele>-3.07</ele>
        <time>2014-05-17T09:09:05Z</time>
      </trkpt>
      <trkpt lat="43.60451" lon="4.07387">
        <ele>-3.056</ele>
        <time>2014-05-17T09:09:08Z</time>
      </trkpt>
      <trkpt lat="43.60457" lon="4.07398">
        <ele>-2.411</ele>
        <time>2014-05-17T09:09:16Z</time>
      </trkpt>
      <trkpt lat="43.60462" lon="4.07404">
        <ele>-2.292</ele>
        <time>2014-05-17T09:09:22Z</time>
      </trkpt>
      <trkpt lat="43.60463" lon="4.07405">
        <ele>-2.741</ele>
        <time>2014-05-17T09:09:23Z</time>
      </trkpt>
      <trkpt lat="43.60469" lon="4.07412">
        <ele>-4.075</ele>
        <time>2014-05-17T09:09:29Z</time>
      </trkpt>
      <trkpt lat="43.60477" lon="4.07421">
        <ele>-4.861</ele>
        <time>2014-05-17T09:09:38Z</time>
      </trkpt>
      <trkpt lat="43.6048" lon="4.07423">
        <ele>-4.198</ele>
        <time>2014-05-17T09:09:41Z</time>
      </trkpt>
      <trkpt lat="43.60489" lon="4.07434">
        <ele>-2.328</ele>
        <time>2014-05-17T09:09:49Z</time>
      </trkpt>
      <trkpt lat="43.60503" lon="4.07451">
        <ele>-0.595</ele>
        <time>2014-05-17T09:10:02Z</time>
      </trkpt>
      <trkpt lat="43.60505" lon="4.07452">
        <ele>-0.262</ele>
        <time>2014-05-17T09:10:04Z</time>
      </trkpt>
      <trkpt lat="43.60513" lon="4.07459">
        <ele>1.875</ele>
        <time>2014-05-17T09:10:12Z</time>
      </trkpt>
      <trkpt lat="43.60513" lon="4.07463">
        <ele>2.068</ele>
        <time>2014-05-17T09:10:15Z</time>
      </trkpt>
      <trkpt lat="43.60522" lon="4.07472">
        <ele>2.269</ele>
        <time>2014-05-17T09:10:24Z</time>
      </trkpt>
      <trkpt lat="43.6053" lon="4.07482">
        <ele>3.067</ele>
        <time>2014-05-17T09:10:33Z</time>
      </trkpt>
      <trkpt lat="43.60531" lon="4.07483">
        <ele>3.257</ele>
        <time>2014-05-17T09:10:35Z</time>
      </trkpt>
      <trkpt lat="43.60536" lon="4.07489">
        <ele>3.351</ele>
        <time>2014-05-17T09:10:41Z</time>
      </trkpt>
      <trkpt lat="43.60545" lon="4.07503">
        <ele>1.508</ele>
        <time>2014-05-17T09:10:52Z</time>
      </trkpt>
      <trkpt lat="43.60547" lon="4.07507">
        <ele>1.038</ele>
        <time>2014-05-17T09:10:59Z</time>
      </trkpt>
      <trkpt lat="43.60554" lon="4.07512">
        <ele>1.138</ele>
        <time>2014-05-17T09:11:09Z</time>
      </trkpt>
      <trkpt lat="43.60558" lon="4.07516">
        <ele>0.867</ele>
        <time>2014-05-17T09:11:13Z</time>
      </trkpt>
      <trkpt lat="43.60565" lon="4.07522">
        <ele>0.804</ele>
        <time>2014-05-17T09:11:22Z</time>
      </trkpt>
      <trkpt lat="43.60572" lon="4.07529">
        <ele>-0.795</ele>
        <time>2014-05-17T09:11:33Z</time>
      </trkpt>
      <trkpt lat="43.60577" lon="4.07533">
        <ele>-1.315</ele>
        <time>2014-05-17T09:11:42Z</time>
      </trkpt>
      <trkpt lat="43.60587" lon="4.07546">
        <ele>-2.224</ele>
        <time>2014-05-17T09:11:53Z</time>
      </trkpt>
      <trkpt lat="43.60593" lon="4.07552">
        <ele>-3.316</ele>
        <time>2014-05-17T09:12:01Z</time>
      </trkpt>
      <trkpt lat="43.60594" lon="4.07552">
        <ele>-3.396</ele>
        <time>2014-05-17T09:12:02Z</time>
      </trkpt>
      <trkpt lat="43.60598" lon="4.07554">
        <ele>-3.855</ele>
        <time>2014-05-17T09:12:10Z</time>
      </trkpt>
      <trkpt lat="43.60599" lon="4.07556">
        <ele>-3.997</ele>
        <time>2014-05-17T09:12:11Z</time>
      </trkpt>
      <trkpt lat="43.60611" lon="4.07568">
        <ele>-3.894</ele>
        <time>2014-05-17T09:12:23Z</time>
      </trkpt>
      <trkpt lat="43.60616" lon="4.07579">
        <ele>-5.067</ele>
        <time>2014-05-17T09:12:32Z</time>
      </trkpt>
      <trkpt lat="43.60624" lon="4.07589">
        <ele>-6.324</ele>
        <time>2014-05-17T09:12:40Z</time>
      </trkpt>
      <trkpt lat="43.60628" lon="4.07593">
        <ele>-6.633</ele>
        <time>2014-05-17T09:12:43Z</time>
      </trkpt>
      <trkpt lat="43.60634" lon="4.07598">
        <ele>-7.191</ele>
        <time>2014-05-17T09:12:48Z</time>
      </trkpt>
      <trkpt lat="43.60634" lon="4.07602">
        <ele>-6.171</ele>
        <time>2014-05-17T09:12:50Z</time>
      </trkpt>
      <trkpt lat="43.60639" lon="4.07607">
        <ele>-5.5</ele>
        <time>2014-05-17T09:12:54Z</time>
      </trkpt>
      <trkpt lat="43.6064" lon="4.07609">
        <ele>-5.535</ele>
        <time>2014-05-17T09:12:56Z</time>
      </trkpt>
      <trkpt lat="43.60644" lon="4.07615">
        <ele>-6.06</ele>
        <time>2014-05-17T09:13:00Z</time>
      </trkpt>
      <trkpt lat="43.60656" lon="4.07626">
        <ele>-7.631</ele>
        <time>2014-05-17T09:13:09Z</time>
      </trkpt>
      <trkpt lat="43.60659" lon="4.0763">
        <ele>-8.543</ele>
        <time>2014-05-17T09:13:16Z</time>
      </trkpt>
      <trkpt lat="43.60661" lon="4.07633">
        <ele>-8.769</ele>
        <time>2014-05-17T09:13:20Z</time>
      </trkpt>
      <trkpt lat="43.60673" lon="4.07648">
        <ele>-10.652</ele>
        <time>2014-05-17T09:13:31Z</time>
      </trkpt>
      <trkpt lat="43.6068" lon="4.07653">
        <ele>-10.51</ele>
        <time>2014-05-17T09:13:37Z</time>
      </trkpt>
      <trkpt lat="43.60688" lon="4.07661">
        <ele>-9.906</ele>
        <time>2014-05-17T09:13:45Z</time>
      </trkpt>
      <trkpt lat="43.60694" lon="4.07663">
        <ele>-9.83</ele>
        <time>2014-05-17T09:13:49Z</time>
      </trkpt>
      <trkpt lat="43.60701" lon="4.07671">
        <ele>-11.571</ele>
        <time>2014-05-17T09:13:56Z</time>
      </trkpt>
      <trkpt lat="43.60707" lon="4.07678">
        <ele>-10.974</ele>
        <time>2014-05-17T09:14:05Z</time>
      </trkpt>
      <trkpt lat="43.60713" lon="4.07685">
        <ele>-10.636</ele>
        <time>2014-05-17T09:14:11Z</time>
      </trkpt>
      <trkpt lat="43.60715" lon="4.07687">
        <ele>-10.506</ele>
        <time>2014-05-17T09:14:14Z</time>
      </trkpt>
      <trkpt lat="43.60718" lon="4.07694">
        <ele>-10.762</ele>
        <time>2014-05-17T09:14:22Z</time>
      </trkpt>
      <trkpt lat="43.60723" lon="4.07704">
        <ele>-9.702</ele>
        <time>2014-05-17T09:14:29Z</time>
      </trkpt>
      <trkpt lat="43.6073" lon="4.07712">
        <ele>-9.043</ele>
        <time>2014-05-17T09:14:36Z</time>
      </trkpt>
      <trkpt lat="43.60731" lon="4.07712">
        <ele>-8.983</ele>
        <time>2014-05-17T09:14:37Z</time>
      </trkpt>
      <trkpt lat="43.60742" lon="4.07716">
        <ele>-7.774</ele>
        <time>2014-05-17T09:14:47Z</time>
      </trkpt>
      <trkpt lat="43.60747" lon="4.07721">
        <ele>-7.556</ele>
        <time>2014-05-17T09:14:53Z</time>
      </trkpt>
      <trkpt lat="43.60754" lon="4.07727">
        <ele>-7.279</ele>
        <time>2014-05-17T09:14:59Z</time>
      </trkpt>
      <trkpt lat="43.60761" lon="4.07733">
        <ele>-6.587</ele>
        <time>2014-05-17T09:15:05Z</time>
      </trkpt>
      <trkpt lat="43.60771" lon="4.07742">
        <ele>-4.626</ele>
        <time>2014-05-17T09:15:13Z</time>
      </trkpt>
      <trkpt lat="43.60777" lon="4.07747">
        <ele>-3.998</ele>
        <time>2014-05-17T09:15:18Z</time>
      </trkpt>
      <trkpt lat="43.6078" lon="4.07753">
        <ele>-3.607</ele>
        <time>2014-05-17T09:15:21Z</time>
      </trkpt>
      <trkpt lat="43.60786" lon="4.07762">
        <ele>-3.924</ele>
        <time>2014-05-17T09:15:30Z</time>
      </trkpt>
      <trkpt lat="43.60789" lon="4.07767">
        <ele>-3.472</ele>
        <time>2014-05-17T09:15:33Z</time>
      </trkpt>
      <trkpt lat="43.60794" lon="4.07773">
        <ele>-3.33</ele>
        <time>2014-05-17T09:15:39Z</time>
      </trkpt>
      <trkpt lat="43.60799" lon="4.07777">
        <ele>-2.844</ele>
        <time>2014-05-17T09:15:43Z</time>
      </trkpt>
      <trkpt lat="43.60804" lon="4.07786">
        <ele>-1.944</ele>
        <time>2014-05-17T09:15:50Z</time>
      </trkpt>
      <trkpt lat="43.60813" lon="4.07794">
        <ele>-2.099</ele>
        <time>2014-05-17T09:15:58Z</time>
      </trkpt>
      <trkpt lat="43.60814" lon="4.07794">
        <ele>-1.897</ele>
        <time>2014-05-17T09:15:59Z</time>
      </trkpt>
      <trkpt lat="43.60816" lon="4.07803">
        <ele>-1.078</ele>
        <time>2014-05-17T09:16:07Z</time>
      </trkpt>
      <trkpt lat="43.60819" lon="4.07806">
        <ele>-1.272</ele>
        <time>2014-05-17T09:17:45Z</time>
      </trkpt>
      <trkpt lat="43.60833" lon="4.07809">
        <ele>-2.236</ele>
        <time>2014-05-17T09:18:01Z</time>
      </trkpt>
      <trkpt lat="43.60837" lon="4.07811">
        <ele>-2.393</ele>
        <time>2014-05-17T09:18:04Z</time>
      </trkpt>
      <trkpt lat="43.60852" lon="4.07812">
        <ele>-5.199</ele>
        <time>2014-05-17T09:18:17Z</time>
      </trkpt>
      <trkpt lat="43.60863" lon="4.0781">
        <ele>-5.033</ele>
        <time>2014-05-17T09:18:28Z</time>
      </trkpt>
      <trkpt lat="43.60873" lon="4.07811">
        <ele>-4.979</ele>
        <time>2014-05-17T09:18:39Z</time>
      </trkpt>
      <trkpt lat="43.60884" lon="4.0781">
        <ele>-5.56</ele>
        <time>2014-05-17T09:18:51Z</time>
      </trkpt>
      <trkpt lat="43.60897" lon="4.07803">
        <ele>-4.237</ele>
        <time>2014-05-17T09:19:03Z</time>
      </trkpt>
      <trkpt lat="43.6091" lon="4.07802">
        <ele>-5.669</ele>
        <time>2014-05-17T09:19:17Z</time>
      </trkpt>
      <trkpt lat="43.60923" lon="4.07801">
        <ele>-6.459</ele>
        <time>2014-05-17T09:19:30Z</time>
      </trkpt>
      <trkpt lat="43.60934" lon="4.07803">
        <ele>-4.189</ele>
        <time>2014-05-17T09:19:39Z</time>
      </trkpt>
      <trkpt lat="43.60936" lon="4.07802">
        <ele>-3.464</ele>
        <time>2014-05-17T09:19:41Z</time>
      </trkpt>
      <trkpt lat="43.60946" lon="4.07799">
        <ele>-3.188</ele>
        <time>2014-05-17T09:19:49Z</time>
      </trkpt>
      <trkpt lat="43.60954" lon="4.078">
        <ele>-1.726</ele>
        <time>2014-05-17T09:19:55Z</time>
      </trkpt>
      <trkpt lat="43.60962" lon="4.078">
        <ele>1.21</ele>
        <time>2014-05-17T09:20:02Z</time>
      </trkpt>
      <trkpt lat="43.60966" lon="4.07799">
        <ele>3.659</ele>
        <time>2014-05-17T09:20:07Z</time>
      </trkpt>
      <trkpt lat="43.6097" lon="4.078">
        <ele>3.643</ele>
        <time>2014-05-17T09:20:10Z</time>
      </trkpt>
      <trkpt lat="43.60978" lon="4.078">
        <ele>2.456</ele>
        <time>2014-05-17T09:20:22Z</time>
      </trkpt>
      <trkpt lat="43.60993" lon="4.07797">
        <ele>1.532</ele>
        <time>2014-05-17T09:20:36Z</time>
      </trkpt>
      <trkpt lat="43.60999" lon="4.07795">
        <ele>1.084</ele>
        <time>2014-05-17T09:20:47Z</time>
      </trkpt>
      <trkpt lat="43.60994" lon="4.07811">
        <ele>4.08</ele>
        <time>2014-05-17T09:21:34Z</time>
      </trkpt>
      <trkpt lat="43.60986" lon="4.07815">
        <ele>4.042</ele>
        <time>2014-05-17T09:21:42Z</time>
      </trkpt>
      <trkpt lat="43.60978" lon="4.07821">
        <ele>3.331</ele>
        <time>2014-05-17T09:21:51Z</time>
      </trkpt>
      <trkpt lat="43.60972" lon="4.0782">
        <ele>3.392</ele>
        <time>2014-05-17T09:21:57Z</time>
      </trkpt>
      <trkpt lat="43.60962" lon="4.07812">
        <ele>4.311</ele>
        <time>2014-05-17T09:22:09Z</time>
      </trkpt>
      <trkpt lat="43.60951" lon="4.07815">
        <ele>4.415</ele>
        <time>2014-05-17T09:22:18Z</time>
      </trkpt>
      <trkpt lat="43.60938" lon="4.07818">
        <ele>5.406</ele>
        <time>2014-05-17T09:22:32Z</time>
      </trkpt>
      <trkpt lat="43.60924" lon="4.07819">
        <ele>5.944</ele>
        <time>2014-05-17T09:22:45Z</time>
      </trkpt>
      <trkpt lat="43.60909" lon="4.07821">
        <ele>6.572</ele>
        <time>2014-05-17T09:22:57Z</time>
      </trkpt>
      <trkpt lat="43.6089" lon="4.07821">
        <ele>6.101</ele>
        <time>2014-05-17T09:23:14Z</time>
      </trkpt>
      <trkpt lat="43.60875" lon="4.07825">
        <ele>6.837</ele>
        <time>2014-05-17T09:23:29Z</time>
      </trkpt>
      <trkpt lat="43.6086" lon="4.07826">
        <ele>7.496</ele>
        <time>2014-05-17T09:23:42Z</time>
      </trkpt>
      <trkpt lat="43.60849" lon="4.07828">
        <ele>7.139</ele>
        <time>2014-05-17T09:23:55Z</time>
      </trkpt>
      <trkpt lat="43.6083" lon="4.07832">
        <ele>6.852</ele>
        <time>2014-05-17T09:24:10Z</time>
      </trkpt>
      <trkpt lat="43.60825" lon="4.07835">
        <ele>6.881</ele>
        <time>2014-05-17T09:24:20Z</time>
      </trkpt>
      <trkpt lat="43.60817" lon="4.07831">
        <ele>7.183</ele>
        <time>2014-05-17T09:24:36Z</time>
      </trkpt>
      <trkpt lat="43.60824" lon="4.07837">
        <ele>4.939</ele>
        <time>2014-05-17T09:24:44Z</time>
      </trkpt>
      <trkpt lat="43.60831" lon="4.07847">
        <ele>3.776</ele>
        <time>2014-05-17T09:24:52Z</time>
      </trkpt>
      <trkpt lat="43.60838" lon="4.07857">
        <ele>2.864</ele>
        <time>2014-05-17T09:25:05Z</time>
      </trkpt>
      <trkpt lat="43.6084" lon="4.07863">
        <ele>2.71</ele>
        <time>2014-05-17T09:25:10Z</time>
      </trkpt>
      <trkpt lat="43.60847" lon="4.07873">
        <ele>1.634</ele>
        <time>2014-05-17T09:25:18Z</time>
      </trkpt>
      <trkpt lat="43.60854" lon="4.07876">
        <ele>1.345</ele>
        <time>2014-05-17T09:25:26Z</time>
      </trkpt>
      <trkpt lat="43.60865" lon="4.07884">
        <ele>0.596</ele>
        <time>2014-05-17T09:25:36Z</time>
      </trkpt>
      <trkpt lat="43.60872" lon="4.07887">
        <ele>1.056</ele>
        <time>2014-05-17T09:25:42Z</time>
      </trkpt>
      <trkpt lat="43.60884" lon="4.07899">
        <ele>0.903</ele>
        <time>2014-05-17T09:25:52Z</time>
      </trkpt>
      <trkpt lat="43.6089" lon="4.07907">
        <ele>2.22</ele>
        <time>2014-05-17T09:25:58Z</time>
      </trkpt>
      <trkpt lat="43.60895" lon="4.07914">
        <ele>2.575</ele>
        <time>2014-05-17T09:26:10Z</time>
      </trkpt>
      <trkpt lat="43.60907" lon="4.07925">
        <ele>3.872</ele>
        <time>2014-05-17T09:26:22Z</time>
      </trkpt>
      <trkpt lat="43.60914" lon="4.07932">
        <ele>4.587</ele>
        <time>2014-05-17T09:26:30Z</time>
      </trkpt>
      <trkpt lat="43.60924" lon="4.07946">
        <ele>6.659</ele>
        <time>2014-05-17T09:26:45Z</time>
      </trkpt>
      <trkpt lat="43.60934" lon="4.07954">
        <ele>5.475</ele>
        <time>2014-05-17T09:26:58Z</time>
      </trkpt>
      <trkpt lat="43.60944" lon="4.07959">
        <ele>6.171</ele>
        <time>2014-05-17T09:27:07Z</time>
      </trkpt>
      <trkpt lat="43.60945" lon="4.07959">
        <ele>6.05</ele>
        <time>2014-05-17T09:27:08Z</time>
      </trkpt>
      <trkpt lat="43.60952" lon="4.07967">
        <ele>6.259</ele>
        <time>2014-05-17T09:27:18Z</time>
      </trkpt>
      <trkpt lat="43.6096" lon="4.07975">
        <ele>4.44</ele>
        <time>2014-05-17T09:27:29Z</time>
      </trkpt>
      <trkpt lat="43.60966" lon="4.07974">
        <ele>3.997</ele>
        <time>2014-05-17T09:27:37Z</time>
      </trkpt>
      <trkpt lat="43.60979" lon="4.07986">
        <ele>3.803</ele>
        <time>2014-05-17T09:27:49Z</time>
      </trkpt>
      <trkpt lat="43.60987" lon="4.07997">
        <ele>2.9</ele>
        <time>2014-05-17T09:27:58Z</time>
      </trkpt>
      <trkpt lat="43.60988" lon="4.07997">
        <ele>2.852</ele>
        <time>2014-05-17T09:27:59Z</time>
      </trkpt>
      <trkpt lat="43.60997" lon="4.08004">
        <ele>2.983</ele>
        <time>2014-05-17T09:28:08Z</time>
      </trkpt>
      <trkpt lat="43.60999" lon="4.08006">
        <ele>2.943</ele>
        <time>2014-05-17T09:28:10Z</time>
      </trkpt>
      <trkpt lat="43.61004" lon="4.08011">
        <ele>2.368</ele>
        <time>2014-05-17T09:28:14Z</time>
      </trkpt>
      <trkpt lat="43.61007" lon="4.08016">
        <ele>1.233</ele>
        <time>2014-05-17T09:28:19Z</time>
      </trkpt>
      <trkpt lat="43.61013" lon="4.08024">
        <ele>0.637</ele>
        <time>2014-05-17T09:28:28Z</time>
      </trkpt>
      <trkpt lat="43.61017" lon="4.08028">
        <ele>0.466</ele>
        <time>2014-05-17T09:28:33Z</time>
      </trkpt>
      <trkpt lat="43.61025" lon="4.08034">
        <ele>-0.079</ele>
        <time>2014-05-17T09:28:42Z</time>
      </trkpt>
      <trkpt lat="43.61029" lon="4.0804">
        <ele>-0.418</ele>
        <time>2014-05-17T09:28:49Z</time>
      </trkpt>
      <trkpt lat="43.61036" lon="4.08047">
        <ele>-1.531</ele>
        <time>2014-05-17T09:29:00Z</time>
      </trkpt>
      <trkpt lat="43.61044" lon="4.08055">
        <ele>-4.288</ele>
        <time>2014-05-17T09:29:12Z</time>
      </trkpt>
      <trkpt lat="43.61045" lon="4.08056">
        <ele>-4.249</ele>
        <time>2014-05-17T09:29:14Z</time>
      </trkpt>
      <trkpt lat="43.6105" lon="4.08059">
        <ele>-5.308</ele>
        <time>2014-05-17T09:29:22Z</time>
      </trkpt>
      <trkpt lat="43.61056" lon="4.08062">
        <ele>-6.956</ele>
        <time>2014-05-17T09:29:31Z</time>
      </trkpt>
      <trkpt lat="43.6106" lon="4.08063">
        <ele>-6.714</ele>
        <time>2014-05-17T09:29:36Z</time>
      </trkpt>
      <trkpt lat="43.61073" lon="4.08076">
        <ele>-6.6</ele>
        <time>2014-05-17T09:29:48Z</time>
      </trkpt>
      <trkpt lat="43.61074" lon="4.08077">
        <ele>-6.5</ele>
        <time>2014-05-17T09:29:49Z</time>
      </trkpt>
      <trkpt lat="43.61078" lon="4.08092">
        <ele>-3.746</ele>
        <time>2014-05-17T09:29:59Z</time>
      </trkpt>
      <trkpt lat="43.61081" lon="4.08103">
        <ele>-3.285</ele>
        <time>2014-05-17T09:30:06Z</time>
      </trkpt>
      <trkpt lat="43.61083" lon="4.08109">
        <ele>-2.387</ele>
        <time>2014-05-17T09:30:14Z</time>
      </trkpt>
      <trkpt lat="43.61085" lon="4.08117">
        <ele>-1.668</ele>
        <time>2014-05-17T09:30:20Z</time>
      </trkpt>
      <trkpt lat="43.61089" lon="4.08129">
        <ele>-0.462</ele>
        <time>2014-05-17T09:30:30Z</time>
      </trkpt>
      <trkpt lat="43.61091" lon="4.08137">
        <ele>0.648</ele>
        <time>2014-05-17T09:30:40Z</time>
      </trkpt>
      <trkpt lat="43.61091" lon="4.0815">
        <ele>2.083</ele>
        <time>2014-05-17T09:30:55Z</time>
      </trkpt>
      <trkpt lat="43.61091" lon="4.0816">
        <ele>2.778</ele>
        <time>2014-05-17T09:31:03Z</time>
      </trkpt>
      <trkpt lat="43.61095" lon="4.08176">
        <ele>3.462</ele>
        <time>2014-05-17T09:31:19Z</time>
      </trkpt>
      <trkpt lat="43.61098" lon="4.08185">
        <ele>4.514</ele>
        <time>2014-05-17T09:31:32Z</time>
      </trkpt>
      <trkpt lat="43.61106" lon="4.08204">
        <ele>5.425</ele>
        <time>2014-05-17T09:31:46Z</time>
      </trkpt>
      <trkpt lat="43.61105" lon="4.08214">
        <ele>4.792</ele>
        <time>2014-05-17T09:31:56Z</time>
      </trkpt>
      <trkpt lat="43.61104" lon="4.08216">
        <ele>4.62</ele>
        <time>2014-05-17T09:32:12Z</time>
      </trkpt>
      <trkpt lat="43.61111" lon="4.08218">
        <ele>2.77</ele>
        <time>2014-05-17T09:32:31Z</time>
      </trkpt>
      <trkpt lat="43.6112" lon="4.08221">
        <ele>1.323</ele>
        <time>2014-05-17T09:32:45Z</time>
      </trkpt>
      <trkpt lat="43.6113" lon="4.08224">
        <ele>-0.437</ele>
        <time>2014-05-17T09:32:57Z</time>
      </trkpt>
      <trkpt lat="43.6113" lon="4.08224">
        <ele>-0.115</ele>
        <time>2014-05-17T09:32:58Z</time>
      </trkpt>
      <trkpt lat="43.61137" lon="4.08223">
        <ele>-1.086</ele>
        <time>2014-05-17T09:33:05Z</time>
      </trkpt>
      <trkpt lat="43.61146" lon="4.08221">
        <ele>-1.994</ele>
        <time>2014-05-17T09:33:12Z</time>
      </trkpt>
      <trkpt lat="43.61162" lon="4.0822">
        <ele>-5.562</ele>
        <time>2014-05-17T09:33:28Z</time>
      </trkpt>
      <trkpt lat="43.61179" lon="4.08221">
        <ele>-8.361</ele>
        <time>2014-05-17T09:33:42Z</time>
      </trkpt>
      <trkpt lat="43.61188" lon="4.08217">
        <ele>-8.558</ele>
        <time>2014-05-17T09:33:54Z</time>
      </trkpt>
      <trkpt lat="43.61193" lon="4.08213">
        <ele>-7.541</ele>
        <time>2014-05-17T09:34:04Z</time>
      </trkpt>
      <trkpt lat="43.61203" lon="4.08214">
        <ele>-7.03</ele>
        <time>2014-05-17T09:34:15Z</time>
      </trkpt>
      <trkpt lat="43.61215" lon="4.08212">
        <ele>-6.49</ele>
        <time>2014-05-17T09:34:28Z</time>
      </trkpt>
      <trkpt lat="43.61228" lon="4.08212">
        <ele>-7.422</ele>
        <time>2014-05-17T09:34:42Z</time>
      </trkpt>
      <trkpt lat="43.6124" lon="4.08209">
        <ele>-5.737</ele>
        <time>2014-05-17T09:34:55Z</time>
      </trkpt>
      <trkpt lat="43.61242" lon="4.08209">
        <ele>-6.063</ele>
        <time>2014-05-17T09:34:57Z</time>
      </trkpt>
      <trkpt lat="43.61251" lon="4.08211">
        <ele>-5.646</ele>
        <time>2014-05-17T09:35:07Z</time>
      </trkpt>
      <trkpt lat="43.61265" lon="4.08211">
        <ele>-5.547</ele>
        <time>2014-05-17T09:35:20Z</time>
      </trkpt>
      <trkpt lat="43.61276" lon="4.08212">
        <ele>-7.219</ele>
        <time>2014-05-17T09:35:29Z</time>
      </trkpt>
      <trkpt lat="43.61278" lon="4.0821">
        <ele>-6.917</ele>
        <time>2014-05-17T09:35:31Z</time>
      </trkpt>
      <trkpt lat="43.61282" lon="4.08207">
        <ele>-7.308</ele>
        <time>2014-05-17T09:35:40Z</time>
      </trkpt>
      <trkpt lat="43.61291" lon="4.08209">
        <ele>-5.492</ele>
        <time>2014-05-17T09:36:01Z</time>
      </trkpt>
      <trkpt lat="43.61299" lon="4.08199">
        <ele>-3.154</ele>
        <time>2014-05-17T09:36:13Z</time>
      </trkpt>
      <trkpt lat="43.61301" lon="4.082">
        <ele>-3.705</ele>
        <time>2014-05-17T09:36:29Z</time>
      </trkpt>
      <trkpt lat="43.61306" lon="4.08202">
        <ele>-3.147</ele>
        <time>2014-05-17T09:36:34Z</time>
      </trkpt>
      <trkpt lat="43.61316" lon="4.08202">
        <ele>-3.178</ele>
        <time>2014-05-17T09:36:44Z</time>
      </trkpt>
      <trkpt lat="43.6132" lon="4.08203">
        <ele>-2.365</ele>
        <time>2014-05-17T09:36:46Z</time>
      </trkpt>
      <trkpt lat="43.61324" lon="4.08203">
        <ele>-1.982</ele>
        <time>2014-05-17T09:36:48Z</time>
      </trkpt>
      <trkpt lat="43.61328" lon="4.08203">
        <ele>-0.964</ele>
        <time>2014-05-17T09:36:52Z</time>
      </trkpt>
      <trkpt lat="43.61334" lon="4.08201">
        <ele>-2.798</ele>
        <time>2014-05-17T09:36:58Z</time>
      </trkpt>
      <trkpt lat="43.61342" lon="4.08202">
        <ele>-4.345</ele>
        <time>2014-05-17T09:37:06Z</time>
      </trkpt>
      <trkpt lat="43.61349" lon="4.08203">
        <ele>-3.16</ele>
        <time>2014-05-17T09:37:13Z</time>
      </trkpt>
      <trkpt lat="43.61358" lon="4.08201">
        <ele>-2.818</ele>
        <time>2014-05-17T09:37:22Z</time>
      </trkpt>
      <trkpt lat="43.61362" lon="4.08201">
        <ele>-3.583</ele>
        <time>2014-05-17T09:37:26Z</time>
      </trkpt>
      <trkpt lat="43.61371" lon="4.08199">
        <ele>-3.039</ele>
        <time>2014-05-17T09:37:35Z</time>
      </trkpt>
      <trkpt lat="43.6138" lon="4.08198">
        <ele>-4.147</ele>
        <time>2014-05-17T09:37:44Z</time>
      </trkpt>
      <trkpt lat="43.61384" lon="4.08197">
        <ele>-3.596</ele>
        <time>2014-05-17T09:37:47Z</time>
      </trkpt>
      <trkpt lat="43.61387" lon="4.08199">
        <ele>-5.236</ele>
        <time>2014-05-17T09:37:49Z</time>
      </trkpt>
      <trkpt lat="43.61395" lon="4.082">
        <ele>-8.235</ele>
        <time>2014-05-17T09:37:59Z</time>
      </trkpt>
      <trkpt lat="43.61403" lon="4.08202">
        <ele>-8.49</ele>
        <time>2014-05-17T09:38:07Z</time>
      </trkpt>
      <trkpt lat="43.61412" lon="4.08205">
        <ele>-5.934</ele>
        <time>2014-05-17T09:38:17Z</time>
      </trkpt>
      <trkpt lat="43.61422" lon="4.08206">
        <ele>-3.568</ele>
        <time>2014-05-17T09:38:26Z</time>
      </trkpt>
      <trkpt lat="43.61429" lon="4.08203">
        <ele>-1.287</ele>
        <time>2014-05-17T09:38:33Z</time>
      </trkpt>
      <trkpt lat="43.61436" lon="4.08202">
        <ele>0.472</ele>
        <time>2014-05-17T09:38:40Z</time>
      </trkpt>
      <trkpt lat="43.6144" lon="4.08202">
        <ele>-0.89</ele>
        <time>2014-05-17T09:38:43Z</time>
      </trkpt>
      <trkpt lat="43.61447" lon="4.08199">
        <ele>-1.66</ele>
        <time>2014-05-17T09:38:49Z</time>
      </trkpt>
      <trkpt lat="43.61449" lon="4.08199">
        <ele>-3.219</ele>
        <time>2014-05-17T09:38:52Z</time>
      </trkpt>
      <trkpt lat="43.61453" lon="4.08198">
        <ele>-3.964</ele>
        <time>2014-05-17T09:38:58Z</time>
      </trkpt>
      <trkpt lat="43.6146" lon="4.08202">
        <ele>-4.987</ele>
        <time>2014-05-17T09:39:02Z</time>
      </trkpt>
      <trkpt lat="43.61465" lon="4.082">
        <ele>-4.108</ele>
        <time>2014-05-17T09:39:10Z</time>
      </trkpt>
      <trkpt lat="43.61478" lon="4.08199">
        <ele>-3.037</ele>
        <time>2014-05-17T09:39:21Z</time>
      </trkpt>
      <trkpt lat="43.61489" lon="4.08195">
        <ele>1.233</ele>
        <time>2014-05-17T09:39:33Z</time>
      </trkpt>
      <trkpt lat="43.615" lon="4.08196">
        <ele>1.292</ele>
        <time>2014-05-17T09:39:44Z</time>
      </trkpt>
      <trkpt lat="43.61514" lon="4.08201">
        <ele>-2.358</ele>
        <time>2014-05-17T09:39:57Z</time>
      </trkpt>
      <trkpt lat="43.6153" lon="4.08201">
        <ele>-1.797</ele>
        <time>2014-05-17T09:40:08Z</time>
      </trkpt>
      <trkpt lat="43.61537" lon="4.08201">
        <ele>-2.721</ele>
        <time>2014-05-17T09:40:16Z</time>
      </trkpt>
      <trkpt lat="43.61544" lon="4.082">
        <ele>-2.671</ele>
        <time>2014-05-17T09:40:25Z</time>
      </trkpt>
      <trkpt lat="43.61557" lon="4.082">
        <ele>-2.924</ele>
        <time>2014-05-17T09:40:38Z</time>
      </trkpt>
      <trkpt lat="43.6157" lon="4.082">
        <ele>-3.718</ele>
        <time>2014-05-17T09:40:52Z</time>
      </trkpt>
      <trkpt lat="43.61584" lon="4.08197">
        <ele>-4.201</ele>
        <time>2014-05-17T09:41:04Z</time>
      </trkpt>
      <trkpt lat="43.61594" lon="4.08196">
        <ele>-4.825</ele>
        <time>2014-05-17T09:41:12Z</time>
      </trkpt>
      <trkpt lat="43.61603" lon="4.08196">
        <ele>-4.394</ele>
        <time>2014-05-17T09:41:21Z</time>
      </trkpt>
      <trkpt lat="43.61612" lon="4.08198">
        <ele>-2.095</ele>
        <time>2014-05-17T09:41:31Z</time>
      </trkpt>
      <trkpt lat="43.61619" lon="4.08197">
        <ele>-1.147</ele>
        <time>2014-05-17T09:41:45Z</time>
      </trkpt>
      <trkpt lat="43.61627" lon="4.08193">
        <ele>0.375</ele>
        <time>2014-05-17T09:42:02Z</time>
      </trkpt>
      <trkpt lat="43.61637" lon="4.08188">
        <ele>3.072</ele>
        <time>2014-05-17T09:42:21Z</time>
      </trkpt>
      <trkpt lat="43.61649" lon="4.08206">
        <ele>2.817</ele>
        <time>2014-05-17T09:44:30Z</time>
      </trkpt>
      <trkpt lat="43.61647" lon="4.08221">
        <ele>1.722</ele>
        <time>2014-05-17T09:44:53Z</time>
      </trkpt>
      <trkpt lat="43.61641" lon="4.08219">
        <ele>1.258</ele>
        <time>2014-05-17T09:44:59Z</time>
      </trkpt>
      <trkpt lat="43.6162" lon="4.08212">
        <ele>0.151</ele>
        <time>2014-05-17T09:45:17Z</time>
      </trkpt>
      <trkpt lat="43.61611" lon="4.08213">
        <ele>0.273</ele>
        <time>2014-05-17T09:45:24Z</time>
      </trkpt>
      <trkpt lat="43.61596" lon="4.08219">
        <ele>-0.858</ele>
        <time>2014-05-17T09:45:36Z</time>
      </trkpt>
      <trkpt lat="43.6159" lon="4.08218">
        <ele>-1.341</ele>
        <time>2014-05-17T09:45:41Z</time>
      </trkpt>
      <trkpt lat="43.61586" lon="4.08217">
        <ele>-1.415</ele>
        <time>2014-05-17T09:45:45Z</time>
      </trkpt>
      <trkpt lat="43.61578" lon="4.08215">
        <ele>-1.881</ele>
        <time>2014-05-17T09:45:52Z</time>
      </trkpt>
      <trkpt lat="43.61567" lon="4.08214">
        <ele>-1.002</ele>
        <time>2014-05-17T09:45:59Z</time>
      </trkpt>
      <trkpt lat="43.61559" lon="4.08214">
        <ele>-1.301</ele>
        <time>2014-05-17T09:46:08Z</time>
      </trkpt>
      <trkpt lat="43.61553" lon="4.08214">
        <ele>-2.672</ele>
        <time>2014-05-17T09:46:16Z</time>
      </trkpt>
      <trkpt lat="43.61545" lon="4.08214">
        <ele>-3.646</ele>
        <time>2014-05-17T09:46:23Z</time>
      </trkpt>
      <trkpt lat="43.6153" lon="4.08213">
        <ele>-4.986</ele>
        <time>2014-05-17T09:46:35Z</time>
      </trkpt>
      <trkpt lat="43.61514" lon="4.08215">
        <ele>-5.695</ele>
        <time>2014-05-17T09:46:48Z</time>
      </trkpt>
      <trkpt lat="43.615" lon="4.08221">
        <ele>-4.399</ele>
        <time>2014-05-17T09:47:04Z</time>
      </trkpt>
      <trkpt lat="43.61484" lon="4.08223">
        <ele>-5.773</ele>
        <time>2014-05-17T09:47:18Z</time>
      </trkpt>
      <trkpt lat="43.61477" lon="4.08224">
        <ele>-5.705</ele>
        <time>2014-05-17T09:47:25Z</time>
      </trkpt>
      <trkpt lat="43.61455" lon="4.08223">
        <ele>-6.789</ele>
        <time>2014-05-17T09:47:41Z</time>
      </trkpt>
      <trkpt lat="43.61444" lon="4.08227">
        <ele>-5.937</ele>
        <time>2014-05-17T09:47:49Z</time>
      </trkpt>
      <trkpt lat="43.61435" lon="4.08229">
        <ele>-6.902</ele>
        <time>2014-05-17T09:47:59Z</time>
      </trkpt>
      <trkpt lat="43.61432" lon="4.08228">
        <ele>-7.37</ele>
        <time>2014-05-17T09:48:01Z</time>
      </trkpt>
      <trkpt lat="43.61423" lon="4.08232">
        <ele>-8.15</ele>
        <time>2014-05-17T09:48:11Z</time>
      </trkpt>
      <trkpt lat="43.61406" lon="4.08231">
        <ele>-7.779</ele>
        <time>2014-05-17T09:48:23Z</time>
      </trkpt>
      <trkpt lat="43.61398" lon="4.08231">
        <ele>-7.263</ele>
        <time>2014-05-17T09:48:29Z</time>
      </trkpt>
      <trkpt lat="43.61391" lon="4.08229">
        <ele>-7.423</ele>
        <time>2014-05-17T09:48:37Z</time>
      </trkpt>
      <trkpt lat="43.61385" lon="4.0823">
        <ele>-6.39</ele>
        <time>2014-05-17T09:48:41Z</time>
      </trkpt>
      <trkpt lat="43.61379" lon="4.08228">
        <ele>-4.948</ele>
        <time>2014-05-17T09:48:48Z</time>
      </trkpt>
      <trkpt lat="43.61369" lon="4.08226">
        <ele>-3.744</ele>
        <time>2014-05-17T09:48:57Z</time>
      </trkpt>
      <trkpt lat="43.6135" lon="4.08227">
        <ele>-3.684</ele>
        <time>2014-05-17T09:49:12Z</time>
      </trkpt>
      <trkpt lat="43.61345" lon="4.08228">
        <ele>-4.532</ele>
        <time>2014-05-17T09:49:15Z</time>
      </trkpt>
      <trkpt lat="43.61339" lon="4.0823">
        <ele>-4.042</ele>
        <time>2014-05-17T09:49:23Z</time>
      </trkpt>
      <trkpt lat="43.61332" lon="4.08228">
        <ele>-3.423</ele>
        <time>2014-05-17T09:49:34Z</time>
      </trkpt>
      <trkpt lat="43.61318" lon="4.08232">
        <ele>-2.143</ele>
        <time>2014-05-17T09:49:48Z</time>
      </trkpt>
      <trkpt lat="43.61316" lon="4.08244">
        <ele>-0.972</ele>
        <time>2014-05-17T09:50:00Z</time>
      </trkpt>
      <trkpt lat="43.61316" lon="4.08248">
        <ele>0.655</ele>
        <time>2014-05-17T09:50:16Z</time>
      </trkpt>
      <trkpt lat="43.61317" lon="4.0826">
        <ele>3.235</ele>
        <time>2014-05-17T09:50:55Z</time>
      </trkpt>
      <trkpt lat="43.61322" lon="4.08283">
        <ele>2.44</ele>
        <time>2014-05-17T09:51:08Z</time>
      </trkpt>
      <trkpt lat="43.61325" lon="4.08298">
        <ele>2.664</ele>
        <time>2014-05-17T09:51:18Z</time>
      </trkpt>
      <trkpt lat="43.61328" lon="4.08304">
        <ele>2.45</ele>
        <time>2014-05-17T09:51:23Z</time>
      </trkpt>
      <trkpt lat="43.6133" lon="4.08311">
        <ele>1.368</ele>
        <time>2014-05-17T09:51:28Z</time>
      </trkpt>
      <trkpt lat="43.61331" lon="4.08323">
        <ele>-0.162</ele>
        <time>2014-05-17T09:51:36Z</time>
      </trkpt>
      <trkpt lat="43.61335" lon="4.08336">
        <ele>1.663</ele>
        <time>2014-05-17T09:51:47Z</time>
      </trkpt>
      <trkpt lat="43.6134" lon="4.08352">
        <ele>1.887</ele>
        <time>2014-05-17T09:52:00Z</time>
      </trkpt>
      <trkpt lat="43.61345" lon="4.08375">
        <ele>2.939</ele>
        <time>2014-05-17T09:52:16Z</time>
      </trkpt>
      <trkpt lat="43.61346" lon="4.08393">
        <ele>2.645</ele>
        <time>2014-05-17T09:52:27Z</time>
      </trkpt>
      <trkpt lat="43.61348" lon="4.08398">
        <ele>2.178</ele>
        <time>2014-05-17T09:52:31Z</time>
      </trkpt>
      <trkpt lat="43.61352" lon="4.08423">
        <ele>3.114</ele>
        <time>2014-05-17T09:52:47Z</time>
      </trkpt>
      <trkpt lat="43.61361" lon="4.08436">
        <ele>3.495</ele>
        <time>2014-05-17T09:52:59Z</time>
      </trkpt>
      <trkpt lat="43.61362" lon="4.08449">
        <ele>4.034</ele>
        <time>2014-05-17T09:53:09Z</time>
      </trkpt>
      <trkpt lat="43.61363" lon="4.08453">
        <ele>4.069</ele>
        <time>2014-05-17T09:53:11Z</time>
      </trkpt>
      <trkpt lat="43.61367" lon="4.08468">
        <ele>4.461</ele>
        <time>2014-05-17T09:53:23Z</time>
      </trkpt>
      <trkpt lat="43.6137" lon="4.08484">
        <ele>4.491</ele>
        <time>2014-05-17T09:53:34Z</time>
      </trkpt>
      <trkpt lat="43.61374" lon="4.08499">
        <ele>4.138</ele>
        <time>2014-05-17T09:53:47Z</time>
      </trkpt>
      <trkpt lat="43.61375" lon="4.0851">
        <ele>4.139</ele>
        <time>2014-05-17T09:54:06Z</time>
      </trkpt>
      <trkpt lat="43.61376" lon="4.08521">
        <ele>3.462</ele>
        <time>2014-05-17T09:54:13Z</time>
      </trkpt>
      <trkpt lat="43.61379" lon="4.0854">
        <ele>1.266</ele>
        <time>2014-05-17T09:54:24Z</time>
      </trkpt>
      <trkpt lat="43.61379" lon="4.08542">
        <ele>0.905</ele>
        <time>2014-05-17T09:54:25Z</time>
      </trkpt>
      <trkpt lat="43.6138" lon="4.08549">
        <ele>-0.171</ele>
        <time>2014-05-17T09:54:29Z</time>
      </trkpt>
      <trkpt lat="43.61383" lon="4.08562">
        <ele>-2.359</ele>
        <time>2014-05-17T09:54:36Z</time>
      </trkpt>
      <trkpt lat="43.61385" lon="4.08569">
        <ele>-3.244</ele>
        <time>2014-05-17T09:54:41Z</time>
      </trkpt>
      <trkpt lat="43.61389" lon="4.08581">
        <ele>-5.477</ele>
        <time>2014-05-17T09:54:50Z</time>
      </trkpt>
      <trkpt lat="43.61394" lon="4.08603">
        <ele>-5.556</ele>
        <time>2014-05-17T09:55:03Z</time>
      </trkpt>
      <trkpt lat="43.61392" lon="4.08621">
        <ele>-6.094</ele>
        <time>2014-05-17T09:55:13Z</time>
      </trkpt>
      <trkpt lat="43.61391" lon="4.08635">
        <ele>-6.183</ele>
        <time>2014-05-17T09:55:22Z</time>
      </trkpt>
      <trkpt lat="43.61391" lon="4.08639">
        <ele>-5.584</ele>
        <time>2014-05-17T09:55:25Z</time>
      </trkpt>
      <trkpt lat="43.6139" lon="4.08651">
        <ele>-4.672</ele>
        <time>2014-05-17T09:55:33Z</time>
      </trkpt>
      <trkpt lat="43.61389" lon="4.08661">
        <ele>-3.565</ele>
        <time>2014-05-17T09:55:41Z</time>
      </trkpt>
      <trkpt lat="43.61387" lon="4.08673">
        <ele>-2.406</ele>
        <time>2014-05-17T09:55:48Z</time>
      </trkpt>
      <trkpt lat="43.61384" lon="4.08685">
        <ele>0.09</ele>
        <time>2014-05-17T09:55:57Z</time>
      </trkpt>
      <trkpt lat="43.61384" lon="4.08686">
        <ele>-0.012</ele>
        <time>2014-05-17T09:55:58Z</time>
      </trkpt>
      <trkpt lat="43.61383" lon="4.08696">
        <ele>0.052</ele>
        <time>2014-05-17T09:56:04Z</time>
      </trkpt>
      <trkpt lat="43.61381" lon="4.08708">
        <ele>-0.266</ele>
        <time>2014-05-17T09:56:12Z</time>
      </trkpt>
      <trkpt lat="43.61376" lon="4.08727">
        <ele>0.781</ele>
        <time>2014-05-17T09:56:23Z</time>
      </trkpt>
      <trkpt lat="43.61375" lon="4.08735">
        <ele>0.543</ele>
        <time>2014-05-17T09:56:27Z</time>
      </trkpt>
      <trkpt lat="43.61371" lon="4.08743">
        <ele>0.384</ele>
        <time>2014-05-17T09:56:32Z</time>
      </trkpt>
      <trkpt lat="43.61367" lon="4.08757">
        <ele>-0.506</ele>
        <time>2014-05-17T09:56:41Z</time>
      </trkpt>
      <trkpt lat="43.61364" lon="4.08777">
        <ele>-1.382</ele>
        <time>2014-05-17T09:56:52Z</time>
      </trkpt>
      <trkpt lat="43.6136" lon="4.08791">
        <ele>-2.206</ele>
        <time>2014-05-17T09:57:00Z</time>
      </trkpt>
      <trkpt lat="43.61357" lon="4.08801">
        <ele>-3.192</ele>
        <time>2014-05-17T09:57:10Z</time>
      </trkpt>
      <trkpt lat="43.61349" lon="4.08827">
        <ele>-4.004</ele>
        <time>2014-05-17T09:57:24Z</time>
      </trkpt>
      <trkpt lat="43.61346" lon="4.08848">
        <ele>-5.02</ele>
        <time>2014-05-17T09:57:37Z</time>
      </trkpt>
      <trkpt lat="43.61344" lon="4.08865">
        <ele>-5.096</ele>
        <time>2014-05-17T09:57:48Z</time>
      </trkpt>
      <trkpt lat="43.61341" lon="4.08881">
        <ele>-5.727</ele>
        <time>2014-05-17T09:58:00Z</time>
      </trkpt>
      <trkpt lat="43.61336" lon="4.08903">
        <ele>-5.794</ele>
        <time>2014-05-17T09:58:13Z</time>
      </trkpt>
      <trkpt lat="43.61332" lon="4.08919">
        <ele>-6.574</ele>
        <time>2014-05-17T09:58:25Z</time>
      </trkpt>
      <trkpt lat="43.6133" lon="4.0894">
        <ele>-6.574</ele>
        <time>2014-05-17T09:58:37Z</time>
      </trkpt>
      <trkpt lat="43.61327" lon="4.08958">
        <ele>-7.417</ele>
        <time>2014-05-17T09:58:50Z</time>
      </trkpt>
      <trkpt lat="43.61322" lon="4.08973">
        <ele>-7.695</ele>
        <time>2014-05-17T09:58:58Z</time>
      </trkpt>
      <trkpt lat="43.61321" lon="4.08978">
        <ele>-7.862</ele>
        <time>2014-05-17T09:59:02Z</time>
      </trkpt>
      <trkpt lat="43.61322" lon="4.08988">
        <ele>-8.312</ele>
        <time>2014-05-17T09:59:09Z</time>
      </trkpt>
      <trkpt lat="43.61321" lon="4.08993">
        <ele>-8.384</ele>
        <time>2014-05-17T09:59:11Z</time>
      </trkpt>
      <trkpt lat="43.61318" lon="4.09008">
        <ele>-8.486</ele>
        <time>2014-05-17T09:59:18Z</time>
      </trkpt>
      <trkpt lat="43.61314" lon="4.09021">
        <ele>-8.507</ele>
        <time>2014-05-17T09:59:25Z</time>
      </trkpt>
      <trkpt lat="43.61311" lon="4.09038">
        <ele>-8.147</ele>
        <time>2014-05-17T09:59:36Z</time>
      </trkpt>
      <trkpt lat="43.61311" lon="4.09042">
        <ele>-8.004</ele>
        <time>2014-05-17T09:59:39Z</time>
      </trkpt>
      <trkpt lat="43.61304" lon="4.09067">
        <ele>-7.313</ele>
        <time>2014-05-17T09:59:55Z</time>
      </trkpt>
      <trkpt lat="43.61302" lon="4.09092">
        <ele>-6.54</ele>
        <time>2014-05-17T10:00:08Z</time>
      </trkpt>
      <trkpt lat="43.61298" lon="4.09109">
        <ele>-6.23</ele>
        <time>2014-05-17T10:00:19Z</time>
      </trkpt>
      <trkpt lat="43.61295" lon="4.09123">
        <ele>-5.834</ele>
        <time>2014-05-17T10:00:30Z</time>
      </trkpt>
      <trkpt lat="43.61297" lon="4.09139">
        <ele>-5.928</ele>
        <time>2014-05-17T10:00:41Z</time>
      </trkpt>
      <trkpt lat="43.61298" lon="4.09163">
        <ele>-4.834</ele>
        <time>2014-05-17T10:00:55Z</time>
      </trkpt>
      <trkpt lat="43.61298" lon="4.09178">
        <ele>-4.466</ele>
        <time>2014-05-17T10:01:03Z</time>
      </trkpt>
      <trkpt lat="43.61299" lon="4.09184">
        <ele>-4.062</ele>
        <time>2014-05-17T10:01:07Z</time>
      </trkpt>
      <trkpt lat="43.61299" lon="4.09196">
        <ele>-4.212</ele>
        <time>2014-05-17T10:01:14Z</time>
      </trkpt>
      <trkpt lat="43.613" lon="4.09207">
        <ele>-4.134</ele>
        <time>2014-05-17T10:01:21Z</time>
      </trkpt>
      <trkpt lat="43.61301" lon="4.09211">
        <ele>-4.005</ele>
        <time>2014-05-17T10:01:23Z</time>
      </trkpt>
      <trkpt lat="43.61299" lon="4.09226">
        <ele>-3.848</ele>
        <time>2014-05-17T10:01:32Z</time>
      </trkpt>
      <trkpt lat="43.61304" lon="4.09238">
        <ele>-1.638</ele>
        <time>2014-05-17T10:01:42Z</time>
      </trkpt>
      <trkpt lat="43.61303" lon="4.09245">
        <ele>-1.252</ele>
        <time>2014-05-17T10:01:59Z</time>
      </trkpt>
      <trkpt lat="43.61292" lon="4.09241">
        <ele>2.214</ele>
        <time>2014-05-17T10:03:13Z</time>
      </trkpt>
      <trkpt lat="43.61289" lon="4.09241">
        <ele>2.289</ele>
        <time>2014-05-17T10:03:35Z</time>
      </trkpt>
      <trkpt lat="43.61296" lon="4.09243">
        <ele>4.06</ele>
        <time>2014-05-17T10:04:18Z</time>
      </trkpt>
      <trkpt lat="43.61297" lon="4.09251">
        <ele>1.012</ele>
        <time>2014-05-17T10:07:14Z</time>
      </trkpt>
      <trkpt lat="43.61298" lon="4.09256">
        <ele>0.674</ele>
        <time>2014-05-17T10:07:21Z</time>
      </trkpt>
      <trkpt lat="43.61299" lon="4.09261">
        <ele>0.928</ele>
        <time>2014-05-17T10:07:29Z</time>
      </trkpt>
      <trkpt lat="43.61302" lon="4.09269">
        <ele>1.571</ele>
        <time>2014-05-17T10:07:43Z</time>
      </trkpt>
      <trkpt lat="43.61299" lon="4.09274">
        <ele>2.558</ele>
        <time>2014-05-17T10:08:03Z</time>
      </trkpt>
      <trkpt lat="43.61304" lon="4.09285">
        <ele>3.189</ele>
        <time>2014-05-17T10:08:17Z</time>
      </trkpt>
      <trkpt lat="43.61309" lon="4.09289">
        <ele>3.582</ele>
        <time>2014-05-17T10:08:26Z</time>
      </trkpt>
      <trkpt lat="43.61316" lon="4.09297">
        <ele>4.028</ele>
        <time>2014-05-17T10:08:37Z</time>
      </trkpt>
      <trkpt lat="43.61329" lon="4.09305">
        <ele>4.643</ele>
        <time>2014-05-17T10:08:50Z</time>
      </trkpt>
      <trkpt lat="43.6134" lon="4.09307">
        <ele>5.243</ele>
        <time>2014-05-17T10:09:02Z</time>
      </trkpt>
      <trkpt lat="43.6135" lon="4.09298">
        <ele>5.829</ele>
        <time>2014-05-17T10:09:16Z</time>
      </trkpt>
      <trkpt lat="43.61351" lon="4.09298">
        <ele>7.077</ele>
        <time>2014-05-17T10:09:39Z</time>
      </trkpt>
      <trkpt lat="43.61347" lon="4.09306">
        <ele>8.668</ele>
        <time>2014-05-17T10:10:09Z</time>
      </trkpt>
      <trkpt lat="43.61353" lon="4.09301">
        <ele>-2.84</ele>
        <time>2014-05-17T10:43:29Z</time>
      </trkpt>
      <trkpt lat="43.61359" lon="4.09307">
        <ele>-6.793</ele>
        <time>2014-05-17T10:43:55Z</time>
      </trkpt>
      <trkpt lat="43.6136" lon="4.09306">
        <ele>-9.304</ele>
        <time>2014-05-17T10:44:10Z</time>
      </trkpt>
      <trkpt lat="43.61356" lon="4.09305">
        <ele>-11.016</ele>
        <time>2014-05-17T10:44:29Z</time>
      </trkpt>
      <trkpt lat="43.6135" lon="4.09306">
        <ele>-12.718</ele>
        <time>2014-05-17T10:44:59Z</time>
      </trkpt>
      <trkpt lat="43.61351" lon="4.09301">
        <ele>-13.4</ele>
        <time>2014-05-17T10:45:49Z</time>
      </trkpt>
      <trkpt lat="43.61356" lon="4.09299">
        <ele>-9.353</ele>
        <time>2014-05-17T10:46:56Z</time>
      </trkpt>
      <trkpt lat="43.61355" lon="4.09303">
        <ele>-6.386</ele>
        <time>2014-05-17T10:47:18Z</time>
      </trkpt>
      <trkpt lat="43.61354" lon="4.09307">
        <ele>-2.576</ele>
        <time>2014-05-17T10:47:55Z</time>
      </trkpt>
      <trkpt lat="43.61352" lon="4.09304">
        <ele>2.806</ele>
        <time>2014-05-17T10:48:58Z</time>
      </trkpt>
      <trkpt lat="43.61351" lon="4.0931">
        <ele>4.047</ele>
        <time>2014-05-17T10:50:18Z</time>
      </trkpt>
      <trkpt lat="43.61348" lon="4.09312">
        <ele>2.94</ele>
        <time>2014-05-17T10:50:31Z</time>
      </trkpt>
      <trkpt lat="43.61342" lon="4.09312">
        <ele>2.622</ele>
        <time>2014-05-17T10:50:38Z</time>
      </trkpt>
      <trkpt lat="43.61337" lon="4.09308">
        <ele>2.379</ele>
        <time>2014-05-17T10:50:50Z</time>
      </trkpt>
      <trkpt lat="43.61331" lon="4.09303">
        <ele>2.159</ele>
        <time>2014-05-17T10:51:01Z</time>
      </trkpt>
      <trkpt lat="43.61313" lon="4.09298">
        <ele>0.716</ele>
        <time>2014-05-17T10:51:17Z</time>
      </trkpt>
      <trkpt lat="43.61307" lon="4.09287">
        <ele>0.487</ele>
        <time>2014-05-17T10:51:32Z</time>
      </trkpt>
      <trkpt lat="43.61303" lon="4.09277">
        <ele>0.022</ele>
        <time>2014-05-17T10:51:45Z</time>
      </trkpt>
      <trkpt lat="43.61306" lon="4.09264">
        <ele>-0.633</ele>
        <time>2014-05-17T10:51:57Z</time>
      </trkpt>
      <trkpt lat="43.61301" lon="4.09253">
        <ele>-2.594</ele>
        <time>2014-05-17T10:52:10Z</time>
      </trkpt>
      <trkpt lat="43.61296" lon="4.09236">
        <ele>-5.329</ele>
        <time>2014-05-17T10:52:23Z</time>
      </trkpt>
      <trkpt lat="43.61286" lon="4.09218">
        <ele>-6.248</ele>
        <time>2014-05-17T10:52:39Z</time>
      </trkpt>
      <trkpt lat="43.61283" lon="4.09209">
        <ele>-7.257</ele>
        <time>2014-05-17T10:52:45Z</time>
      </trkpt>
      <trkpt lat="43.6128" lon="4.09192">
        <ele>-7.194</ele>
        <time>2014-05-17T10:52:56Z</time>
      </trkpt>
      <trkpt lat="43.61271" lon="4.09188">
        <ele>-7.985</ele>
        <time>2014-05-17T10:53:04Z</time>
      </trkpt>
      <trkpt lat="43.6127" lon="4.09188">
        <ele>-7.813</ele>
        <time>2014-05-17T10:53:05Z</time>
      </trkpt>
      <trkpt lat="43.61264" lon="4.09195">
        <ele>-8.824</ele>
        <time>2014-05-17T10:53:15Z</time>
      </trkpt>
      <trkpt lat="43.61262" lon="4.09209">
        <ele>-8.945</ele>
        <time>2014-05-17T10:53:27Z</time>
      </trkpt>
      <trkpt lat="43.61262" lon="4.0921">
        <ele>-8.901</ele>
        <time>2014-05-17T10:53:28Z</time>
      </trkpt>
      <trkpt lat="43.61259" lon="4.0923">
        <ele>-8.932</ele>
        <time>2014-05-17T10:53:39Z</time>
      </trkpt>
      <trkpt lat="43.61256" lon="4.09242">
        <ele>-8.74</ele>
        <time>2014-05-17T10:53:48Z</time>
      </trkpt>
      <trkpt lat="43.61254" lon="4.09248">
        <ele>-6.018</ele>
        <time>2014-05-17T10:54:01Z</time>
      </trkpt>
      <trkpt lat="43.61256" lon="4.09254">
        <ele>-2.464</ele>
        <time>2014-05-17T10:54:22Z</time>
      </trkpt>
      <trkpt lat="43.61254" lon="4.09257">
        <ele>0.499</ele>
        <time>2014-05-17T10:54:42Z</time>
      </trkpt>
      <trkpt lat="43.61255" lon="4.09256">
        <ele>1.369</ele>
        <time>2014-05-17T10:54:59Z</time>
      </trkpt>
      <trkpt lat="43.61256" lon="4.09246">
        <ele>0.179</ele>
        <time>2014-05-17T10:55:16Z</time>
      </trkpt>
      <trkpt lat="43.61257" lon="4.09248">
        <ele>1.463</ele>
        <time>2014-05-17T10:55:46Z</time>
      </trkpt>
      <trkpt lat="43.6126" lon="4.09234">
        <ele>0.129</ele>
        <time>2014-05-17T10:56:33Z</time>
      </trkpt>
      <trkpt lat="43.61262" lon="4.09232">
        <ele>-0.244</ele>
        <time>2014-05-17T10:56:35Z</time>
      </trkpt>
      <trkpt lat="43.61269" lon="4.0922">
        <ele>-2.853</ele>
        <time>2014-05-17T10:56:45Z</time>
      </trkpt>
      <trkpt lat="43.6127" lon="4.09207">
        <ele>-5.557</ele>
        <time>2014-05-17T10:56:54Z</time>
      </trkpt>
      <trkpt lat="43.61269" lon="4.0919">
        <ele>-6.41</ele>
        <time>2014-05-17T10:57:03Z</time>
      </trkpt>
      <trkpt lat="43.61271" lon="4.09185">
        <ele>-5.753</ele>
        <time>2014-05-17T10:57:11Z</time>
      </trkpt>
      <trkpt lat="43.6127" lon="4.09181">
        <ele>-6.801</ele>
        <time>2014-05-17T10:57:37Z</time>
      </trkpt>
      <trkpt lat="43.61272" lon="4.0918">
        <ele>-7.653</ele>
        <time>2014-05-17T10:57:56Z</time>
      </trkpt>
      <trkpt lat="43.6128" lon="4.09195">
        <ele>-6.86</ele>
        <time>2014-05-17T10:58:14Z</time>
      </trkpt>
      <trkpt lat="43.61283" lon="4.09211">
        <ele>-5.841</ele>
        <time>2014-05-17T10:58:29Z</time>
      </trkpt>
      <trkpt lat="43.61289" lon="4.09224">
        <ele>-5.471</ele>
        <time>2014-05-17T10:58:44Z</time>
      </trkpt>
      <trkpt lat="43.61294" lon="4.09238">
        <ele>-5.242</ele>
        <time>2014-05-17T10:58:55Z</time>
      </trkpt>
      <trkpt lat="43.61299" lon="4.0925">
        <ele>-4.066</ele>
        <time>2014-05-17T10:59:12Z</time>
      </trkpt>
      <trkpt lat="43.613" lon="4.09262">
        <ele>-3.535</ele>
        <time>2014-05-17T10:59:29Z</time>
      </trkpt>
      <trkpt lat="43.613" lon="4.09278">
        <ele>-3.477</ele>
        <time>2014-05-17T10:59:46Z</time>
      </trkpt>
      <trkpt lat="43.61297" lon="4.09283">
        <ele>-3.343</ele>
        <time>2014-05-17T10:59:49Z</time>
      </trkpt>
      <trkpt lat="43.61291" lon="4.09291">
        <ele>-2.844</ele>
        <time>2014-05-17T10:59:55Z</time>
      </trkpt>
      <trkpt lat="43.61284" lon="4.09297">
        <ele>-1.987</ele>
        <time>2014-05-17T11:00:03Z</time>
      </trkpt>
      <trkpt lat="43.61281" lon="4.09297">
        <ele>-1.929</ele>
        <time>2014-05-17T11:00:06Z</time>
      </trkpt>
      <trkpt lat="43.61266" lon="4.09299">
        <ele>-1.29</ele>
        <time>2014-05-17T11:00:21Z</time>
      </trkpt>
      <trkpt lat="43.61255" lon="4.09298">
        <ele>-2.623</ele>
        <time>2014-05-17T11:00:34Z</time>
      </trkpt>
      <trkpt lat="43.61238" lon="4.09302">
        <ele>-2.356</ele>
        <time>2014-05-17T11:00:49Z</time>
      </trkpt>
      <trkpt lat="43.61235" lon="4.09303">
        <ele>-2.412</ele>
        <time>2014-05-17T11:00:52Z</time>
      </trkpt>
      <trkpt lat="43.6123" lon="4.0931">
        <ele>-2.279</ele>
        <time>2014-05-17T11:00:56Z</time>
      </trkpt>
      <trkpt lat="43.6123" lon="4.09325">
        <ele>-1.762</ele>
        <time>2014-05-17T11:01:05Z</time>
      </trkpt>
      <trkpt lat="43.61229" lon="4.09343">
        <ele>-2.544</ele>
        <time>2014-05-17T11:01:16Z</time>
      </trkpt>
      <trkpt lat="43.61229" lon="4.09357">
        <ele>-2.789</ele>
        <time>2014-05-17T11:01:25Z</time>
      </trkpt>
      <trkpt lat="43.6123" lon="4.09365">
        <ele>-2.571</ele>
        <time>2014-05-17T11:01:30Z</time>
      </trkpt>
      <trkpt lat="43.61231" lon="4.09369">
        <ele>-2.027</ele>
        <time>2014-05-17T11:01:33Z</time>
      </trkpt>
      <trkpt lat="43.61233" lon="4.0938">
        <ele>-1.528</ele>
        <time>2014-05-17T11:01:40Z</time>
      </trkpt>
      <trkpt lat="43.61233" lon="4.09383">
        <ele>-2.024</ele>
        <time>2014-05-17T11:01:42Z</time>
      </trkpt>
      <trkpt lat="43.61232" lon="4.09387">
        <ele>-2.15</ele>
        <time>2014-05-17T11:01:44Z</time>
      </trkpt>
      <trkpt lat="43.61233" lon="4.09392">
        <ele>-2</ele>
        <time>2014-05-17T11:01:47Z</time>
      </trkpt>
      <trkpt lat="43.61233" lon="4.0941">
        <ele>-0.11</ele>
        <time>2014-05-17T11:01:57Z</time>
      </trkpt>
      <trkpt lat="43.61233" lon="4.09411">
        <ele>-0.436</ele>
        <time>2014-05-17T11:01:58Z</time>
      </trkpt>
      <trkpt lat="43.61234" lon="4.0942">
        <ele>-1.025</ele>
        <time>2014-05-17T11:02:05Z</time>
      </trkpt>
      <trkpt lat="43.61235" lon="4.09437">
        <ele>-2.573</ele>
        <time>2014-05-17T11:02:15Z</time>
      </trkpt>
      <trkpt lat="43.61236" lon="4.09441">
        <ele>-3.563</ele>
        <time>2014-05-17T11:02:18Z</time>
      </trkpt>
      <trkpt lat="43.61237" lon="4.09458">
        <ele>-5.234</ele>
        <time>2014-05-17T11:02:28Z</time>
      </trkpt>
      <trkpt lat="43.61237" lon="4.09464">
        <ele>-4.453</ele>
        <time>2014-05-17T11:02:32Z</time>
      </trkpt>
      <trkpt lat="43.61238" lon="4.09469">
        <ele>-4.926</ele>
        <time>2014-05-17T11:02:35Z</time>
      </trkpt>
      <trkpt lat="43.61239" lon="4.09484">
        <ele>-4.89</ele>
        <time>2014-05-17T11:02:44Z</time>
      </trkpt>
      <trkpt lat="43.61241" lon="4.09504">
        <ele>-4.489</ele>
        <time>2014-05-17T11:02:55Z</time>
      </trkpt>
      <trkpt lat="43.61242" lon="4.0951">
        <ele>-4.224</ele>
        <time>2014-05-17T11:03:00Z</time>
      </trkpt>
      <trkpt lat="43.61243" lon="4.09518">
        <ele>-4.352</ele>
        <time>2014-05-17T11:03:06Z</time>
      </trkpt>
      <trkpt lat="43.61242" lon="4.09534">
        <ele>-5.932</ele>
        <time>2014-05-17T11:03:16Z</time>
      </trkpt>
      <trkpt lat="43.61243" lon="4.09545">
        <ele>-4.859</ele>
        <time>2014-05-17T11:03:23Z</time>
      </trkpt>
      <trkpt lat="43.61244" lon="4.09559">
        <ele>-5.542</ele>
        <time>2014-05-17T11:03:31Z</time>
      </trkpt>
      <trkpt lat="43.61246" lon="4.09578">
        <ele>-5.742</ele>
        <time>2014-05-17T11:03:42Z</time>
      </trkpt>
      <trkpt lat="43.61245" lon="4.0958">
        <ele>-5.727</ele>
        <time>2014-05-17T11:03:43Z</time>
      </trkpt>
      <trkpt lat="43.61246" lon="4.09597">
        <ele>-6.969</ele>
        <time>2014-05-17T11:03:53Z</time>
      </trkpt>
      <trkpt lat="43.61247" lon="4.0961">
        <ele>-6.011</ele>
        <time>2014-05-17T11:04:02Z</time>
      </trkpt>
      <trkpt lat="43.61247" lon="4.09627">
        <ele>-7.201</ele>
        <time>2014-05-17T11:04:11Z</time>
      </trkpt>
      <trkpt lat="43.61248" lon="4.09641">
        <ele>-6.677</ele>
        <time>2014-05-17T11:04:21Z</time>
      </trkpt>
      <trkpt lat="43.61249" lon="4.09645">
        <ele>-6.42</ele>
        <time>2014-05-17T11:04:24Z</time>
      </trkpt>
      <trkpt lat="43.61248" lon="4.09655">
        <ele>-6.505</ele>
        <time>2014-05-17T11:04:29Z</time>
      </trkpt>
      <trkpt lat="43.61248" lon="4.09661">
        <ele>-6.139</ele>
        <time>2014-05-17T11:04:33Z</time>
      </trkpt>
      <trkpt lat="43.61249" lon="4.09672">
        <ele>-8.136</ele>
        <time>2014-05-17T11:04:39Z</time>
      </trkpt>
      <trkpt lat="43.61252" lon="4.09686">
        <ele>-10.848</ele>
        <time>2014-05-17T11:04:48Z</time>
      </trkpt>
      <trkpt lat="43.61253" lon="4.09688">
        <ele>-10.74</ele>
        <time>2014-05-17T11:04:49Z</time>
      </trkpt>
      <trkpt lat="43.61255" lon="4.09709">
        <ele>-11.003</ele>
        <time>2014-05-17T11:05:02Z</time>
      </trkpt>
      <trkpt lat="43.61255" lon="4.09715">
        <ele>-10.952</ele>
        <time>2014-05-17T11:05:06Z</time>
      </trkpt>
      <trkpt lat="43.61257" lon="4.09725">
        <ele>-10.178</ele>
        <time>2014-05-17T11:05:11Z</time>
      </trkpt>
      <trkpt lat="43.61259" lon="4.09735">
        <ele>-8.76</ele>
        <time>2014-05-17T11:05:17Z</time>
      </trkpt>
      <trkpt lat="43.61258" lon="4.0975">
        <ele>-8.523</ele>
        <time>2014-05-17T11:05:26Z</time>
      </trkpt>
      <trkpt lat="43.6126" lon="4.09762">
        <ele>-7.887</ele>
        <time>2014-05-17T11:05:34Z</time>
      </trkpt>
      <trkpt lat="43.6126" lon="4.09767">
        <ele>-7.762</ele>
        <time>2014-05-17T11:05:37Z</time>
      </trkpt>
      <trkpt lat="43.6126" lon="4.09786">
        <ele>-7.304</ele>
        <time>2014-05-17T11:05:47Z</time>
      </trkpt>
      <trkpt lat="43.61262" lon="4.09797">
        <ele>-6.789</ele>
        <time>2014-05-17T11:05:56Z</time>
      </trkpt>
      <trkpt lat="43.61268" lon="4.098">
        <ele>-6.779</ele>
        <time>2014-05-17T11:06:06Z</time>
      </trkpt>
      <trkpt lat="43.61284" lon="4.09798">
        <ele>-7.872</ele>
        <time>2014-05-17T11:06:18Z</time>
      </trkpt>
      <trkpt lat="43.61294" lon="4.09798">
        <ele>-8.454</ele>
        <time>2014-05-17T11:06:25Z</time>
      </trkpt>
      <trkpt lat="43.61308" lon="4.09793">
        <ele>-15.057</ele>
        <time>2014-05-17T11:06:34Z</time>
      </trkpt>
      <trkpt lat="43.61316" lon="4.09793">
        <ele>-17.369</ele>
        <time>2014-05-17T11:06:41Z</time>
      </trkpt>
      <trkpt lat="43.61324" lon="4.09794">
        <ele>-19.097</ele>
        <time>2014-05-17T11:06:49Z</time>
      </trkpt>
      <trkpt lat="43.61338" lon="4.09792">
        <ele>-16.925</ele>
        <time>2014-05-17T11:07:01Z</time>
      </trkpt>
      <trkpt lat="43.61356" lon="4.09793">
        <ele>-15.828</ele>
        <time>2014-05-17T11:07:15Z</time>
      </trkpt>
      <trkpt lat="43.61364" lon="4.09789">
        <ele>-15.207</ele>
        <time>2014-05-17T11:07:24Z</time>
      </trkpt>
      <trkpt lat="43.61375" lon="4.09789">
        <ele>-17.173</ele>
        <time>2014-05-17T11:07:32Z</time>
      </trkpt>
      <trkpt lat="43.61387" lon="4.09788">
        <ele>-13.003</ele>
        <time>2014-05-17T11:07:41Z</time>
      </trkpt>
      <trkpt lat="43.61394" lon="4.09788">
        <ele>-16.666</ele>
        <time>2014-05-17T11:07:46Z</time>
      </trkpt>
      <trkpt lat="43.61402" lon="4.09783">
        <ele>-17.827</ele>
        <time>2014-05-17T11:07:55Z</time>
      </trkpt>
      <trkpt lat="43.61411" lon="4.09784">
        <ele>-17.305</ele>
        <time>2014-05-17T11:08:04Z</time>
      </trkpt>
      <trkpt lat="43.61412" lon="4.09784">
        <ele>-17.564</ele>
        <time>2014-05-17T11:08:05Z</time>
      </trkpt>
      <trkpt lat="43.61424" lon="4.09784">
        <ele>-17.764</ele>
        <time>2014-05-17T11:08:12Z</time>
      </trkpt>
      <trkpt lat="43.61435" lon="4.09783">
        <ele>-16.802</ele>
        <time>2014-05-17T11:08:20Z</time>
      </trkpt>
      <trkpt lat="43.61444" lon="4.09782">
        <ele>-15.78</ele>
        <time>2014-05-17T11:08:28Z</time>
      </trkpt>
      <trkpt lat="43.61459" lon="4.09785">
        <ele>-15.266</ele>
        <time>2014-05-17T11:08:40Z</time>
      </trkpt>
      <trkpt lat="43.61466" lon="4.09783">
        <ele>-12.581</ele>
        <time>2014-05-17T11:08:46Z</time>
      </trkpt>
      <trkpt lat="43.61474" lon="4.09783">
        <ele>-10.359</ele>
        <time>2014-05-17T11:08:53Z</time>
      </trkpt>
      <trkpt lat="43.61483" lon="4.09783">
        <ele>-4.068</ele>
        <time>2014-05-17T11:09:01Z</time>
      </trkpt>
      <trkpt lat="43.6149" lon="4.09786">
        <ele>-6.1</ele>
        <time>2014-05-17T11:09:08Z</time>
      </trkpt>
      <trkpt lat="43.61503" lon="4.09782">
        <ele>-2.326</ele>
        <time>2014-05-17T11:09:16Z</time>
      </trkpt>
      <trkpt lat="43.6151" lon="4.09783">
        <ele>-0.014</ele>
        <time>2014-05-17T11:09:24Z</time>
      </trkpt>
      <trkpt lat="43.61516" lon="4.09781">
        <ele>-1.448</ele>
        <time>2014-05-17T11:09:29Z</time>
      </trkpt>
      <trkpt lat="43.61517" lon="4.09781">
        <ele>-1.726</ele>
        <time>2014-05-17T11:09:30Z</time>
      </trkpt>
      <trkpt lat="43.61527" lon="4.09779">
        <ele>-6.93</ele>
        <time>2014-05-17T11:09:36Z</time>
      </trkpt>
      <trkpt lat="43.61534" lon="4.09782">
        <ele>-8.886</ele>
        <time>2014-05-17T11:09:43Z</time>
      </trkpt>
      <trkpt lat="43.61542" lon="4.0978">
        <ele>-8.61</ele>
        <time>2014-05-17T11:09:49Z</time>
      </trkpt>
      <trkpt lat="43.61553" lon="4.0978">
        <ele>-9.999</ele>
        <time>2014-05-17T11:10:00Z</time>
      </trkpt>
      <trkpt lat="43.61566" lon="4.09776">
        <ele>-12.511</ele>
        <time>2014-05-17T11:10:11Z</time>
      </trkpt>
      <trkpt lat="43.61572" lon="4.09777">
        <ele>-12.887</ele>
        <time>2014-05-17T11:10:18Z</time>
      </trkpt>
      <trkpt lat="43.61587" lon="4.09775">
        <ele>-12.118</ele>
        <time>2014-05-17T11:10:28Z</time>
      </trkpt>
      <trkpt lat="43.61595" lon="4.09777">
        <ele>-9.053</ele>
        <time>2014-05-17T11:10:36Z</time>
      </trkpt>
      <trkpt lat="43.61605" lon="4.09776">
        <ele>-7.327</ele>
        <time>2014-05-17T11:10:46Z</time>
      </trkpt>
      <trkpt lat="43.61617" lon="4.09773">
        <ele>-12.945</ele>
        <time>2014-05-17T11:10:54Z</time>
      </trkpt>
      <trkpt lat="43.6163" lon="4.09773">
        <ele>-11.27</ele>
        <time>2014-05-17T11:11:02Z</time>
      </trkpt>
      <trkpt lat="43.61633" lon="4.09772">
        <ele>-8.896</ele>
        <time>2014-05-17T11:11:07Z</time>
      </trkpt>
      <trkpt lat="43.61639" lon="4.09773">
        <ele>-10.401</ele>
        <time>2014-05-17T11:11:14Z</time>
      </trkpt>
      <trkpt lat="43.61642" lon="4.09774">
        <ele>-10.488</ele>
        <time>2014-05-17T11:11:22Z</time>
      </trkpt>
      <trkpt lat="43.61646" lon="4.09776">
        <ele>-11.846</ele>
        <time>2014-05-17T11:11:32Z</time>
      </trkpt>
      <trkpt lat="43.61658" lon="4.09772">
        <ele>-13.039</ele>
        <time>2014-05-17T11:11:39Z</time>
      </trkpt>
      <trkpt lat="43.61675" lon="4.09767">
        <ele>-11.456</ele>
        <time>2014-05-17T11:11:48Z</time>
      </trkpt>
      <trkpt lat="43.61683" lon="4.09768">
        <ele>-7.129</ele>
        <time>2014-05-17T11:11:53Z</time>
      </trkpt>
      <trkpt lat="43.61694" lon="4.09769">
        <ele>-5.928</ele>
        <time>2014-05-17T11:12:00Z</time>
      </trkpt>
      <trkpt lat="43.61703" lon="4.0977">
        <ele>-5.139</ele>
        <time>2014-05-17T11:12:07Z</time>
      </trkpt>
      <trkpt lat="43.6171" lon="4.09769">
        <ele>-3.813</ele>
        <time>2014-05-17T11:12:13Z</time>
      </trkpt>
      <trkpt lat="43.61717" lon="4.09773">
        <ele>-0.555</ele>
        <time>2014-05-17T11:12:20Z</time>
      </trkpt>
      <trkpt lat="43.61729" lon="4.0977">
        <ele>-1.234</ele>
        <time>2014-05-17T11:12:31Z</time>
      </trkpt>
      <trkpt lat="43.61741" lon="4.09767">
        <ele>-2.452</ele>
        <time>2014-05-17T11:12:40Z</time>
      </trkpt>
      <trkpt lat="43.61759" lon="4.09764">
        <ele>-5.391</ele>
        <time>2014-05-17T11:12:54Z</time>
      </trkpt>
      <trkpt lat="43.61771" lon="4.09763">
        <ele>-7.755</ele>
        <time>2014-05-17T11:13:05Z</time>
      </trkpt>
      <trkpt lat="43.61784" lon="4.09763">
        <ele>-7.641</ele>
        <time>2014-05-17T11:13:19Z</time>
      </trkpt>
      <trkpt lat="43.61789" lon="4.09762">
        <ele>-7.592</ele>
        <time>2014-05-17T11:13:22Z</time>
      </trkpt>
      <trkpt lat="43.61793" lon="4.0976">
        <ele>-7.717</ele>
        <time>2014-05-17T11:13:24Z</time>
      </trkpt>
      <trkpt lat="43.618" lon="4.0976">
        <ele>-5.562</ele>
        <time>2014-05-17T11:13:31Z</time>
      </trkpt>
      <trkpt lat="43.61801" lon="4.09761">
        <ele>-4.856</ele>
        <time>2014-05-17T11:13:32Z</time>
      </trkpt>
      <trkpt lat="43.61813" lon="4.0976">
        <ele>-5.895</ele>
        <time>2014-05-17T11:13:43Z</time>
      </trkpt>
      <trkpt lat="43.61821" lon="4.09758">
        <ele>-6.113</ele>
        <time>2014-05-17T11:13:49Z</time>
      </trkpt>
      <trkpt lat="43.61828" lon="4.09758">
        <ele>-6.272</ele>
        <time>2014-05-17T11:13:55Z</time>
      </trkpt>
      <trkpt lat="43.6184" lon="4.09755">
        <ele>-7.599</ele>
        <time>2014-05-17T11:14:04Z</time>
      </trkpt>
      <trkpt lat="43.61848" lon="4.09755">
        <ele>-6.156</ele>
        <time>2014-05-17T11:14:12Z</time>
      </trkpt>
      <trkpt lat="43.61863" lon="4.09753">
        <ele>-4.032</ele>
        <time>2014-05-17T11:14:20Z</time>
      </trkpt>
      <trkpt lat="43.6187" lon="4.0975">
        <ele>-6.531</ele>
        <time>2014-05-17T11:14:27Z</time>
      </trkpt>
      <trkpt lat="43.61882" lon="4.0975">
        <ele>-7.357</ele>
        <time>2014-05-17T11:14:35Z</time>
      </trkpt>
      <trkpt lat="43.61891" lon="4.09751">
        <ele>-8.701</ele>
        <time>2014-05-17T11:14:42Z</time>
      </trkpt>
      <trkpt lat="43.619" lon="4.09751">
        <ele>-10.475</ele>
        <time>2014-05-17T11:14:48Z</time>
      </trkpt>
      <trkpt lat="43.61905" lon="4.0975">
        <ele>-12.053</ele>
        <time>2014-05-17T11:14:52Z</time>
      </trkpt>
      <trkpt lat="43.61916" lon="4.0975">
        <ele>-10.877</ele>
        <time>2014-05-17T11:15:02Z</time>
      </trkpt>
      <trkpt lat="43.61929" lon="4.09748">
        <ele>-10.924</ele>
        <time>2014-05-17T11:15:11Z</time>
      </trkpt>
      <trkpt lat="43.61935" lon="4.09746">
        <ele>-9.664</ele>
        <time>2014-05-17T11:15:18Z</time>
      </trkpt>
      <trkpt lat="43.6194" lon="4.09748">
        <ele>-9.37</ele>
        <time>2014-05-17T11:15:25Z</time>
      </trkpt>
      <trkpt lat="43.61949" lon="4.09744">
        <ele>-8.592</ele>
        <time>2014-05-17T11:15:34Z</time>
      </trkpt>
      <trkpt lat="43.61957" lon="4.09743">
        <ele>-9.677</ele>
        <time>2014-05-17T11:15:42Z</time>
      </trkpt>
      <trkpt lat="43.61967" lon="4.09738">
        <ele>-10.906</ele>
        <time>2014-05-17T11:15:53Z</time>
      </trkpt>
      <trkpt lat="43.61983" lon="4.09731">
        <ele>-11.236</ele>
        <time>2014-05-17T11:16:05Z</time>
      </trkpt>
      <trkpt lat="43.62005" lon="4.09723">
        <ele>-11.018</ele>
        <time>2014-05-17T11:16:22Z</time>
      </trkpt>
      <trkpt lat="43.62011" lon="4.09721">
        <ele>-11.611</ele>
        <time>2014-05-17T11:16:28Z</time>
      </trkpt>
      <trkpt lat="43.62013" lon="4.09719">
        <ele>-12.003</ele>
        <time>2014-05-17T11:16:31Z</time>
      </trkpt>
      <trkpt lat="43.62017" lon="4.09718">
        <ele>-12.311</ele>
        <time>2014-05-17T11:16:35Z</time>
      </trkpt>
      <trkpt lat="43.62028" lon="4.09716">
        <ele>-12.094</ele>
        <time>2014-05-17T11:16:42Z</time>
      </trkpt>
      <trkpt lat="43.6204" lon="4.0971">
        <ele>-13.164</ele>
        <time>2014-05-17T11:16:54Z</time>
      </trkpt>
      <trkpt lat="43.62054" lon="4.09707">
        <ele>-12.789</ele>
        <time>2014-05-17T11:17:05Z</time>
      </trkpt>
      <trkpt lat="43.62064" lon="4.09704">
        <ele>-12.99</ele>
        <time>2014-05-17T11:17:13Z</time>
      </trkpt>
      <trkpt lat="43.62071" lon="4.09698">
        <ele>-13.403</ele>
        <time>2014-05-17T11:17:21Z</time>
      </trkpt>
      <trkpt lat="43.62075" lon="4.09698">
        <ele>-14.462</ele>
        <time>2014-05-17T11:17:37Z</time>
      </trkpt>
      <trkpt lat="43.62087" lon="4.097">
        <ele>-15.198</ele>
        <time>2014-05-17T11:17:49Z</time>
      </trkpt>
      <trkpt lat="43.6209" lon="4.09699">
        <ele>-15.388</ele>
        <time>2014-05-17T11:17:52Z</time>
      </trkpt>
      <trkpt lat="43.62103" lon="4.09691">
        <ele>-16.711</ele>
        <time>2014-05-17T11:18:05Z</time>
      </trkpt>
      <trkpt lat="43.62116" lon="4.09688">
        <ele>-15.979</ele>
        <time>2014-05-17T11:18:18Z</time>
      </trkpt>
      <trkpt lat="43.62127" lon="4.09681">
        <ele>-16.208</ele>
        <time>2014-05-17T11:18:31Z</time>
      </trkpt>
      <trkpt lat="43.62141" lon="4.09675">
        <ele>-15.966</ele>
        <time>2014-05-17T11:18:42Z</time>
      </trkpt>
      <trkpt lat="43.62149" lon="4.09672">
        <ele>-15.839</ele>
        <time>2014-05-17T11:18:50Z</time>
      </trkpt>
      <trkpt lat="43.62167" lon="4.09671">
        <ele>-14.366</ele>
        <time>2014-05-17T11:19:02Z</time>
      </trkpt>
      <trkpt lat="43.62183" lon="4.09665">
        <ele>-14.407</ele>
        <time>2014-05-17T11:19:15Z</time>
      </trkpt>
      <trkpt lat="43.62195" lon="4.0966">
        <ele>-13.364</ele>
        <time>2014-05-17T11:19:24Z</time>
      </trkpt>
      <trkpt lat="43.62202" lon="4.09658">
        <ele>-10.976</ele>
        <time>2014-05-17T11:19:32Z</time>
      </trkpt>
      <trkpt lat="43.62218" lon="4.09651">
        <ele>-11.198</ele>
        <time>2014-05-17T11:19:47Z</time>
      </trkpt>
      <trkpt lat="43.62226" lon="4.0965">
        <ele>-11.401</ele>
        <time>2014-05-17T11:19:56Z</time>
      </trkpt>
      <trkpt lat="43.62234" lon="4.09644">
        <ele>-11.415</ele>
        <time>2014-05-17T11:20:02Z</time>
      </trkpt>
      <trkpt lat="43.62244" lon="4.09639">
        <ele>-11.569</ele>
        <time>2014-05-17T11:20:12Z</time>
      </trkpt>
      <trkpt lat="43.62255" lon="4.09635">
        <ele>-12.6</ele>
        <time>2014-05-17T11:20:19Z</time>
      </trkpt>
      <trkpt lat="43.62261" lon="4.09635">
        <ele>-11.97</ele>
        <time>2014-05-17T11:20:24Z</time>
      </trkpt>
      <trkpt lat="43.62271" lon="4.09631">
        <ele>-11.778</ele>
        <time>2014-05-17T11:20:32Z</time>
      </trkpt>
      <trkpt lat="43.62283" lon="4.09628">
        <ele>-10.053</ele>
        <time>2014-05-17T11:20:42Z</time>
      </trkpt>
      <trkpt lat="43.62288" lon="4.09626">
        <ele>-9.016</ele>
        <time>2014-05-17T11:20:45Z</time>
      </trkpt>
      <trkpt lat="43.62298" lon="4.09625">
        <ele>-9.921</ele>
        <time>2014-05-17T11:20:53Z</time>
      </trkpt>
      <trkpt lat="43.62304" lon="4.09624">
        <ele>-10.367</ele>
        <time>2014-05-17T11:20:59Z</time>
      </trkpt>
      <trkpt lat="43.62315" lon="4.0962">
        <ele>-12.021</ele>
        <time>2014-05-17T11:21:09Z</time>
      </trkpt>
      <trkpt lat="43.62324" lon="4.09616">
        <ele>-12.085</ele>
        <time>2014-05-17T11:21:17Z</time>
      </trkpt>
      <trkpt lat="43.62335" lon="4.09612">
        <ele>-11.366</ele>
        <time>2014-05-17T11:21:25Z</time>
      </trkpt>
      <trkpt lat="43.62343" lon="4.09607">
        <ele>-10.7</ele>
        <time>2014-05-17T11:21:33Z</time>
      </trkpt>
      <trkpt lat="43.62346" lon="4.09607">
        <ele>-10.662</ele>
        <time>2014-05-17T11:21:36Z</time>
      </trkpt>
      <trkpt lat="43.62351" lon="4.09606">
        <ele>-9.359</ele>
        <time>2014-05-17T11:21:40Z</time>
      </trkpt>
      <trkpt lat="43.62359" lon="4.09603">
        <ele>-5.383</ele>
        <time>2014-05-17T11:21:47Z</time>
      </trkpt>
      <trkpt lat="43.62371" lon="4.09601">
        <ele>-4.09</ele>
        <time>2014-05-17T11:21:57Z</time>
      </trkpt>
      <trkpt lat="43.62376" lon="4.09598">
        <ele>-4.753</ele>
        <time>2014-05-17T11:22:03Z</time>
      </trkpt>
      <trkpt lat="43.62386" lon="4.09595">
        <ele>-5.066</ele>
        <time>2014-05-17T11:22:12Z</time>
      </trkpt>
      <trkpt lat="43.6239" lon="4.09595">
        <ele>-5.522</ele>
        <time>2014-05-17T11:22:15Z</time>
      </trkpt>
      <trkpt lat="43.62398" lon="4.09594">
        <ele>-9.98</ele>
        <time>2014-05-17T11:22:21Z</time>
      </trkpt>
      <trkpt lat="43.62408" lon="4.0959">
        <ele>-10.623</ele>
        <time>2014-05-17T11:22:29Z</time>
      </trkpt>
      <trkpt lat="43.62411" lon="4.09585">
        <ele>-11.169</ele>
        <time>2014-05-17T11:22:33Z</time>
      </trkpt>
      <trkpt lat="43.62415" lon="4.09584">
        <ele>-11.675</ele>
        <time>2014-05-17T11:22:36Z</time>
      </trkpt>
      <trkpt lat="43.62418" lon="4.09581">
        <ele>-12.389</ele>
        <time>2014-05-17T11:22:38Z</time>
      </trkpt>
      <trkpt lat="43.6243" lon="4.09581">
        <ele>-11.043</ele>
        <time>2014-05-17T11:22:48Z</time>
      </trkpt>
      <trkpt lat="43.62431" lon="4.09573">
        <ele>-9.554</ele>
        <time>2014-05-17T11:22:57Z</time>
      </trkpt>
      <trkpt lat="43.62434" lon="4.09574">
        <ele>-8.721</ele>
        <time>2014-05-17T11:23:06Z</time>
      </trkpt>
      <trkpt lat="43.62435" lon="4.09571">
        <ele>-4.845</ele>
        <time>2014-05-17T11:23:25Z</time>
      </trkpt>
      <trkpt lat="43.62433" lon="4.09576">
        <ele>-0.302</ele>
        <time>2014-05-17T11:23:59Z</time>
      </trkpt>
      <trkpt lat="43.62436" lon="4.09575">
        <ele>0.132</ele>
        <time>2014-05-17T11:24:49Z</time>
      </trkpt>
      <trkpt lat="43.62435" lon="4.0957">
        <ele>-2.178</ele>
        <time>2014-05-17T11:25:04Z</time>
      </trkpt>
      <trkpt lat="43.62434" lon="4.09563">
        <ele>-2.839</ele>
        <time>2014-05-17T11:25:10Z</time>
      </trkpt>
      <trkpt lat="43.62429" lon="4.09552">
        <ele>-4.153</ele>
        <time>2014-05-17T11:25:19Z</time>
      </trkpt>
      <trkpt lat="43.62429" lon="4.09556">
        <ele>-4.607</ele>
        <time>2014-05-17T11:25:28Z</time>
      </trkpt>
      <trkpt lat="43.62428" lon="4.09562">
        <ele>-4.018</ele>
        <time>2014-05-17T11:25:46Z</time>
      </trkpt>
      <trkpt lat="43.62425" lon="4.09555">
        <ele>-3.259</ele>
        <time>2014-05-17T11:26:02Z</time>
      </trkpt>
      <trkpt lat="43.62427" lon="4.09539">
        <ele>-4.18</ele>
        <time>2014-05-17T11:26:07Z</time>
      </trkpt>
      <trkpt lat="43.62424" lon="4.09517">
        <ele>-4.733</ele>
        <time>2014-05-17T11:26:15Z</time>
      </trkpt>
      <trkpt lat="43.62427" lon="4.09505">
        <ele>-4.619</ele>
        <time>2014-05-17T11:26:22Z</time>
      </trkpt>
      <trkpt lat="43.62424" lon="4.09482">
        <ele>-5.808</ele>
        <time>2014-05-17T11:26:34Z</time>
      </trkpt>
      <trkpt lat="43.62422" lon="4.09472">
        <ele>-4.987</ele>
        <time>2014-05-17T11:26:42Z</time>
      </trkpt>
      <trkpt lat="43.62418" lon="4.09449">
        <ele>-2.985</ele>
        <time>2014-05-17T11:26:54Z</time>
      </trkpt>
      <trkpt lat="43.62414" lon="4.09426">
        <ele>-3.144</ele>
        <time>2014-05-17T11:27:03Z</time>
      </trkpt>
      <trkpt lat="43.6241" lon="4.09406">
        <ele>-0.134</ele>
        <time>2014-05-17T11:27:13Z</time>
      </trkpt>
      <trkpt lat="43.62403" lon="4.09384">
        <ele>-0.354</ele>
        <time>2014-05-17T11:27:23Z</time>
      </trkpt>
      <trkpt lat="43.62403" lon="4.0937">
        <ele>1.927</ele>
        <time>2014-05-17T11:27:31Z</time>
      </trkpt>
      <trkpt lat="43.62411" lon="4.0936">
        <ele>3.703</ele>
        <time>2014-05-17T11:27:36Z</time>
      </trkpt>
      <trkpt lat="43.62412" lon="4.09358">
        <ele>4.266</ele>
        <time>2014-05-17T11:27:37Z</time>
      </trkpt>
      <trkpt lat="43.62418" lon="4.09347">
        <ele>5.138</ele>
        <time>2014-05-17T11:27:44Z</time>
      </trkpt>
      <trkpt lat="43.62418" lon="4.0933">
        <ele>4.431</ele>
        <time>2014-05-17T11:27:53Z</time>
      </trkpt>
      <trkpt lat="43.62419" lon="4.09329">
        <ele>4.547</ele>
        <time>2014-05-17T11:27:54Z</time>
      </trkpt>
      <trkpt lat="43.62418" lon="4.09325">
        <ele>4.856</ele>
        <time>2014-05-17T11:27:56Z</time>
      </trkpt>
      <trkpt lat="43.62423" lon="4.09312">
        <ele>6.39</ele>
        <time>2014-05-17T11:28:03Z</time>
      </trkpt>
      <trkpt lat="43.62423" lon="4.09308">
        <ele>5.085</ele>
        <time>2014-05-17T11:28:05Z</time>
      </trkpt>
      <trkpt lat="43.62426" lon="4.09298">
        <ele>4.204</ele>
        <time>2014-05-17T11:28:14Z</time>
      </trkpt>
      <trkpt lat="43.62428" lon="4.09296">
        <ele>4.509</ele>
        <time>2014-05-17T11:28:16Z</time>
      </trkpt>
      <trkpt lat="43.6243" lon="4.09282">
        <ele>5.52</ele>
        <time>2014-05-17T11:28:27Z</time>
      </trkpt>
      <trkpt lat="43.62436" lon="4.09267">
        <ele>7.446</ele>
        <time>2014-05-17T11:28:38Z</time>
      </trkpt>
      <trkpt lat="43.62436" lon="4.09264">
        <ele>7.432</ele>
        <time>2014-05-17T11:28:40Z</time>
      </trkpt>
      <trkpt lat="43.62436" lon="4.09262">
        <ele>8.086</ele>
        <time>2014-05-17T11:28:43Z</time>
      </trkpt>
      <trkpt lat="43.62437" lon="4.09259">
        <ele>8.204</ele>
        <time>2014-05-17T11:28:45Z</time>
      </trkpt>
      <trkpt lat="43.62438" lon="4.09258">
        <ele>8.618</ele>
        <time>2014-05-17T11:28:47Z</time>
      </trkpt>
      <trkpt lat="43.62443" lon="4.09248">
        <ele>9.042</ele>
        <time>2014-05-17T11:28:53Z</time>
      </trkpt>
      <trkpt lat="43.62442" lon="4.09238">
        <ele>8.921</ele>
        <time>2014-05-17T11:28:58Z</time>
      </trkpt>
      <trkpt lat="43.62445" lon="4.09233">
        <ele>8.733</ele>
        <time>2014-05-17T11:29:03Z</time>
      </trkpt>
      <trkpt lat="43.62449" lon="4.09221">
        <ele>7.34</ele>
        <time>2014-05-17T11:29:11Z</time>
      </trkpt>
      <trkpt lat="43.62453" lon="4.09211">
        <ele>7.021</ele>
        <time>2014-05-17T11:29:19Z</time>
      </trkpt>
      <trkpt lat="43.62445" lon="4.09202">
        <ele>3.529</ele>
        <time>2014-05-17T11:29:29Z</time>
      </trkpt>
      <trkpt lat="43.62447" lon="4.09199">
        <ele>3.736</ele>
        <time>2014-05-17T11:29:46Z</time>
      </trkpt>
      <trkpt lat="43.62449" lon="4.09186">
        <ele>6.054</ele>
        <time>2014-05-17T11:30:06Z</time>
      </trkpt>
      <trkpt lat="43.62454" lon="4.09166">
        <ele>6.272</ele>
        <time>2014-05-17T11:30:19Z</time>
      </trkpt>
      <trkpt lat="43.62458" lon="4.09158">
        <ele>5.966</ele>
        <time>2014-05-17T11:30:25Z</time>
      </trkpt>
      <trkpt lat="43.62461" lon="4.09153">
        <ele>6.039</ele>
        <time>2014-05-17T11:30:29Z</time>
      </trkpt>
      <trkpt lat="43.62461" lon="4.09144">
        <ele>5.558</ele>
        <time>2014-05-17T11:30:33Z</time>
      </trkpt>
      <trkpt lat="43.62469" lon="4.09135">
        <ele>2.499</ele>
        <time>2014-05-17T11:30:45Z</time>
      </trkpt>
      <trkpt lat="43.62471" lon="4.09136">
        <ele>1.976</ele>
        <time>2014-05-17T11:30:46Z</time>
      </trkpt>
      <trkpt lat="43.62474" lon="4.09136">
        <ele>1.325</ele>
        <time>2014-05-17T11:30:49Z</time>
      </trkpt>
      <trkpt lat="43.62484" lon="4.09133">
        <ele>-3.622</ele>
        <time>2014-05-17T11:30:56Z</time>
      </trkpt>
      <trkpt lat="43.62494" lon="4.09137">
        <ele>-5.016</ele>
        <time>2014-05-17T11:31:05Z</time>
      </trkpt>
      <trkpt lat="43.62499" lon="4.09134">
        <ele>-8.952</ele>
        <time>2014-05-17T11:31:15Z</time>
      </trkpt>
      <trkpt lat="43.62511" lon="4.09137">
        <ele>-10.956</ele>
        <time>2014-05-17T11:31:23Z</time>
      </trkpt>
      <trkpt lat="43.62525" lon="4.0914">
        <ele>-10.421</ele>
        <time>2014-05-17T11:31:33Z</time>
      </trkpt>
      <trkpt lat="43.62532" lon="4.09145">
        <ele>-10.4</ele>
        <time>2014-05-17T11:31:41Z</time>
      </trkpt>
      <trkpt lat="43.6254" lon="4.09148">
        <ele>-9.877</ele>
        <time>2014-05-17T11:31:49Z</time>
      </trkpt>
      <trkpt lat="43.62541" lon="4.09148">
        <ele>-9.861</ele>
        <time>2014-05-17T11:31:50Z</time>
      </trkpt>
      <trkpt lat="43.62545" lon="4.09147">
        <ele>-9.954</ele>
        <time>2014-05-17T11:31:53Z</time>
      </trkpt>
      <trkpt lat="43.6255" lon="4.09149">
        <ele>-8.433</ele>
        <time>2014-05-17T11:31:58Z</time>
      </trkpt>
      <trkpt lat="43.62557" lon="4.09153">
        <ele>-9.044</ele>
        <time>2014-05-17T11:32:05Z</time>
      </trkpt>
      <trkpt lat="43.62565" lon="4.09152">
        <ele>-9.988</ele>
        <time>2014-05-17T11:32:12Z</time>
      </trkpt>
      <trkpt lat="43.62573" lon="4.09145">
        <ele>-9.954</ele>
        <time>2014-05-17T11:32:19Z</time>
      </trkpt>
      <trkpt lat="43.62578" lon="4.09137">
        <ele>-9.897</ele>
        <time>2014-05-17T11:32:23Z</time>
      </trkpt>
      <trkpt lat="43.62582" lon="4.09135">
        <ele>-10.183</ele>
        <time>2014-05-17T11:32:26Z</time>
      </trkpt>
      <trkpt lat="43.62586" lon="4.09126">
        <ele>-9.915</ele>
        <time>2014-05-17T11:32:33Z</time>
      </trkpt>
      <trkpt lat="43.62586" lon="4.09112">
        <ele>-8.302</ele>
        <time>2014-05-17T11:32:42Z</time>
      </trkpt>
      <trkpt lat="43.62579" lon="4.09102">
        <ele>-7.515</ele>
        <time>2014-05-17T11:32:51Z</time>
      </trkpt>
      <trkpt lat="43.62581" lon="4.09106">
        <ele>-6.266</ele>
        <time>2014-05-17T11:33:02Z</time>
      </trkpt>
      <trkpt lat="43.62583" lon="4.09106">
        <ele>-4.38</ele>
        <time>2014-05-17T11:33:17Z</time>
      </trkpt>
      <trkpt lat="43.62571" lon="4.09099">
        <ele>-5.577</ele>
        <time>2014-05-17T11:36:11Z</time>
      </trkpt>
      <trkpt lat="43.62566" lon="4.09093">
        <ele>-6.758</ele>
        <time>2014-05-17T11:36:26Z</time>
      </trkpt>
      <trkpt lat="43.62566" lon="4.09093">
        <ele>-8.35</ele>
        <time>2014-05-17T11:36:46Z</time>
      </trkpt>
      <trkpt lat="43.62558" lon="4.09095">
        <ele>-9.314</ele>
        <time>2014-05-17T11:36:55Z</time>
      </trkpt>
      <trkpt lat="43.62545" lon="4.091">
        <ele>-10.34</ele>
        <time>2014-05-17T11:37:04Z</time>
      </trkpt>
      <trkpt lat="43.62536" lon="4.09098">
        <ele>-12.628</ele>
        <time>2014-05-17T11:37:12Z</time>
      </trkpt>
      <trkpt lat="43.62535" lon="4.09097">
        <ele>-12.926</ele>
        <time>2014-05-17T11:37:13Z</time>
      </trkpt>
      <trkpt lat="43.62525" lon="4.09099">
        <ele>-15.121</ele>
        <time>2014-05-17T11:37:20Z</time>
      </trkpt>
      <trkpt lat="43.62518" lon="4.09099">
        <ele>-16.953</ele>
        <time>2014-05-17T11:37:28Z</time>
      </trkpt>
      <trkpt lat="43.6251" lon="4.091">
        <ele>-19.314</ele>
        <time>2014-05-17T11:37:37Z</time>
      </trkpt>
      <trkpt lat="43.62497" lon="4.09104">
        <ele>-21.495</ele>
        <time>2014-05-17T11:37:46Z</time>
      </trkpt>
      <trkpt lat="43.62493" lon="4.09105">
        <ele>-22.397</ele>
        <time>2014-05-17T11:37:50Z</time>
      </trkpt>
      <trkpt lat="43.62484" lon="4.09103">
        <ele>-23.807</ele>
        <time>2014-05-17T11:37:58Z</time>
      </trkpt>
      <trkpt lat="43.62475" lon="4.09103">
        <ele>-25.668</ele>
        <time>2014-05-17T11:38:06Z</time>
      </trkpt>
      <trkpt lat="43.62466" lon="4.09105">
        <ele>-27.727</ele>
        <time>2014-05-17T11:38:14Z</time>
      </trkpt>
      <trkpt lat="43.62455" lon="4.09108">
        <ele>-28.883</ele>
        <time>2014-05-17T11:38:23Z</time>
      </trkpt>
      <trkpt lat="43.62451" lon="4.09109">
        <ele>-29.423</ele>
        <time>2014-05-17T11:38:25Z</time>
      </trkpt>
      <trkpt lat="43.62436" lon="4.0911">
        <ele>-30.764</ele>
        <time>2014-05-17T11:38:36Z</time>
      </trkpt>
      <trkpt lat="43.62425" lon="4.09112">
        <ele>-32.834</ele>
        <time>2014-05-17T11:38:43Z</time>
      </trkpt>
      <trkpt lat="43.6242" lon="4.09114">
        <ele>-33.467</ele>
        <time>2014-05-17T11:38:49Z</time>
      </trkpt>
      <trkpt lat="43.6241" lon="4.09116">
        <ele>-33.874</ele>
        <time>2014-05-17T11:38:59Z</time>
      </trkpt>
      <trkpt lat="43.62397" lon="4.09121">
        <ele>-34.434</ele>
        <time>2014-05-17T11:39:11Z</time>
      </trkpt>
      <trkpt lat="43.62385" lon="4.09125">
        <ele>-35.094</ele>
        <time>2014-05-17T11:39:22Z</time>
      </trkpt>
      <trkpt lat="43.62374" lon="4.09127">
        <ele>-34.779</ele>
        <time>2014-05-17T11:39:28Z</time>
      </trkpt>
      <trkpt lat="43.62372" lon="4.09129">
        <ele>-34.716</ele>
        <time>2014-05-17T11:39:31Z</time>
      </trkpt>
      <trkpt lat="43.62369" lon="4.09129">
        <ele>-34.874</ele>
        <time>2014-05-17T11:39:33Z</time>
      </trkpt>
      <trkpt lat="43.62359" lon="4.09134">
        <ele>-35.103</ele>
        <time>2014-05-17T11:39:42Z</time>
      </trkpt>
      <trkpt lat="43.62351" lon="4.09134">
        <ele>-34.724</ele>
        <time>2014-05-17T11:39:49Z</time>
      </trkpt>
      <trkpt lat="43.62349" lon="4.09135">
        <ele>-34.162</ele>
        <time>2014-05-17T11:39:50Z</time>
      </trkpt>
      <trkpt lat="43.62344" lon="4.09138">
        <ele>-34.524</ele>
        <time>2014-05-17T11:39:55Z</time>
      </trkpt>
      <trkpt lat="43.62336" lon="4.09141">
        <ele>-33.82</ele>
        <time>2014-05-17T11:40:01Z</time>
      </trkpt>
      <trkpt lat="43.62328" lon="4.09143">
        <ele>-33.632</ele>
        <time>2014-05-17T11:40:08Z</time>
      </trkpt>
      <trkpt lat="43.62326" lon="4.09142">
        <ele>-33.809</ele>
        <time>2014-05-17T11:40:09Z</time>
      </trkpt>
      <trkpt lat="43.62321" lon="4.09143">
        <ele>-33.572</ele>
        <time>2014-05-17T11:40:13Z</time>
      </trkpt>
      <trkpt lat="43.62313" lon="4.09146">
        <ele>-31.457</ele>
        <time>2014-05-17T11:40:21Z</time>
      </trkpt>
      <trkpt lat="43.62308" lon="4.09146">
        <ele>-31.329</ele>
        <time>2014-05-17T11:40:25Z</time>
      </trkpt>
      <trkpt lat="43.62293" lon="4.09145">
        <ele>-28.608</ele>
        <time>2014-05-17T11:40:36Z</time>
      </trkpt>
      <trkpt lat="43.62291" lon="4.09146">
        <ele>-28.447</ele>
        <time>2014-05-17T11:40:38Z</time>
      </trkpt>
      <trkpt lat="43.62282" lon="4.09149">
        <ele>-28.113</ele>
        <time>2014-05-17T11:40:46Z</time>
      </trkpt>
      <trkpt lat="43.62272" lon="4.0915">
        <ele>-26.879</ele>
        <time>2014-05-17T11:40:53Z</time>
      </trkpt>
      <trkpt lat="43.62272" lon="4.0915">
        <ele>-26.467</ele>
        <time>2014-05-17T11:40:54Z</time>
      </trkpt>
      <trkpt lat="43.6227" lon="4.09151">
        <ele>-26.356</ele>
        <time>2014-05-17T11:40:56Z</time>
      </trkpt>
      <trkpt lat="43.62265" lon="4.09152">
        <ele>-25.309</ele>
        <time>2014-05-17T11:41:00Z</time>
      </trkpt>
      <trkpt lat="43.62255" lon="4.09155">
        <ele>-24.616</ele>
        <time>2014-05-17T11:41:07Z</time>
      </trkpt>
      <trkpt lat="43.62248" lon="4.09156">
        <ele>-23.558</ele>
        <time>2014-05-17T11:41:13Z</time>
      </trkpt>
      <trkpt lat="43.62241" lon="4.09157">
        <ele>-23.324</ele>
        <time>2014-05-17T11:41:19Z</time>
      </trkpt>
      <trkpt lat="43.62236" lon="4.09162">
        <ele>-22.165</ele>
        <time>2014-05-17T11:41:24Z</time>
      </trkpt>
      <trkpt lat="43.62227" lon="4.09165">
        <ele>-21.367</ele>
        <time>2014-05-17T11:41:32Z</time>
      </trkpt>
      <trkpt lat="43.62219" lon="4.09164">
        <ele>-19.758</ele>
        <time>2014-05-17T11:41:40Z</time>
      </trkpt>
      <trkpt lat="43.62216" lon="4.09159">
        <ele>-19.732</ele>
        <time>2014-05-17T11:41:43Z</time>
      </trkpt>
      <trkpt lat="43.62212" lon="4.09151">
        <ele>-20.463</ele>
        <time>2014-05-17T11:41:47Z</time>
      </trkpt>
      <trkpt lat="43.62213" lon="4.09143">
        <ele>-20.421</ele>
        <time>2014-05-17T11:41:51Z</time>
      </trkpt>
      <trkpt lat="43.6221" lon="4.09134">
        <ele>-20.638</ele>
        <time>2014-05-17T11:41:56Z</time>
      </trkpt>
      <trkpt lat="43.62211" lon="4.09117">
        <ele>-19.458</ele>
        <time>2014-05-17T11:42:05Z</time>
      </trkpt>
      <trkpt lat="43.62211" lon="4.09107">
        <ele>-18.001</ele>
        <time>2014-05-17T11:42:12Z</time>
      </trkpt>
      <trkpt lat="43.62208" lon="4.09097">
        <ele>-17.233</ele>
        <time>2014-05-17T11:42:22Z</time>
      </trkpt>
      <trkpt lat="43.62202" lon="4.09079">
        <ele>-17.513</ele>
        <time>2014-05-17T11:42:31Z</time>
      </trkpt>
      <trkpt lat="43.62199" lon="4.09064">
        <ele>-16.863</ele>
        <time>2014-05-17T11:42:38Z</time>
      </trkpt>
      <trkpt lat="43.62197" lon="4.09058">
        <ele>-16.965</ele>
        <time>2014-05-17T11:42:41Z</time>
      </trkpt>
      <trkpt lat="43.62201" lon="4.09049">
        <ele>-15.836</ele>
        <time>2014-05-17T11:42:47Z</time>
      </trkpt>
      <trkpt lat="43.62201" lon="4.09046">
        <ele>-15.662</ele>
        <time>2014-05-17T11:42:49Z</time>
      </trkpt>
      <trkpt lat="43.62199" lon="4.09026">
        <ele>-15.962</ele>
        <time>2014-05-17T11:42:58Z</time>
      </trkpt>
      <trkpt lat="43.62198" lon="4.09022">
        <ele>-16.12</ele>
        <time>2014-05-17T11:43:00Z</time>
      </trkpt>
      <trkpt lat="43.62196" lon="4.09011">
        <ele>-15.785</ele>
        <time>2014-05-17T11:43:07Z</time>
      </trkpt>
      <trkpt lat="43.62191" lon="4.09002">
        <ele>-14.925</ele>
        <time>2014-05-17T11:43:14Z</time>
      </trkpt>
      <trkpt lat="43.6219" lon="4.09">
        <ele>-15.682</ele>
        <time>2014-05-17T11:43:15Z</time>
      </trkpt>
      <trkpt lat="43.62189" lon="4.08997">
        <ele>-15.258</ele>
        <time>2014-05-17T11:43:17Z</time>
      </trkpt>
      <trkpt lat="43.62185" lon="4.08989">
        <ele>-15.57</ele>
        <time>2014-05-17T11:43:24Z</time>
      </trkpt>
      <trkpt lat="43.62182" lon="4.08983">
        <ele>-15.845</ele>
        <time>2014-05-17T11:43:31Z</time>
      </trkpt>
      <trkpt lat="43.62178" lon="4.08976">
        <ele>-16.298</ele>
        <time>2014-05-17T11:43:46Z</time>
      </trkpt>
      <trkpt lat="43.62174" lon="4.08975">
        <ele>-15.783</ele>
        <time>2014-05-17T11:44:50Z</time>
      </trkpt>
      <trkpt lat="43.62153" lon="4.08972">
        <ele>-19.8</ele>
        <time>2014-05-17T11:45:03Z</time>
      </trkpt>
      <trkpt lat="43.62141" lon="4.08972">
        <ele>-16.119</ele>
        <time>2014-05-17T11:45:10Z</time>
      </trkpt>
      <trkpt lat="43.62134" lon="4.08971">
        <ele>-16.691</ele>
        <time>2014-05-17T11:45:16Z</time>
      </trkpt>
      <trkpt lat="43.6213" lon="4.08971">
        <ele>-17.807</ele>
        <time>2014-05-17T11:45:20Z</time>
      </trkpt>
      <trkpt lat="43.62113" lon="4.0897">
        <ele>-20.883</ele>
        <time>2014-05-17T11:45:32Z</time>
      </trkpt>
      <trkpt lat="43.62105" lon="4.08971">
        <ele>-22.495</ele>
        <time>2014-05-17T11:45:39Z</time>
      </trkpt>
      <trkpt lat="43.62101" lon="4.08972">
        <ele>-23.152</ele>
        <time>2014-05-17T11:45:42Z</time>
      </trkpt>
      <trkpt lat="43.62087" lon="4.08975">
        <ele>-25.311</ele>
        <time>2014-05-17T11:45:52Z</time>
      </trkpt>
      <trkpt lat="43.62075" lon="4.08976">
        <ele>-26.969</ele>
        <time>2014-05-17T11:46:00Z</time>
      </trkpt>
      <trkpt lat="43.62066" lon="4.08974">
        <ele>-28.611</ele>
        <time>2014-05-17T11:46:09Z</time>
      </trkpt>
      <trkpt lat="43.62061" lon="4.08976">
        <ele>-28.991</ele>
        <time>2014-05-17T11:46:12Z</time>
      </trkpt>
      <trkpt lat="43.62054" lon="4.08975">
        <ele>-29.945</ele>
        <time>2014-05-17T11:46:17Z</time>
      </trkpt>
      <trkpt lat="43.62051" lon="4.08969">
        <ele>-30.267</ele>
        <time>2014-05-17T11:46:22Z</time>
      </trkpt>
      <trkpt lat="43.62045" lon="4.08966">
        <ele>-30.936</ele>
        <time>2014-05-17T11:46:26Z</time>
      </trkpt>
      <trkpt lat="43.62036" lon="4.08951">
        <ele>-31.388</ele>
        <time>2014-05-17T11:46:36Z</time>
      </trkpt>
      <trkpt lat="43.62029" lon="4.08937">
        <ele>-31.158</ele>
        <time>2014-05-17T11:46:46Z</time>
      </trkpt>
      <trkpt lat="43.62023" lon="4.08927">
        <ele>-29.795</ele>
        <time>2014-05-17T11:46:53Z</time>
      </trkpt>
      <trkpt lat="43.62016" lon="4.08916">
        <ele>-29.819</ele>
        <time>2014-05-17T11:47:02Z</time>
      </trkpt>
      <trkpt lat="43.6201" lon="4.08909">
        <ele>-28.951</ele>
        <time>2014-05-17T11:47:09Z</time>
      </trkpt>
      <trkpt lat="43.62" lon="4.08896">
        <ele>-28.131</ele>
        <time>2014-05-17T11:47:18Z</time>
      </trkpt>
      <trkpt lat="43.61995" lon="4.08884">
        <ele>-27.399</ele>
        <time>2014-05-17T11:47:26Z</time>
      </trkpt>
      <trkpt lat="43.61986" lon="4.08872">
        <ele>-24.608</ele>
        <time>2014-05-17T11:47:36Z</time>
      </trkpt>
      <trkpt lat="43.61979" lon="4.08861">
        <ele>-23.013</ele>
        <time>2014-05-17T11:47:45Z</time>
      </trkpt>
      <trkpt lat="43.61973" lon="4.08848">
        <ele>-22.891</ele>
        <time>2014-05-17T11:47:54Z</time>
      </trkpt>
      <trkpt lat="43.61972" lon="4.08847">
        <ele>-22.642</ele>
        <time>2014-05-17T11:47:55Z</time>
      </trkpt>
      <trkpt lat="43.6197" lon="4.08841">
        <ele>-21.785</ele>
        <time>2014-05-17T11:47:59Z</time>
      </trkpt>
      <trkpt lat="43.61963" lon="4.08829">
        <ele>-19.822</ele>
        <time>2014-05-17T11:48:07Z</time>
      </trkpt>
      <trkpt lat="43.61956" lon="4.08811">
        <ele>-17.002</ele>
        <time>2014-05-17T11:48:18Z</time>
      </trkpt>
      <trkpt lat="43.61951" lon="4.08796">
        <ele>-16.528</ele>
        <time>2014-05-17T11:48:27Z</time>
      </trkpt>
      <trkpt lat="43.61947" lon="4.08792">
        <ele>-15.254</ele>
        <time>2014-05-17T11:48:31Z</time>
      </trkpt>
      <trkpt lat="43.61943" lon="4.08784">
        <ele>-13.243</ele>
        <time>2014-05-17T11:48:37Z</time>
      </trkpt>
      <trkpt lat="43.61941" lon="4.08772">
        <ele>-11.694</ele>
        <time>2014-05-17T11:48:44Z</time>
      </trkpt>
      <trkpt lat="43.61936" lon="4.08751">
        <ele>-11.229</ele>
        <time>2014-05-17T11:48:56Z</time>
      </trkpt>
      <trkpt lat="43.6193" lon="4.0874">
        <ele>-9.885</ele>
        <time>2014-05-17T11:49:04Z</time>
      </trkpt>
      <trkpt lat="43.61927" lon="4.08736">
        <ele>-9.5</ele>
        <time>2014-05-17T11:49:07Z</time>
      </trkpt>
      <trkpt lat="43.61925" lon="4.08733">
        <ele>-10.34</ele>
        <time>2014-05-17T11:49:09Z</time>
      </trkpt>
      <trkpt lat="43.61919" lon="4.08723">
        <ele>-10.742</ele>
        <time>2014-05-17T11:49:17Z</time>
      </trkpt>
      <trkpt lat="43.61918" lon="4.08722">
        <ele>-10.439</ele>
        <time>2014-05-17T11:49:18Z</time>
      </trkpt>
      <trkpt lat="43.61914" lon="4.08705">
        <ele>-8.961</ele>
        <time>2014-05-17T11:49:28Z</time>
      </trkpt>
      <trkpt lat="43.6191" lon="4.08694">
        <ele>-13.79</ele>
        <time>2014-05-17T11:49:36Z</time>
      </trkpt>
      <trkpt lat="43.61904" lon="4.08682">
        <ele>-13.451</ele>
        <time>2014-05-17T11:49:44Z</time>
      </trkpt>
      <trkpt lat="43.61899" lon="4.08675">
        <ele>-14.847</ele>
        <time>2014-05-17T11:49:49Z</time>
      </trkpt>
      <trkpt lat="43.61896" lon="4.08671">
        <ele>-14.007</ele>
        <time>2014-05-17T11:49:52Z</time>
      </trkpt>
      <trkpt lat="43.61895" lon="4.08665">
        <ele>-14.108</ele>
        <time>2014-05-17T11:49:55Z</time>
      </trkpt>
      <trkpt lat="43.61895" lon="4.08662">
        <ele>-13.926</ele>
        <time>2014-05-17T11:49:57Z</time>
      </trkpt>
      <trkpt lat="43.6189" lon="4.08647">
        <ele>-14.267</ele>
        <time>2014-05-17T11:50:06Z</time>
      </trkpt>
      <trkpt lat="43.61885" lon="4.08636">
        <ele>-13.865</ele>
        <time>2014-05-17T11:50:12Z</time>
      </trkpt>
      <trkpt lat="43.61879" lon="4.08621">
        <ele>-12.722</ele>
        <time>2014-05-17T11:50:23Z</time>
      </trkpt>
      <trkpt lat="43.61873" lon="4.08609">
        <ele>-12.493</ele>
        <time>2014-05-17T11:50:30Z</time>
      </trkpt>
      <trkpt lat="43.6187" lon="4.08601">
        <ele>-11.405</ele>
        <time>2014-05-17T11:50:36Z</time>
      </trkpt>
      <trkpt lat="43.61864" lon="4.08588">
        <ele>-10.077</ele>
        <time>2014-05-17T11:50:45Z</time>
      </trkpt>
      <trkpt lat="43.61859" lon="4.0857">
        <ele>-8.938</ele>
        <time>2014-05-17T11:50:55Z</time>
      </trkpt>
      <trkpt lat="43.61858" lon="4.08569">
        <ele>-8.554</ele>
        <time>2014-05-17T11:50:56Z</time>
      </trkpt>
      <trkpt lat="43.61856" lon="4.08557">
        <ele>-6.829</ele>
        <time>2014-05-17T11:51:03Z</time>
      </trkpt>
      <trkpt lat="43.61856" lon="4.08541">
        <ele>-5.619</ele>
        <time>2014-05-17T11:51:12Z</time>
      </trkpt>
      <trkpt lat="43.61856" lon="4.0854">
        <ele>-5.382</ele>
        <time>2014-05-17T11:51:13Z</time>
      </trkpt>
      <trkpt lat="43.61857" lon="4.08525">
        <ele>-3.267</ele>
        <time>2014-05-17T11:51:21Z</time>
      </trkpt>
      <trkpt lat="43.61858" lon="4.08522">
        <ele>-2.688</ele>
        <time>2014-05-17T11:51:23Z</time>
      </trkpt>
      <trkpt lat="43.61861" lon="4.08516">
        <ele>-3.944</ele>
        <time>2014-05-17T11:51:27Z</time>
      </trkpt>
      <trkpt lat="43.61863" lon="4.0851">
        <ele>-3.19</ele>
        <time>2014-05-17T11:51:30Z</time>
      </trkpt>
      <trkpt lat="43.61866" lon="4.08494">
        <ele>-1.211</ele>
        <time>2014-05-17T11:51:39Z</time>
      </trkpt>
      <trkpt lat="43.61867" lon="4.08472">
        <ele>0.861</ele>
        <time>2014-05-17T11:51:51Z</time>
      </trkpt>
      <trkpt lat="43.61868" lon="4.08457">
        <ele>3.187</ele>
        <time>2014-05-17T11:51:59Z</time>
      </trkpt>
      <trkpt lat="43.61871" lon="4.08446">
        <ele>4.629</ele>
        <time>2014-05-17T11:52:06Z</time>
      </trkpt>
      <trkpt lat="43.61872" lon="4.08442">
        <ele>4.982</ele>
        <time>2014-05-17T11:52:08Z</time>
      </trkpt>
      <trkpt lat="43.61871" lon="4.08439">
        <ele>6</ele>
        <time>2014-05-17T11:52:10Z</time>
      </trkpt>
      <trkpt lat="43.61871" lon="4.08426">
        <ele>8.676</ele>
        <time>2014-05-17T11:52:17Z</time>
      </trkpt>
      <trkpt lat="43.61872" lon="4.08411">
        <ele>10.351</ele>
        <time>2014-05-17T11:52:26Z</time>
      </trkpt>
      <trkpt lat="43.61873" lon="4.08393">
        <ele>11.88</ele>
        <time>2014-05-17T11:52:36Z</time>
      </trkpt>
      <trkpt lat="43.61871" lon="4.08377">
        <ele>13.231</ele>
        <time>2014-05-17T11:52:44Z</time>
      </trkpt>
      <trkpt lat="43.61871" lon="4.08376">
        <ele>13.469</ele>
        <time>2014-05-17T11:52:45Z</time>
      </trkpt>
      <trkpt lat="43.6187" lon="4.08362">
        <ele>14.239</ele>
        <time>2014-05-17T11:52:54Z</time>
      </trkpt>
      <trkpt lat="43.6187" lon="4.08353">
        <ele>15.124</ele>
        <time>2014-05-17T11:52:58Z</time>
      </trkpt>
      <trkpt lat="43.61868" lon="4.08342">
        <ele>15.638</ele>
        <time>2014-05-17T11:53:06Z</time>
      </trkpt>
      <trkpt lat="43.61867" lon="4.08326">
        <ele>16.517</ele>
        <time>2014-05-17T11:53:15Z</time>
      </trkpt>
      <trkpt lat="43.61867" lon="4.08316">
        <ele>16.306</ele>
        <time>2014-05-17T11:53:22Z</time>
      </trkpt>
      <trkpt lat="43.61865" lon="4.083">
        <ele>15.651</ele>
        <time>2014-05-17T11:53:31Z</time>
      </trkpt>
      <trkpt lat="43.61865" lon="4.08292">
        <ele>16.131</ele>
        <time>2014-05-17T11:53:38Z</time>
      </trkpt>
      <trkpt lat="43.61859" lon="4.08282">
        <ele>15.454</ele>
        <time>2014-05-17T11:53:44Z</time>
      </trkpt>
      <trkpt lat="43.61852" lon="4.08272">
        <ele>13.306</ele>
        <time>2014-05-17T11:53:51Z</time>
      </trkpt>
      <trkpt lat="43.61846" lon="4.08259">
        <ele>8.426</ele>
        <time>2014-05-17T11:53:59Z</time>
      </trkpt>
      <trkpt lat="43.6184" lon="4.08259">
        <ele>9.445</ele>
        <time>2014-05-17T11:54:08Z</time>
      </trkpt>
      <trkpt lat="43.6183" lon="4.08256">
        <ele>10.429</ele>
        <time>2014-05-17T11:54:15Z</time>
      </trkpt>
      <trkpt lat="43.61814" lon="4.08256">
        <ele>11.678</ele>
        <time>2014-05-17T11:54:25Z</time>
      </trkpt>
      <trkpt lat="43.61803" lon="4.08255">
        <ele>12.742</ele>
        <time>2014-05-17T11:54:33Z</time>
      </trkpt>
      <trkpt lat="43.61795" lon="4.08255">
        <ele>14.025</ele>
        <time>2014-05-17T11:54:45Z</time>
      </trkpt>
      <trkpt lat="43.61787" lon="4.0825">
        <ele>14.699</ele>
        <time>2014-05-17T11:54:51Z</time>
      </trkpt>
      <trkpt lat="43.61776" lon="4.08248">
        <ele>16.023</ele>
        <time>2014-05-17T11:55:03Z</time>
      </trkpt>
      <trkpt lat="43.61766" lon="4.08244">
        <ele>17.302</ele>
        <time>2014-05-17T11:55:15Z</time>
      </trkpt>
      <trkpt lat="43.61753" lon="4.0824">
        <ele>18.414</ele>
        <time>2014-05-17T11:55:26Z</time>
      </trkpt>
      <trkpt lat="43.6174" lon="4.0823">
        <ele>19.245</ele>
        <time>2014-05-17T11:55:40Z</time>
      </trkpt>
      <trkpt lat="43.61724" lon="4.08232">
        <ele>20.299</ele>
        <time>2014-05-17T11:55:56Z</time>
      </trkpt>
      <trkpt lat="43.61708" lon="4.08232">
        <ele>20.981</ele>
        <time>2014-05-17T11:56:08Z</time>
      </trkpt>
      <trkpt lat="43.61688" lon="4.08233">
        <ele>21.463</ele>
        <time>2014-05-17T11:56:23Z</time>
      </trkpt>
      <trkpt lat="43.61676" lon="4.08232">
        <ele>21.81</ele>
        <time>2014-05-17T11:56:31Z</time>
      </trkpt>
      <trkpt lat="43.61668" lon="4.08234">
        <ele>20.9</ele>
        <time>2014-05-17T11:56:39Z</time>
      </trkpt>
      <trkpt lat="43.61665" lon="4.08233">
        <ele>20.556</ele>
        <time>2014-05-17T11:56:42Z</time>
      </trkpt>
      <trkpt lat="43.61657" lon="4.08234">
        <ele>19.914</ele>
        <time>2014-05-17T11:56:49Z</time>
      </trkpt>
      <trkpt lat="43.61647" lon="4.08236">
        <ele>18.766</ele>
        <time>2014-05-17T11:56:55Z</time>
      </trkpt>
      <trkpt lat="43.61635" lon="4.08235">
        <ele>16.306</ele>
        <time>2014-05-17T11:57:04Z</time>
      </trkpt>
      <trkpt lat="43.61634" lon="4.08235">
        <ele>16.093</ele>
        <time>2014-05-17T11:57:05Z</time>
      </trkpt>
      <trkpt lat="43.61633" lon="4.08237">
        <ele>12.507</ele>
        <time>2014-05-17T11:57:11Z</time>
      </trkpt>
      <trkpt lat="43.61648" lon="4.08241">
        <ele>8.698</ele>
        <time>2014-05-17T11:57:20Z</time>
      </trkpt>
      <trkpt lat="43.61653" lon="4.08245">
        <ele>5.111</ele>
        <time>2014-05-17T11:57:29Z</time>
      </trkpt>
      <trkpt lat="43.61652" lon="4.08237">
        <ele>2.606</ele>
        <time>2014-05-17T11:57:53Z</time>
      </trkpt>
      <trkpt lat="43.6165" lon="4.08229">
        <ele>1.361</ele>
        <time>2014-05-17T11:58:07Z</time>
      </trkpt>
      <trkpt lat="43.61649" lon="4.08222">
        <ele>0.68</ele>
        <time>2014-05-17T11:58:19Z</time>
      </trkpt>
      <trkpt lat="43.6165" lon="4.0821">
        <ele>-1.485</ele>
        <time>2014-05-17T11:58:27Z</time>
      </trkpt>
      <trkpt lat="43.61651" lon="4.08205">
        <ele>-4.455</ele>
        <time>2014-05-17T11:58:31Z</time>
      </trkpt>
      <trkpt lat="43.61654" lon="4.08193">
        <ele>-6.35</ele>
        <time>2014-05-17T11:58:39Z</time>
      </trkpt>
      <trkpt lat="43.61648" lon="4.08187">
        <ele>-7.016</ele>
        <time>2014-05-17T11:58:47Z</time>
      </trkpt>
      <trkpt lat="43.61644" lon="4.08184">
        <ele>-7.49</ele>
        <time>2014-05-17T11:58:58Z</time>
      </trkpt>
      <trkpt lat="43.6164" lon="4.08183">
        <ele>-7.815</ele>
        <time>2014-05-17T11:59:21Z</time>
      </trkpt>
      <trkpt lat="43.61636" lon="4.08186">
        <ele>-8.339</ele>
        <time>2014-05-17T12:03:18Z</time>
      </trkpt>
      <trkpt lat="43.61635" lon="4.08188">
        <ele>-9.182</ele>
        <time>2014-05-17T12:03:29Z</time>
      </trkpt>
      <trkpt lat="43.61631" lon="4.0818">
        <ele>-11.648</ele>
        <time>2014-05-17T12:03:59Z</time>
      </trkpt>
      <trkpt lat="43.61623" lon="4.08169">
        <ele>-12.533</ele>
        <time>2014-05-17T12:04:08Z</time>
      </trkpt>
      <trkpt lat="43.61619" lon="4.08159">
        <ele>-12.993</ele>
        <time>2014-05-17T12:04:14Z</time>
      </trkpt>
      <trkpt lat="43.61617" lon="4.08145">
        <ele>-13.793</ele>
        <time>2014-05-17T12:04:25Z</time>
      </trkpt>
      <trkpt lat="43.61616" lon="4.08145">
        <ele>-13.981</ele>
        <time>2014-05-17T12:04:27Z</time>
      </trkpt>
      <trkpt lat="43.61619" lon="4.08139">
        <ele>-14.523</ele>
        <time>2014-05-17T12:04:35Z</time>
      </trkpt>
      <trkpt lat="43.61619" lon="4.08138">
        <ele>-14.646</ele>
        <time>2014-05-17T12:04:37Z</time>
      </trkpt>
      <trkpt lat="43.61622" lon="4.08125">
        <ele>-15.18</ele>
        <time>2014-05-17T12:04:46Z</time>
      </trkpt>
      <trkpt lat="43.61623" lon="4.0811">
        <ele>-15.819</ele>
        <time>2014-05-17T12:04:58Z</time>
      </trkpt>
      <trkpt lat="43.61614" lon="4.08098">
        <ele>-16.231</ele>
        <time>2014-05-17T12:05:10Z</time>
      </trkpt>
      <trkpt lat="43.61613" lon="4.08085">
        <ele>-16.361</ele>
        <time>2014-05-17T12:05:17Z</time>
      </trkpt>
      <trkpt lat="43.61612" lon="4.08076">
        <ele>-16.125</ele>
        <time>2014-05-17T12:05:25Z</time>
      </trkpt>
      <trkpt lat="43.61609" lon="4.08068">
        <ele>-15.682</ele>
        <time>2014-05-17T12:05:31Z</time>
      </trkpt>
      <trkpt lat="43.61606" lon="4.08058">
        <ele>-14.631</ele>
        <time>2014-05-17T12:05:38Z</time>
      </trkpt>
      <trkpt lat="43.61604" lon="4.08051">
        <ele>-13.891</ele>
        <time>2014-05-17T12:05:42Z</time>
      </trkpt>
      <trkpt lat="43.616" lon="4.08046">
        <ele>-13.173</ele>
        <time>2014-05-17T12:05:46Z</time>
      </trkpt>
      <trkpt lat="43.61599" lon="4.08035">
        <ele>-11.271</ele>
        <time>2014-05-17T12:05:53Z</time>
      </trkpt>
      <trkpt lat="43.61598" lon="4.08031">
        <ele>-10.797</ele>
        <time>2014-05-17T12:05:55Z</time>
      </trkpt>
      <trkpt lat="43.61598" lon="4.08028">
        <ele>-10.422</ele>
        <time>2014-05-17T12:05:57Z</time>
      </trkpt>
      <trkpt lat="43.61592" lon="4.08022">
        <ele>-8.563</ele>
        <time>2014-05-17T12:06:04Z</time>
      </trkpt>
      <trkpt lat="43.61594" lon="4.08019">
        <ele>-6.585</ele>
        <time>2014-05-17T12:06:12Z</time>
      </trkpt>
      <trkpt lat="43.61595" lon="4.08016">
        <ele>-4.869</ele>
        <time>2014-05-17T12:06:20Z</time>
      </trkpt>
      <trkpt lat="43.61594" lon="4.08007">
        <ele>-2.671</ele>
        <time>2014-05-17T12:06:29Z</time>
      </trkpt>
      <trkpt lat="43.61588" lon="4.07998">
        <ele>-0.255</ele>
        <time>2014-05-17T12:06:39Z</time>
      </trkpt>
      <trkpt lat="43.6158" lon="4.07984">
        <ele>2.169</ele>
        <time>2014-05-17T12:06:53Z</time>
      </trkpt>
      <trkpt lat="43.61573" lon="4.07973">
        <ele>3.625</ele>
        <time>2014-05-17T12:07:04Z</time>
      </trkpt>
      <trkpt lat="43.61563" lon="4.07967">
        <ele>6.2</ele>
        <time>2014-05-17T12:07:17Z</time>
      </trkpt>
      <trkpt lat="43.61551" lon="4.07958">
        <ele>10.049</ele>
        <time>2014-05-17T12:07:34Z</time>
      </trkpt>
      <trkpt lat="43.61545" lon="4.07954">
        <ele>10.923</ele>
        <time>2014-05-17T12:07:40Z</time>
      </trkpt>
      <trkpt lat="43.61534" lon="4.07951">
        <ele>11.845</ele>
        <time>2014-05-17T12:07:52Z</time>
      </trkpt>
      <trkpt lat="43.61525" lon="4.07947">
        <ele>12.549</ele>
        <time>2014-05-17T12:08:05Z</time>
      </trkpt>
      <trkpt lat="43.61512" lon="4.07938">
        <ele>14.193</ele>
        <time>2014-05-17T12:08:20Z</time>
      </trkpt>
      <trkpt lat="43.61503" lon="4.07936">
        <ele>12.35</ele>
        <time>2014-05-17T12:08:27Z</time>
      </trkpt>
      <trkpt lat="43.61493" lon="4.07933">
        <ele>12.566</ele>
        <time>2014-05-17T12:08:34Z</time>
      </trkpt>
      <trkpt lat="43.61483" lon="4.07933">
        <ele>13.186</ele>
        <time>2014-05-17T12:08:41Z</time>
      </trkpt>
      <trkpt lat="43.61471" lon="4.07931">
        <ele>14.109</ele>
        <time>2014-05-17T12:08:52Z</time>
      </trkpt>
      <trkpt lat="43.61465" lon="4.0793">
        <ele>12.577</ele>
        <time>2014-05-17T12:08:58Z</time>
      </trkpt>
      <trkpt lat="43.61454" lon="4.07931">
        <ele>10.483</ele>
        <time>2014-05-17T12:09:08Z</time>
      </trkpt>
      <trkpt lat="43.61448" lon="4.07932">
        <ele>9.537</ele>
        <time>2014-05-17T12:09:16Z</time>
      </trkpt>
      <trkpt lat="43.61443" lon="4.07926">
        <ele>7.744</ele>
        <time>2014-05-17T12:09:31Z</time>
      </trkpt>
      <trkpt lat="43.6144" lon="4.0791">
        <ele>5.829</ele>
        <time>2014-05-17T12:09:46Z</time>
      </trkpt>
      <trkpt lat="43.61438" lon="4.07893">
        <ele>4.162</ele>
        <time>2014-05-17T12:09:58Z</time>
      </trkpt>
      <trkpt lat="43.61436" lon="4.07881">
        <ele>3.115</ele>
        <time>2014-05-17T12:10:10Z</time>
      </trkpt>
      <trkpt lat="43.61434" lon="4.07864">
        <ele>1.472</ele>
        <time>2014-05-17T12:10:24Z</time>
      </trkpt>
      <trkpt lat="43.61434" lon="4.07864">
        <ele>1.18</ele>
        <time>2014-05-17T12:10:25Z</time>
      </trkpt>
      <trkpt lat="43.61444" lon="4.07854">
        <ele>1.101</ele>
        <time>2014-05-17T12:10:33Z</time>
      </trkpt>
      <trkpt lat="43.61445" lon="4.07851">
        <ele>-4.938</ele>
        <time>2014-05-17T12:10:40Z</time>
      </trkpt>
      <trkpt lat="43.61454" lon="4.07839">
        <ele>-7.154</ele>
        <time>2014-05-17T12:10:51Z</time>
      </trkpt>
      <trkpt lat="43.61458" lon="4.07837">
        <ele>-7.599</ele>
        <time>2014-05-17T12:10:54Z</time>
      </trkpt>
      <trkpt lat="43.61468" lon="4.07826">
        <ele>-7.939</ele>
        <time>2014-05-17T12:11:03Z</time>
      </trkpt>
      <trkpt lat="43.61468" lon="4.07827">
        <ele>-7.54</ele>
        <time>2014-05-17T12:11:04Z</time>
      </trkpt>
      <trkpt lat="43.6147" lon="4.07826">
        <ele>-7.541</ele>
        <time>2014-05-17T12:11:06Z</time>
      </trkpt>
      <trkpt lat="43.61477" lon="4.07812">
        <ele>-8.415</ele>
        <time>2014-05-17T12:11:16Z</time>
      </trkpt>
      <trkpt lat="43.61482" lon="4.07806">
        <ele>-8.766</ele>
        <time>2014-05-17T12:11:21Z</time>
      </trkpt>
      <trkpt lat="43.61485" lon="4.07805">
        <ele>-8.938</ele>
        <time>2014-05-17T12:11:23Z</time>
      </trkpt>
      <trkpt lat="43.6149" lon="4.07799">
        <ele>-10.326</ele>
        <time>2014-05-17T12:11:30Z</time>
      </trkpt>
      <trkpt lat="43.61494" lon="4.07796">
        <ele>-11.105</ele>
        <time>2014-05-17T12:11:35Z</time>
      </trkpt>
      <trkpt lat="43.61504" lon="4.0779">
        <ele>-12.657</ele>
        <time>2014-05-17T12:11:44Z</time>
      </trkpt>
      <trkpt lat="43.61511" lon="4.07782">
        <ele>-13.469</ele>
        <time>2014-05-17T12:11:51Z</time>
      </trkpt>
      <trkpt lat="43.61513" lon="4.0778">
        <ele>-14.02</ele>
        <time>2014-05-17T12:11:53Z</time>
      </trkpt>
      <trkpt lat="43.61519" lon="4.07773">
        <ele>-15.448</ele>
        <time>2014-05-17T12:12:02Z</time>
      </trkpt>
      <trkpt lat="43.6153" lon="4.07762">
        <ele>-16.981</ele>
        <time>2014-05-17T12:12:16Z</time>
      </trkpt>
      <trkpt lat="43.61542" lon="4.07754">
        <ele>-18.258</ele>
        <time>2014-05-17T12:12:29Z</time>
      </trkpt>
      <trkpt lat="43.61549" lon="4.07744">
        <ele>-19.267</ele>
        <time>2014-05-17T12:12:37Z</time>
      </trkpt>
      <trkpt lat="43.61551" lon="4.07739">
        <ele>-17.727</ele>
        <time>2014-05-17T12:12:41Z</time>
      </trkpt>
      <trkpt lat="43.61562" lon="4.0773">
        <ele>-18.211</ele>
        <time>2014-05-17T12:12:51Z</time>
      </trkpt>
      <trkpt lat="43.61568" lon="4.07721">
        <ele>-18.602</ele>
        <time>2014-05-17T12:12:58Z</time>
      </trkpt>
      <trkpt lat="43.61577" lon="4.07713">
        <ele>-18.814</ele>
        <time>2014-05-17T12:13:06Z</time>
      </trkpt>
      <trkpt lat="43.61585" lon="4.07704">
        <ele>-17.76</ele>
        <time>2014-05-17T12:13:14Z</time>
      </trkpt>
      <trkpt lat="43.61591" lon="4.07698">
        <ele>-17.548</ele>
        <time>2014-05-17T12:13:19Z</time>
      </trkpt>
      <trkpt lat="43.61594" lon="4.07695">
        <ele>-17.447</ele>
        <time>2014-05-17T12:13:23Z</time>
      </trkpt>
      <trkpt lat="43.61601" lon="4.07691">
        <ele>-17.458</ele>
        <time>2014-05-17T12:13:30Z</time>
      </trkpt>
      <trkpt lat="43.61605" lon="4.07686">
        <ele>-16.387</ele>
        <time>2014-05-17T12:13:36Z</time>
      </trkpt>
      <trkpt lat="43.61615" lon="4.07679">
        <ele>-16.527</ele>
        <time>2014-05-17T12:13:43Z</time>
      </trkpt>
      <trkpt lat="43.61622" lon="4.07673">
        <ele>-15.672</ele>
        <time>2014-05-17T12:13:51Z</time>
      </trkpt>
      <trkpt lat="43.61628" lon="4.07667">
        <ele>-14.789</ele>
        <time>2014-05-17T12:13:58Z</time>
      </trkpt>
      <trkpt lat="43.61638" lon="4.07657">
        <ele>-13.115</ele>
        <time>2014-05-17T12:14:09Z</time>
      </trkpt>
      <trkpt lat="43.6164" lon="4.07655">
        <ele>-12.336</ele>
        <time>2014-05-17T12:14:11Z</time>
      </trkpt>
      <trkpt lat="43.61638" lon="4.07646">
        <ele>-12.557</ele>
        <time>2014-05-17T12:14:22Z</time>
      </trkpt>
      <trkpt lat="43.61645" lon="4.07646">
        <ele>-11.789</ele>
        <time>2014-05-17T12:14:30Z</time>
      </trkpt>
      <trkpt lat="43.61662" lon="4.07635">
        <ele>-10.135</ele>
        <time>2014-05-17T12:14:45Z</time>
      </trkpt>
      <trkpt lat="43.61677" lon="4.07623">
        <ele>-10.565</ele>
        <time>2014-05-17T12:15:00Z</time>
      </trkpt>
      <trkpt lat="43.6169" lon="4.07605">
        <ele>-11.552</ele>
        <time>2014-05-17T12:15:15Z</time>
      </trkpt>
      <trkpt lat="43.61702" lon="4.07593">
        <ele>-11.801</ele>
        <time>2014-05-17T12:15:26Z</time>
      </trkpt>
      <trkpt lat="43.61712" lon="4.07583">
        <ele>-9.897</ele>
        <time>2014-05-17T12:15:38Z</time>
      </trkpt>
      <trkpt lat="43.61713" lon="4.07586">
        <ele>-9.409</ele>
        <time>2014-05-17T12:15:47Z</time>
      </trkpt>
      <trkpt lat="43.61711" lon="4.07588">
        <ele>-8.757</ele>
        <time>2014-05-17T12:15:58Z</time>
      </trkpt>
      <trkpt lat="43.61699" lon="4.07592">
        <ele>-9.516</ele>
        <time>2014-05-17T12:16:08Z</time>
      </trkpt>
      <trkpt lat="43.617" lon="4.07589">
        <ele>-6.962</ele>
        <time>2014-05-17T12:16:16Z</time>
      </trkpt>
      <trkpt lat="43.61697" lon="4.07585">
        <ele>-6.517</ele>
        <time>2014-05-17T12:16:19Z</time>
      </trkpt>
      <trkpt lat="43.61684" lon="4.07568">
        <ele>-4.537</ele>
        <time>2014-05-17T12:16:32Z</time>
      </trkpt>
      <trkpt lat="43.61683" lon="4.07558">
        <ele>-3.478</ele>
        <time>2014-05-17T12:16:39Z</time>
      </trkpt>
      <trkpt lat="43.6168" lon="4.07554">
        <ele>-3.001</ele>
        <time>2014-05-17T12:16:42Z</time>
      </trkpt>
      <trkpt lat="43.61678" lon="4.07552">
        <ele>-2.655</ele>
        <time>2014-05-17T12:16:44Z</time>
      </trkpt>
      <trkpt lat="43.61677" lon="4.07549">
        <ele>-2.328</ele>
        <time>2014-05-17T12:16:46Z</time>
      </trkpt>
      <trkpt lat="43.61676" lon="4.0754">
        <ele>-1.144</ele>
        <time>2014-05-17T12:16:53Z</time>
      </trkpt>
      <trkpt lat="43.6167" lon="4.07523">
        <ele>0.514</ele>
        <time>2014-05-17T12:17:03Z</time>
      </trkpt>
      <trkpt lat="43.6167" lon="4.07505">
        <ele>2.942</ele>
        <time>2014-05-17T12:17:17Z</time>
      </trkpt>
      <trkpt lat="43.61671" lon="4.07497">
        <ele>3.852</ele>
        <time>2014-05-17T12:17:22Z</time>
      </trkpt>
      <trkpt lat="43.61672" lon="4.07494">
        <ele>4.375</ele>
        <time>2014-05-17T12:17:25Z</time>
      </trkpt>
      <trkpt lat="43.61669" lon="4.07482">
        <ele>5.765</ele>
        <time>2014-05-17T12:17:34Z</time>
      </trkpt>
      <trkpt lat="43.61668" lon="4.07475">
        <ele>6.311</ele>
        <time>2014-05-17T12:17:38Z</time>
      </trkpt>
      <trkpt lat="43.61661" lon="4.07465">
        <ele>7.15</ele>
        <time>2014-05-17T12:17:45Z</time>
      </trkpt>
      <trkpt lat="43.61656" lon="4.07453">
        <ele>8.262</ele>
        <time>2014-05-17T12:17:53Z</time>
      </trkpt>
      <trkpt lat="43.6165" lon="4.07444">
        <ele>9.683</ele>
        <time>2014-05-17T12:18:01Z</time>
      </trkpt>
      <trkpt lat="43.61649" lon="4.07435">
        <ele>11.161</ele>
        <time>2014-05-17T12:18:09Z</time>
      </trkpt>
      <trkpt lat="43.61645" lon="4.07419">
        <ele>12.823</ele>
        <time>2014-05-17T12:18:18Z</time>
      </trkpt>
      <trkpt lat="43.6164" lon="4.07415">
        <ele>13.362</ele>
        <time>2014-05-17T12:18:26Z</time>
      </trkpt>
      <trkpt lat="43.61636" lon="4.07409">
        <ele>12.25</ele>
        <time>2014-05-17T12:18:36Z</time>
      </trkpt>
      <trkpt lat="43.61634" lon="4.07402">
        <ele>11.59</ele>
        <time>2014-05-17T12:18:45Z</time>
      </trkpt>
      <trkpt lat="43.61634" lon="4.07404">
        <ele>8.076</ele>
        <time>2014-05-17T12:19:10Z</time>
      </trkpt>
      <trkpt lat="43.61633" lon="4.07405">
        <ele>7.192</ele>
        <time>2014-05-17T12:19:18Z</time>
      </trkpt>
      <trkpt lat="43.61641" lon="4.07392">
        <ele>4.625</ele>
        <time>2014-05-17T12:19:56Z</time>
      </trkpt>
      <trkpt lat="43.61643" lon="4.07391">
        <ele>2.954</ele>
        <time>2014-05-17T12:19:58Z</time>
      </trkpt>
      <trkpt lat="43.61652" lon="4.07382">
        <ele>0.264</ele>
        <time>2014-05-17T12:20:07Z</time>
      </trkpt>
      <trkpt lat="43.61657" lon="4.07373">
        <ele>-0.695</ele>
        <time>2014-05-17T12:20:15Z</time>
      </trkpt>
      <trkpt lat="43.6167" lon="4.07364">
        <ele>-2.235</ele>
        <time>2014-05-17T12:20:25Z</time>
      </trkpt>
      <trkpt lat="43.61677" lon="4.07351">
        <ele>-6.224</ele>
        <time>2014-05-17T12:20:37Z</time>
      </trkpt>
      <trkpt lat="43.61685" lon="4.07344">
        <ele>-6.769</ele>
        <time>2014-05-17T12:20:44Z</time>
      </trkpt>
      <trkpt lat="43.61693" lon="4.07337">
        <ele>-6.788</ele>
        <time>2014-05-17T12:20:53Z</time>
      </trkpt>
      <trkpt lat="43.61694" lon="4.07336">
        <ele>-6.769</ele>
        <time>2014-05-17T12:20:54Z</time>
      </trkpt>
      <trkpt lat="43.61703" lon="4.07324">
        <ele>-6.329</ele>
        <time>2014-05-17T12:21:04Z</time>
      </trkpt>
      <trkpt lat="43.61705" lon="4.07321">
        <ele>-6.133</ele>
        <time>2014-05-17T12:21:08Z</time>
      </trkpt>
      <trkpt lat="43.61706" lon="4.0732">
        <ele>-6.007</ele>
        <time>2014-05-17T12:21:11Z</time>
      </trkpt>
      <trkpt lat="43.61715" lon="4.07303">
        <ele>-5.421</ele>
        <time>2014-05-17T12:21:21Z</time>
      </trkpt>
      <trkpt lat="43.61726" lon="4.07294">
        <ele>-5.987</ele>
        <time>2014-05-17T12:21:31Z</time>
      </trkpt>
      <trkpt lat="43.61735" lon="4.07287">
        <ele>-6.172</ele>
        <time>2014-05-17T12:21:39Z</time>
      </trkpt>
      <trkpt lat="43.61744" lon="4.07278">
        <ele>-5.755</ele>
        <time>2014-05-17T12:21:47Z</time>
      </trkpt>
      <trkpt lat="43.61751" lon="4.07267">
        <ele>-4.956</ele>
        <time>2014-05-17T12:21:55Z</time>
      </trkpt>
      <trkpt lat="43.61757" lon="4.07263">
        <ele>-3.94</ele>
        <time>2014-05-17T12:22:03Z</time>
      </trkpt>
      <trkpt lat="43.61765" lon="4.07255">
        <ele>-3.244</ele>
        <time>2014-05-17T12:22:10Z</time>
      </trkpt>
      <trkpt lat="43.61767" lon="4.07252">
        <ele>-2.844</ele>
        <time>2014-05-17T12:22:14Z</time>
      </trkpt>
      <trkpt lat="43.61769" lon="4.07248">
        <ele>-2.54</ele>
        <time>2014-05-17T12:22:17Z</time>
      </trkpt>
      <trkpt lat="43.61777" lon="4.07237">
        <ele>-1.455</ele>
        <time>2014-05-17T12:22:26Z</time>
      </trkpt>
      <trkpt lat="43.61787" lon="4.07227">
        <ele>-0.114</ele>
        <time>2014-05-17T12:22:34Z</time>
      </trkpt>
      <trkpt lat="43.61795" lon="4.07221">
        <ele>1.068</ele>
        <time>2014-05-17T12:22:41Z</time>
      </trkpt>
      <trkpt lat="43.61804" lon="4.07214">
        <ele>2.763</ele>
        <time>2014-05-17T12:22:50Z</time>
      </trkpt>
      <trkpt lat="43.61813" lon="4.07202">
        <ele>4.597</ele>
        <time>2014-05-17T12:22:59Z</time>
      </trkpt>
      <trkpt lat="43.61821" lon="4.07196">
        <ele>6.159</ele>
        <time>2014-05-17T12:23:07Z</time>
      </trkpt>
      <trkpt lat="43.61828" lon="4.07188">
        <ele>8.08</ele>
        <time>2014-05-17T12:23:15Z</time>
      </trkpt>
      <trkpt lat="43.61831" lon="4.07184">
        <ele>8.486</ele>
        <time>2014-05-17T12:23:17Z</time>
      </trkpt>
      <trkpt lat="43.61836" lon="4.0718">
        <ele>9.181</ele>
        <time>2014-05-17T12:23:20Z</time>
      </trkpt>
      <trkpt lat="43.6184" lon="4.07173">
        <ele>10.154</ele>
        <time>2014-05-17T12:23:25Z</time>
      </trkpt>
      <trkpt lat="43.61846" lon="4.07166">
        <ele>11.929</ele>
        <time>2014-05-17T12:23:32Z</time>
      </trkpt>
      <trkpt lat="43.61852" lon="4.07163">
        <ele>13.422</ele>
        <time>2014-05-17T12:23:38Z</time>
      </trkpt>
      <trkpt lat="43.61861" lon="4.07152">
        <ele>15.945</ele>
        <time>2014-05-17T12:23:48Z</time>
      </trkpt>
      <trkpt lat="43.6187" lon="4.07143">
        <ele>18.112</ele>
        <time>2014-05-17T12:23:56Z</time>
      </trkpt>
      <trkpt lat="43.61878" lon="4.07131">
        <ele>20.366</ele>
        <time>2014-05-17T12:24:05Z</time>
      </trkpt>
      <trkpt lat="43.61878" lon="4.07131">
        <ele>20.664</ele>
        <time>2014-05-17T12:24:06Z</time>
      </trkpt>
      <trkpt lat="43.61885" lon="4.0712">
        <ele>22.977</ele>
        <time>2014-05-17T12:24:15Z</time>
      </trkpt>
      <trkpt lat="43.61897" lon="4.07109">
        <ele>25.346</ele>
        <time>2014-05-17T12:24:24Z</time>
      </trkpt>
      <trkpt lat="43.61904" lon="4.07101">
        <ele>26.98</ele>
        <time>2014-05-17T12:24:30Z</time>
      </trkpt>
      <trkpt lat="43.61912" lon="4.0709">
        <ele>28.842</ele>
        <time>2014-05-17T12:24:38Z</time>
      </trkpt>
      <trkpt lat="43.61913" lon="4.07089">
        <ele>28.938</ele>
        <time>2014-05-17T12:24:39Z</time>
      </trkpt>
      <trkpt lat="43.6192" lon="4.0708">
        <ele>30.799</ele>
        <time>2014-05-17T12:24:48Z</time>
      </trkpt>
      <trkpt lat="43.61926" lon="4.07073">
        <ele>31.496</ele>
        <time>2014-05-17T12:24:54Z</time>
      </trkpt>
      <trkpt lat="43.61928" lon="4.07067">
        <ele>31.947</ele>
        <time>2014-05-17T12:24:57Z</time>
      </trkpt>
      <trkpt lat="43.61931" lon="4.0706">
        <ele>32.219</ele>
        <time>2014-05-17T12:25:01Z</time>
      </trkpt>
      <trkpt lat="43.61935" lon="4.07053">
        <ele>33.819</ele>
        <time>2014-05-17T12:25:09Z</time>
      </trkpt>
      <trkpt lat="43.61943" lon="4.07042">
        <ele>33.835</ele>
        <time>2014-05-17T12:25:18Z</time>
      </trkpt>
      <trkpt lat="43.6195" lon="4.07036">
        <ele>34.785</ele>
        <time>2014-05-17T12:25:25Z</time>
      </trkpt>
      <trkpt lat="43.6196" lon="4.0703">
        <ele>35.184</ele>
        <time>2014-05-17T12:25:33Z</time>
      </trkpt>
      <trkpt lat="43.61964" lon="4.07024">
        <ele>34.808</ele>
        <time>2014-05-17T12:25:43Z</time>
      </trkpt>
      <trkpt lat="43.61974" lon="4.07017">
        <ele>35.47</ele>
        <time>2014-05-17T12:25:51Z</time>
      </trkpt>
      <trkpt lat="43.61976" lon="4.07015">
        <ele>35.335</ele>
        <time>2014-05-17T12:25:53Z</time>
      </trkpt>
      <trkpt lat="43.61978" lon="4.0701">
        <ele>33.937</ele>
        <time>2014-05-17T12:26:00Z</time>
      </trkpt>
      <trkpt lat="43.61979" lon="4.07009">
        <ele>33.479</ele>
        <time>2014-05-17T12:26:01Z</time>
      </trkpt>
      <trkpt lat="43.61979" lon="4.06999">
        <ele>30.68</ele>
        <time>2014-05-17T12:26:09Z</time>
      </trkpt>
      <trkpt lat="43.61977" lon="4.06996">
        <ele>30.066</ele>
        <time>2014-05-17T12:26:12Z</time>
      </trkpt>
      <trkpt lat="43.61973" lon="4.06978">
        <ele>26.187</ele>
        <time>2014-05-17T12:26:22Z</time>
      </trkpt>
      <trkpt lat="43.61969" lon="4.06975">
        <ele>25.51</ele>
        <time>2014-05-17T12:26:25Z</time>
      </trkpt>
      <trkpt lat="43.61964" lon="4.0696">
        <ele>25.865</ele>
        <time>2014-05-17T12:26:36Z</time>
      </trkpt>
      <trkpt lat="43.61962" lon="4.06957">
        <ele>24.677</ele>
        <time>2014-05-17T12:26:39Z</time>
      </trkpt>
      <trkpt lat="43.6196" lon="4.06954">
        <ele>24.275</ele>
        <time>2014-05-17T12:26:41Z</time>
      </trkpt>
      <trkpt lat="43.61955" lon="4.06934">
        <ele>19.402</ele>
        <time>2014-05-17T12:26:52Z</time>
      </trkpt>
      <trkpt lat="43.61947" lon="4.06918">
        <ele>18.097</ele>
        <time>2014-05-17T12:27:06Z</time>
      </trkpt>
      <trkpt lat="43.61939" lon="4.06921">
        <ele>17.523</ele>
        <time>2014-05-17T12:27:18Z</time>
      </trkpt>
      <trkpt lat="43.61939" lon="4.06932">
        <ele>17.525</ele>
        <time>2014-05-17T12:27:39Z</time>
      </trkpt>
      <trkpt lat="43.61936" lon="4.0692">
        <ele>13.587</ele>
        <time>2014-05-17T12:27:55Z</time>
      </trkpt>
      <trkpt lat="43.61928" lon="4.06903">
        <ele>13.059</ele>
        <time>2014-05-17T12:28:06Z</time>
      </trkpt>
      <trkpt lat="43.61917" lon="4.06884">
        <ele>12.825</ele>
        <time>2014-05-17T12:28:18Z</time>
      </trkpt>
      <trkpt lat="43.61913" lon="4.06861">
        <ele>11.479</ele>
        <time>2014-05-17T12:28:30Z</time>
      </trkpt>
      <trkpt lat="43.61904" lon="4.06847">
        <ele>10.593</ele>
        <time>2014-05-17T12:28:40Z</time>
      </trkpt>
      <trkpt lat="43.61897" lon="4.06834">
        <ele>10.095</ele>
        <time>2014-05-17T12:28:49Z</time>
      </trkpt>
      <trkpt lat="43.61894" lon="4.0683">
        <ele>8.161</ele>
        <time>2014-05-17T12:28:57Z</time>
      </trkpt>
      <trkpt lat="43.61886" lon="4.06826">
        <ele>4.211</ele>
        <time>2014-05-17T12:29:14Z</time>
      </trkpt>
      <trkpt lat="43.61887" lon="4.06828">
        <ele>3.601</ele>
        <time>2014-05-17T12:29:36Z</time>
      </trkpt>
      <trkpt lat="43.61888" lon="4.06828">
        <ele>2.648</ele>
        <time>2014-05-17T12:30:03Z</time>
      </trkpt>
      <trkpt lat="43.61889" lon="4.06833">
        <ele>0.67</ele>
        <time>2014-05-17T12:30:59Z</time>
      </trkpt>
      <trkpt lat="43.61889" lon="4.06833">
        <ele>0.67</ele>
        <time>2014-05-17T12:31:06Z</time>
      </trkpt>
    </trkseg>
  </trk>
</gpx>